[[{"header":{"parameterUnit":"m.s-1","parameterCategory":1,"la1":30.6,"la2":29.2853,"lo1":-89.7004,"lo2":-87.6739,"dx":0.0162,"dy":0.0183,"nx":112,"ny":82,"refTime":"2022-11-24T18:00:00:Z","depth":0,"parameterNumber":2,"parameterNumberName":"U-component_of_WINDS"},"data":[0.0,0.0,0.0,0.0,0.0,0.0,0.0,0.0,0.0,0.0,0.0,0.0,0.0,0.0,0.0,0.0,0.0,0.0,0.0,0.0,0.0,0.0,0.0,0.0,0.0,0.0,0.0,0.0,0.0,0.0,0.0,0.0,0.0,0.0,0.0,0.0,0.0,0.0,0.0,0.0,0.0,0.0,0.0,0.0,0.0,0.0,0.0,0.0,0.0,0.0,0.0,0.0,0.0,0.0,0.0,0.0,0.0,0.0,0.0,0.0,0.0,0.0,0.0,0.0,0.0,0.0,0.0,0.0,0.0,0.0,0.0,0.0,0.0,0.0,0.0,0.0,0.0,0.0,0.0,0.0,0.0,0.0,0.0,0.0,0.0,0.0,0.0,0.0,0.0,0.0,-1.6801,-1.6595,-1.6267,-1.5986,-1.5794,-1.5626,-1.597,-1.7119,0.0,0.0,0.0,0.0,0.0,0.0,0.0,0.0,0.0,0.0,0.0,0.0,0.0,0.0,0.0,0.0,0.0,0.0,0.0,0.0,0.0,0.0,0.0,0.0,0.0,0.0,0.0,0.0,0.0,0.0,0.0,0.0,0.0,0.0,0.0,0.0,0.0,0.0,0.0,0.0,0.0,0.0,0.0,0.0,0.0,0.0,0.0,0.0,0.0,0.0,0.0,0.0,0.0,0.0,0.0,0.0,0.0,0.0,0.0,0.0,0.0,0.0,0.0,0.0,0.0,0.0,0.0,0.0,0.0,0.0,0.0,0.0,0.0,0.0,0.0,0.0,0.0,0.0,0.0,0.0,0.0,0.0,0.0,0.0,0.0,0.0,0.0,0.0,0.0,0.0,0.0,0.0,0.0,0.0,0.0,0.0,0.0,0.0,0.0,0.0,0.0,0.0,0.0,0.0,-1.628,-1.5972,-1.5718,-1.5617,-1.5562,-1.5507,-1.6117,-1.7505,0.0,0.0,0.0,0.0,0.0,0.0,0.0,0.0,0.0,0.0,0.0,0.0,0.0,0.0,0.0,0.0,0.0,0.0,0.0,0.0,0.0,0.0,0.0,0.0,0.0,0.0,0.0,0.0,0.0,0.0,0.0,0.0,0.0,0.0,0.0,0.0,0.0,0.0,0.0,0.0,0.0,0.0,0.0,0.0,0.0,0.0,0.0,0.0,0.0,0.0,0.0,0.0,0.0,0.0,0.0,0.0,0.0,0.0,0.0,0.0,0.0,0.0,0.0,0.0,0.0,0.0,0.0,0.0,0.0,0.0,0.0,0.0,0.0,0.0,0.0,0.0,0.0,0.0,0.0,0.0,0.0,0.0,0.0,0.0,0.0,0.0,0.0,0.0,0.0,0.0,0.0,0.0,0.0,0.0,0.0,0.0,0.0,0.0,0.0,0.0,0.0,0.0,0.0,-1.6651,-1.6128,-1.5473,-1.558,-1.5579,-1.532,-1.5415,-1.6011,-1.7213,-1.7677,0.0,0.0,0.0,0.0,0.0,0.0,0.0,0.0,0.0,0.0,0.0,0.0,0.0,0.0,0.0,0.0,0.0,0.0,0.0,0.0,0.0,0.0,0.0,0.0,0.0,0.0,0.0,0.0,0.0,0.0,0.0,0.0,0.0,0.0,0.0,0.0,0.0,0.0,0.0,0.0,0.0,0.0,0.0,0.0,0.0,0.0,0.0,0.0,0.0,0.0,0.0,0.0,0.0,0.0,0.0,0.0,0.0,0.0,0.0,0.0,0.0,0.0,0.0,0.0,0.0,0.0,0.0,0.0,0.0,0.0,0.0,0.0,0.0,0.0,0.0,0.0,0.0,0.0,0.0,0.0,0.0,0.0,0.0,0.0,0.0,0.0,0.0,0.0,0.0,0.0,0.0,0.0,0.0,0.0,0.0,0.0,0.0,0.0,0.0,0.0,0.0,0.0,-1.6734,-1.632,-1.5467,-1.5655,-1.5682,-1.5299,-1.5533,-1.6136,-1.7174,-1.8012,0.0,0.0,0.0,0.0,0.0,0.0,0.0,0.0,0.0,0.0,0.0,0.0,0.0,0.0,0.0,0.0,0.0,0.0,0.0,0.0,0.0,0.0,0.0,0.0,0.0,0.0,0.0,0.0,0.0,0.0,0.0,0.0,0.0,0.0,0.0,0.0,0.0,0.0,0.0,0.0,0.0,0.0,0.0,0.0,0.0,0.0,0.0,0.0,0.0,0.0,0.0,0.0,0.0,0.0,0.0,0.0,0.0,0.0,0.0,0.0,0.0,0.0,0.0,0.0,0.0,0.0,0.0,0.0,0.0,0.0,0.0,0.0,0.0,0.0,0.0,0.0,0.0,0.0,0.0,0.0,0.0,0.0,0.0,0.0,0.0,0.0,0.0,0.0,0.0,0.0,0.0,0.0,0.0,0.0,0.0,0.0,0.0,0.0,0.0,0.0,0.0,0.0,-1.7064,-1.6746,-1.626,-1.5783,-1.5605,-1.5826,-1.611,-1.6765,-1.7924,-1.8803,0.0,0.0,0.0,0.0,0.0,0.0,0.0,0.0,0.0,0.0,0.0,0.0,0.0,0.0,0.0,0.0,0.0,0.0,0.0,0.0,0.0,0.0,0.0,0.0,0.0,0.0,0.0,0.0,0.0,0.0,0.0,0.0,0.0,0.0,0.0,0.0,0.0,0.0,0.0,0.0,0.0,0.0,0.0,0.0,0.0,0.0,0.0,0.0,0.0,0.0,0.0,0.0,0.0,0.0,0.0,0.0,0.0,0.0,0.0,0.0,0.0,0.0,0.0,0.0,0.0,0.0,0.0,0.0,0.0,0.0,0.0,0.0,0.0,0.0,0.0,0.0,0.0,0.0,0.0,0.0,0.0,0.0,0.0,0.0,0.0,0.0,0.0,0.0,0.0,0.0,0.0,0.0,0.0,0.0,0.0,0.0,0.0,0.0,0.0,0.0,0.0,0.0,-1.7009,-1.696,-1.5897,-1.6264,-1.629,-1.5647,-1.5844,-1.6582,-1.793,0.0,0.0,0.0,0.0,0.0,0.0,0.0,0.0,0.0,0.0,0.0,0.0,0.0,0.0,0.0,0.0,0.0,0.0,0.0,0.0,0.0,0.0,0.0,0.0,0.0,0.0,0.0,0.0,0.0,0.0,0.0,0.0,0.0,0.0,0.0,0.0,0.0,0.0,0.0,0.0,0.0,0.0,0.0,0.0,0.0,0.0,0.0,0.0,0.0,0.0,0.0,0.0,0.0,0.0,0.0,0.0,0.0,0.0,0.0,0.0,0.0,0.0,0.0,0.0,0.0,0.0,0.0,0.0,0.0,0.0,0.0,0.0,0.0,0.0,0.0,0.0,0.0,0.0,0.0,0.0,0.0,0.0,0.0,0.0,0.0,0.0,0.0,0.0,0.0,0.0,0.0,0.0,0.0,0.0,0.0,0.0,0.0,0.0,0.0,0.0,0.0,0.0,-1.6586,-1.696,-1.6935,-1.5979,-1.6418,-1.6451,-1.5599,-1.5861,-1.6617,-1.7843,0.0,0.0,0.0,0.0,0.0,0.0,0.0,0.0,0.0,0.0,0.0,0.0,0.0,0.0,0.0,0.0,0.0,0.0,0.0,0.0,0.0,0.0,0.0,0.0,0.0,0.0,0.0,0.0,0.0,0.0,0.0,0.0,0.0,0.0,0.0,0.0,0.0,0.0,0.0,0.0,0.0,0.0,0.0,0.0,0.0,0.0,0.0,0.0,0.0,0.0,0.0,0.0,0.0,0.0,0.0,0.0,0.0,0.0,0.0,0.0,0.0,0.0,0.0,0.0,0.0,0.0,0.0,0.0,0.0,0.0,0.0,0.0,0.0,0.0,0.0,0.0,0.0,0.0,0.0,0.0,0.0,0.0,0.0,0.0,0.0,0.0,0.0,0.0,0.0,0.0,0.0,0.0,0.0,0.0,0.0,0.0,0.0,0.0,0.0,0.0,0.0,0.0,-1.7398,-1.6972,-1.6678,-1.6678,-1.6216,-1.5899,-1.5791,-1.635,-1.6987,0.0,0.0,0.0,0.0,0.0,0.0,0.0,0.0,0.0,0.0,0.0,0.0,0.0,0.0,0.0,0.0,0.0,0.0,0.0,0.0,0.0,0.0,0.0,0.0,0.0,0.0,0.0,0.0,0.0,0.0,0.0,0.0,0.0,0.0,0.0,0.0,0.0,0.0,0.0,0.0,0.0,0.0,0.0,0.0,0.0,0.0,0.0,0.0,0.0,0.0,0.0,0.0,0.0,0.0,0.0,0.0,0.0,0.0,0.0,0.0,0.0,0.0,0.0,0.0,0.0,0.0,0.0,0.0,0.0,0.0,0.0,0.0,0.0,0.0,0.0,0.0,0.0,0.0,0.0,0.0,0.0,0.0,0.0,0.0,0.0,0.0,0.0,0.0,0.0,0.0,0.0,0.0,0.0,0.0,0.0,0.0,0.0,0.0,0.0,0.0,0.0,0.0,0.0,-1.6611,-1.678,-1.6839,-1.6394,-1.6614,-1.6541,-1.6057,-1.6,-1.61,-1.6361,0.0,0.0,0.0,0.0,0.0,0.0,0.0,0.0,0.0,0.0,0.0,0.0,0.0,0.0,0.0,0.0,0.0,0.0,0.0,0.0,0.0,0.0,0.0,0.0,0.0,0.0,0.0,0.0,0.0,0.0,0.0,0.0,0.0,0.0,0.0,0.0,0.0,0.0,0.0,0.0,0.0,0.0,0.0,0.0,0.0,0.0,0.0,0.0,0.0,0.0,0.0,0.0,0.0,0.0,0.0,0.0,0.0,0.0,0.0,0.0,0.0,0.0,0.0,0.0,0.0,0.0,0.0,0.0,0.0,0.0,0.0,0.0,0.0,0.0,0.0,0.0,0.0,0.0,0.0,0.0,0.0,0.0,0.0,0.0,0.0,0.0,0.0,0.0,0.0,0.0,0.0,0.0,0.0,0.0,0.0,0.0,0.0,0.0,0.0,0.0,0.0,0.0,-1.6435,-1.6679,-1.6782,-1.6386,-1.6615,-1.6515,-1.5987,-1.5652,-1.5517,-1.55,0.0,0.0,0.0,0.0,0.0,0.0,0.0,0.0,0.0,0.0,0.0,0.0,0.0,0.0,0.0,0.0,0.0,0.0,0.0,0.0,0.0,0.0,0.0,0.0,0.0,0.0,0.0,0.0,0.0,0.0,0.0,0.0,0.0,0.0,0.0,0.0,0.0,0.0,0.0,0.0,0.0,0.0,0.0,0.0,0.0,0.0,0.0,0.0,0.0,0.0,0.0,0.0,0.0,0.0,0.0,0.0,0.0,0.0,0.0,0.0,0.0,0.0,0.0,0.0,0.0,0.0,0.0,0.0,0.0,0.0,0.0,0.0,0.0,0.0,0.0,0.0,0.0,0.0,0.0,0.0,0.0,0.0,0.0,0.0,0.0,0.0,0.0,0.0,0.0,0.0,0.0,0.0,0.0,0.0,0.0,0.0,0.0,0.0,0.0,0.0,0.0,0.0,-1.6655,-1.6544,-1.6576,-1.6599,-1.6344,-1.608,-1.5787,-1.5401,-1.5109,-1.4971,0.0,0.0,0.0,0.0,0.0,0.0,0.0,0.0,0.0,0.0,0.0,0.0,0.0,0.0,0.0,0.0,0.0,0.0,0.0,0.0,0.0,0.0,0.0,0.0,0.0,0.0,0.0,0.0,0.0,0.0,0.0,0.0,0.0,0.0,0.0,0.0,0.0,0.0,0.0,0.0,0.0,0.0,0.0,0.0,0.0,0.0,0.0,0.0,0.0,0.0,0.0,0.0,0.0,0.0,0.0,0.0,0.0,0.0,0.0,0.0,-1.1421,-1.1425,0.0,0.0,0.0,0.0,0.0,0.0,0.0,0.0,0.0,0.0,0.0,0.0,0.0,0.0,0.0,0.0,0.0,0.0,0.0,0.0,0.0,0.0,0.0,0.0,0.0,0.0,0.0,0.0,0.0,0.0,0.0,0.0,0.0,0.0,0.0,0.0,0.0,0.0,0.0,0.0,-1.6831,-1.6383,-1.6222,-1.6724,-1.6459,-1.6276,-1.6197,-1.535,-1.4602,-1.4099,-1.4256,0.0,0.0,0.0,0.0,0.0,0.0,0.0,0.0,0.0,0.0,0.0,0.0,0.0,0.0,0.0,0.0,0.0,0.0,0.0,0.0,0.0,0.0,0.0,0.0,0.0,0.0,0.0,0.0,0.0,0.0,0.0,0.0,0.0,0.0,0.0,0.0,0.0,0.0,0.0,0.0,0.0,0.0,0.0,0.0,0.0,0.0,0.0,0.0,0.0,0.0,0.0,0.0,0.0,0.0,0.0,0.0,0.0,0.0,0.0,-1.0307,-1.0465,0.0,0.0,0.0,0.0,0.0,0.0,0.0,0.0,0.0,0.0,0.0,0.0,0.0,0.0,0.0,0.0,0.0,0.0,0.0,0.0,0.0,0.0,0.0,0.0,0.0,0.0,0.0,0.0,0.0,0.0,0.0,0.0,0.0,0.0,0.0,0.0,0.0,0.0,0.0,0.0,-1.6544,-1.6064,-1.5836,-1.6139,-1.5909,-1.5554,-1.5317,-1.4495,-1.3743,-1.3115,-1.2886,0.0,0.0,0.0,0.0,0.0,0.0,0.0,0.0,0.0,0.0,0.0,0.0,0.0,0.0,0.0,0.0,0.0,0.0,0.0,0.0,0.0,0.0,0.0,0.0,0.0,0.0,0.0,0.0,0.0,0.0,0.0,0.0,0.0,0.0,0.0,0.0,0.0,0.0,0.0,0.0,0.0,0.0,0.0,0.0,0.0,0.0,0.0,0.0,0.0,0.0,0.0,0.0,0.0,-0.688,-0.6813,-0.6743,-0.7104,-0.7473,-0.7888,-0.9108,-0.9335,-0.8861,-0.918,0.0,0.0,0.0,0.0,0.0,0.0,0.0,0.0,0.0,0.0,0.0,0.0,0.0,0.0,0.0,0.0,0.0,0.0,0.0,0.0,0.0,0.0,-1.1838,-1.1489,-1.0826,-1.0484,-1.1203,0.0,0.0,0.0,0.0,0.0,0.0,0.0,0.0,0.0,0.0,0.0,-1.6147,-1.5592,-1.5232,-1.5287,-1.4964,-1.464,-1.4152,-1.3497,-1.2914,-1.2378,-1.1667,-1.1441,0.0,0.0,0.0,0.0,0.0,0.0,0.0,0.0,0.0,0.0,0.0,0.0,0.0,0.0,0.0,0.0,0.0,0.0,0.0,0.0,0.0,0.0,0.0,0.0,0.0,0.0,0.0,0.0,0.0,0.0,0.0,0.0,-1.0944,-1.0095,0.0,0.0,0.0,0.0,0.0,0.0,0.0,0.0,0.0,0.0,0.0,0.0,0.0,-0.7224,-0.7104,-0.6458,-0.6138,-0.6141,-0.6152,-0.6162,-0.6098,-0.6544,-0.6769,-0.6844,-0.7376,0.0,-0.8216,-0.8549,0.0,0.0,0.0,0.0,0.0,0.0,0.0,0.0,0.0,0.0,0.0,0.0,0.0,0.0,0.0,0.0,0.0,0.0,0.0,0.0,0.0,0.0,-1.084,-1.0378,-1.0153,-1.0072,-1.0191,-1.0512,-1.0816,-1.0998,-1.1931,-1.2645,0.0,0.0,0.0,0.0,0.0,0.0,-1.5802,-1.475,-1.4129,-1.44,-1.4129,-1.3917,-1.3891,-1.3146,-1.2684,-1.246,-1.1851,-1.1247,-1.0769,-1.0239,0.0,0.0,0.0,0.0,0.0,0.0,0.0,0.0,0.0,0.0,0.0,0.0,0.0,0.0,0.0,0.0,0.0,0.0,0.0,0.0,0.0,0.0,0.0,0.0,0.0,0.0,0.0,0.0,0.0,-1.054,-0.9309,-0.8089,-0.8361,-0.8361,0.0,0.0,0.0,0.0,0.0,0.0,0.0,0.0,0.0,-0.5784,-0.5567,-0.5413,-0.5403,-0.5176,-0.5149,-0.5405,-0.5245,-0.5437,-0.5912,-0.6069,-0.6305,-0.6537,-0.6725,-0.6895,-0.7189,-0.731,-0.709,-0.6693,0.0,0.0,0.0,0.0,-0.9337,-0.9522,-0.9216,-0.9264,-0.9389,-0.945,0.0,0.0,0.0,0.0,0.0,0.0,0.0,-1.14,-1.0938,-1.0754,-1.0618,-1.048,-1.0293,-1.0148,-1.0366,-1.0275,-1.0082,-1.0331,-1.0793,-1.1326,-1.1881,-1.2669,0.0,0.0,0.0,-1.4205,-1.472,-1.3959,-1.3448,-1.379,-1.3436,-1.3122,-1.3028,-1.2542,-1.2197,-1.2027,-1.12,-1.0662,-1.0537,-0.9643,-0.9537,0.0,0.0,0.0,0.0,0.0,0.0,0.0,0.0,0.0,0.0,0.0,0.0,0.0,0.0,0.0,0.0,0.0,0.0,0.0,0.0,0.0,0.0,0.0,0.0,0.0,0.0,0.0,0.0,-0.8951,-0.7735,-0.6453,-0.6492,-0.6191,0.0,0.0,0.0,0.0,0.0,0.0,-0.5069,-0.4739,-0.4349,-0.3975,-0.4036,-0.407,-0.407,-0.4234,-0.4436,-0.4752,-0.4434,-0.4715,-0.5286,-0.5286,-0.5529,-0.5848,-0.5799,-0.5774,-0.5756,-0.6187,-0.6188,-0.5897,-0.6459,-0.6885,-0.7151,-0.7474,-0.7853,-0.8075,-0.7879,-0.7842,-0.7846,-0.7875,-0.8096,-0.8308,-0.8556,0.0,0.0,0.0,0.0,-1.0245,-0.9942,-1.012,-1.0367,-1.0317,-1.0191,-1.0116,-1.0416,-1.0116,-0.9774,-1.0013,-1.0,-1.0296,-1.1214,-1.1521,0.0,-1.3102,-1.3173,-1.3194,-1.3647,-1.3026,-1.2726,-1.2963,-1.2518,-1.2179,-1.1994,-1.1738,-1.1507,-1.1357,-1.048,-1.0095,-1.0335,-0.9087,-0.8856,-0.9748,0.0,0.0,0.0,0.0,0.0,0.0,0.0,0.0,0.0,0.0,0.0,0.0,0.0,0.0,0.0,0.0,0.0,0.0,0.0,0.0,0.0,0.0,0.0,0.0,0.0,0.0,0.0,0.0,0.0,-0.5716,-0.5305,0.0,0.0,0.0,0.0,-0.5147,-0.4187,-0.3648,-0.3694,-0.3364,-0.3388,-0.3694,-0.378,-0.3825,-0.3825,-0.3874,-0.3899,-0.398,-0.3903,-0.3986,-0.3986,-0.3986,-0.3986,-0.4067,-0.4063,-0.4063,-0.4133,-0.5549,-0.6075,-0.6058,-0.5982,-0.5998,-0.5987,-0.5835,-0.6315,-0.697,-0.6974,-0.748,-0.8082,-0.8181,-0.8214,-0.8229,-0.8398,-0.873,0.0,0.0,-0.9171,-0.9713,-0.8716,-0.9125,-0.9661,-0.9216,-0.9446,-0.9746,-0.9746,-0.9746,-0.9777,-1.0075,-1.012,-1.0111,-1.0284,0.0,-1.1769,-1.2315,-1.2384,-1.2553,-1.2801,-1.2079,-1.1512,-1.1525,-1.1145,-1.0915,-1.0909,-1.0786,-1.0584,-1.0455,-0.9971,-0.9707,-0.9579,-0.8692,-0.8214,-0.8277,-0.773,0.0,0.0,0.0,0.0,0.0,0.0,0.0,0.0,0.0,0.0,0.0,0.0,0.0,0.0,0.0,0.0,0.0,0.0,0.0,0.0,0.0,0.0,0.0,0.0,0.0,0.0,0.0,0.0,-0.4218,-0.3776,0.0,-0.257,-0.2862,-0.302,-0.2983,-0.2645,-0.2516,-0.291,-0.2813,-0.2843,-0.3,-0.3262,-0.3449,-0.3394,-0.3408,-0.3593,-0.3866,-0.3647,-0.3741,-0.3989,-0.3989,-0.3989,-0.3987,-0.396,-0.3866,-0.3942,-0.4427,-0.4708,-0.4695,-0.4547,-0.451,-0.454,-0.4749,-0.5173,-0.5676,-0.6002,-0.6583,-0.7256,-0.7587,-0.7714,-0.7761,-0.7731,-0.7991,-0.8166,-0.7822,-0.8232,-0.8679,-0.8269,-0.8846,-0.9433,-0.928,-0.9356,-0.9587,-0.9818,-0.9728,-0.9744,-1.0004,-0.9936,-0.9951,-1.0149,-1.0284,-1.0572,-1.1225,-1.1123,-1.1131,-1.1577,-1.1258,-1.1083,-1.1333,-1.1124,-1.0924,-1.0924,-1.0875,-1.0977,-1.1259,-1.0474,-1.0023,-1.0108,-0.8781,-0.8129,-0.8341,-0.7844,-0.7799,0.0,0.0,0.0,0.0,0.0,0.0,0.0,0.0,0.0,0.0,0.0,0.0,0.0,0.0,0.0,0.0,0.0,0.0,0.0,0.0,0.0,0.0,0.0,0.0,0.0,-0.4669,-0.3861,-0.3068,-0.2484,-0.1915,-0.1284,-0.1433,-0.1513,-0.1609,-0.1628,-0.1799,-0.2043,-0.2153,-0.2253,-0.2334,-0.2654,-0.283,-0.3026,-0.3026,-0.3126,-0.3246,-0.3018,-0.3029,-0.3363,-0.3363,-0.3447,-0.353,-0.3506,-0.3496,-0.3492,-0.3453,-0.3444,-0.3526,-0.38,-0.3999,-0.4261,-0.4795,-0.5384,-0.5826,-0.6158,-0.6441,-0.659,-0.6929,-0.7131,-0.7173,-0.7299,-0.7374,-0.7509,-0.7493,-0.7842,-0.8238,-0.8015,-0.8595,-0.9194,-0.912,-0.9194,-0.9341,-0.9777,-0.9624,-0.9511,-0.9949,-0.9998,-1.0013,-1.0089,-1.0089,-1.0089,-1.0469,-1.0468,-1.0614,-1.0892,-1.0815,-1.0904,-1.1077,-1.0827,-1.0597,-1.0443,-1.075,-1.0995,-1.1247,-1.0503,-1.0278,-1.0678,-0.912,-0.8373,-0.8611,-0.8045,-0.8103,-0.8709,0.0,0.0,0.0,0.0,0.0,0.0,0.0,0.0,0.0,0.0,0.0,0.0,0.0,0.0,0.0,0.0,0.0,0.0,0.0,0.0,0.0,0.0,0.0,-0.3566,-0.3009,-0.249,-0.2228,-0.1579,-0.1136,-0.1137,-0.1149,-0.1163,-0.1178,-0.1271,-0.1286,-0.1301,-0.1303,-0.1466,-0.1873,-0.1873,-0.2129,-0.2565,-0.2565,-0.233,-0.2018,-0.2018,-0.2018,-0.2018,-0.2018,-0.2272,-0.2692,-0.2692,-0.2692,-0.269,-0.2661,-0.2665,-0.285,-0.389,-0.4638,-0.5109,-0.5918,-0.6755,-0.7463,-0.7459,-0.6911,-0.6295,-0.637,-0.6394,-0.6487,-0.6963,-0.7066,-0.7224,-0.7633,-0.8114,-0.8352,-0.7952,-0.8437,-0.8922,-0.8518,-0.8679,-0.9059,-0.9437,-0.9262,-0.922,-0.9998,-1.0353,-1.0425,-1.0108,-1.0342,-1.0419,-1.003,-1.0549,0.0,-1.0775,-1.0764,-1.0764,-1.0764,-1.0258,-0.9797,-0.9412,-1.0199,-1.0583,-1.0197,-1.0127,-1.0316,-1.0919,-0.9584,-0.8899,-0.8976,-0.8263,-0.8263,-0.8895,0.0,0.0,0.0,0.0,0.0,0.0,0.0,0.0,0.0,0.0,0.0,0.0,0.0,0.0,0.0,0.0,0.0,0.0,0.0,0.0,0.0,-0.1597,-0.1274,-0.1777,-0.1164,-0.0742,-0.0677,-0.0228,0.0,-0.0311,-0.0312,-0.0471,-0.0716,-0.0798,-0.0964,-0.1301,-0.1312,-0.1483,-0.1977,-0.1648,-0.1657,-0.2177,-0.1828,-0.1581,-0.1514,-0.1514,-0.1514,-0.1514,-0.185,-0.2103,-0.2188,-0.2524,-0.2692,-0.2691,-0.2683,-0.2684,-0.2686,-0.3025,-0.3417,-0.3849,-0.4408,-0.5164,-0.6019,-0.6292,-0.6191,-0.6032,-0.6462,-0.655,-0.6557,-0.6656,-0.7114,-0.7621,-0.7637,-0.8128,-0.8628,-0.8549,-0.8763,-0.8899,-0.8819,-0.8634,-0.8675,-0.905,-0.8883,-0.8866,-0.9408,-0.9784,-1.0061,-1.0302,-1.0126,-0.9886,-0.9807,-0.9617,-0.9562,-0.9527,-0.9527,-0.9527,-0.9527,-0.9337,-0.9242,-0.9077,-0.9342,-0.9667,-1.0052,-0.9506,-0.9366,-0.9753,-0.8787,-0.8197,-0.8033,-0.803,-0.8279,0.0,0.0,0.0,0.0,0.0,0.0,0.0,0.0,0.0,0.0,0.0,0.0,0.0,0.0,0.0,0.0,0.0,0.0,0.0,0.0,0.0,0.0,-0.0423,0.0,-0.0145,0.0074,0.0301,0.0533,0.0463,0.0312,0.0235,0.0079,-0.0079,-0.0322,-0.0322,-0.0487,-0.0742,-0.0748,-0.1083,-0.1666,-0.1244,-0.1331,-0.2018,-0.1505,-0.1173,-0.1016,-0.1021,-0.1021,-0.1016,-0.1362,-0.1532,-0.1694,-0.2033,-0.2202,-0.2372,-0.2445,-0.2524,-0.2687,0.0,0.0,0.0,0.0,-0.5522,-0.5881,-0.6085,-0.5909,-0.5669,-0.5943,-0.6037,-0.6123,-0.6317,-0.6711,-0.7077,-0.7196,-0.7714,-0.8237,-0.8237,-0.828,-0.8238,-0.8238,-0.8117,-0.8061,-0.8426,-0.8497,-0.8553,-0.909,-0.9283,0.0,-0.9891,-0.984,-0.9647,-0.9485,-0.9274,-0.912,-0.9078,-0.9068,-0.9068,-0.9068,-0.9031,-0.8922,-0.8765,-0.9125,0.0,0.0,0.0,-0.9048,-0.8907,-0.837,0.0,0.0,0.0,-0.7941,-0.8177,-0.829,0.0,0.0,-0.878,-0.8719,0.0,0.0,0.0,0.0,0.0,0.0,0.0,0.0,0.0,0.0,0.0,0.0,0.0,0.0,0.0,0.0,0.0427,0.1027,0.1263,0.0979,0.0838,0.1233,0.0624,0.0314,0.063,0.0394,0.0159,0.0081,0.0082,0.0082,0.0,0.0,0.0,0.0,0.0,-0.0917,-0.185,-0.1346,-0.1015,-0.0599,-0.0605,-0.0605,-0.06,-0.0692,-0.0863,-0.1197,-0.1281,-0.1537,-0.1962,-0.1943,-0.2188,-0.269,-0.3163,-0.3813,-0.4716,-0.6302,-0.6604,-0.6364,-0.6364,0.0,0.0,-0.5286,-0.5305,-0.5399,-0.5876,-0.6059,-0.6221,-0.657,-0.7063,-0.7463,-0.7463,-0.7379,-0.7379,-0.7463,-0.7394,-0.7387,-0.7809,-0.7944,-0.8152,-0.8902,-0.879,-0.8685,-0.9188,-0.9506,-0.9588,-0.9182,-0.9179,-0.9202,-0.9109,-0.9099,-0.9099,-0.9099,-0.8934,0.0,-0.8315,-0.9116,-0.9462,-0.9133,-0.9145,-0.8869,-0.8135,-0.8123,-0.8013,-0.7781,-0.7395,-0.7279,-0.7437,-0.7589,-0.7871,-0.8352,-0.8688,-0.8799,0.0,0.0,0.0,0.0,0.0,0.0,0.0,0.0,0.0,0.0,0.0,0.0,0.0,0.0,0.0,0.0779,0.1526,0.2082,0.2184,0.183,0.1538,0.1311,0.1403,0.142,0.1195,0.1115,0.0885,0.0577,0.0578,0.0415,0.0,0.0,-0.0253,-0.0758,-0.0336,-0.042,-0.0926,-0.0505,-0.0254,-0.0171,-0.0172,0.0,-0.0173,-0.0516,-0.0771,-0.0855,-0.1186,-0.135,-0.1434,-0.1431,-0.1682,-0.2187,-0.3021,-0.369,-0.4189,-0.4932,-0.5346,-0.5599,-0.5599,-0.5516,-0.5352,-0.5363,-0.5368,-0.5379,-0.5608,-0.6011,0.0,-0.6626,-0.7227,-0.7702,-0.7702,-0.7458,-0.7293,-0.7702,-0.7311,-0.7064,-0.7473,-0.7362,-0.7327,-0.7831,-0.7843,-0.7941,-0.8457,-0.8742,-0.8874,-0.8795,-0.8553,-0.8307,-0.829,-0.8286,-0.8286,-0.8286,-0.794,-0.7678,-0.7595,-0.7418,-0.7323,-0.724,-0.7255,-0.7154,-0.6923,-0.6944,-0.6893,-0.6777,-0.6682,-0.685,-0.7202,-0.7217,-0.7467,-0.7867,-0.8264,-0.8641,0.0,0.0,0.0,0.0,0.0,0.0,0.0,0.0,0.0,0.0,0.0,-0.0266,0.0273,0.0,0.1136,0.1644,0.1974,0.2165,0.2344,0.222,0.2088,0.1945,0.1722,0.1578,0.1598,0.144,0.1128,0.0738,0.0908,0.083,0.0334,0.0336,0.0168,-0.0337,-0.0084,-0.0253,-0.0674,-0.0254,0.0,0.0,0.0,0.0,0.0,-0.0259,-0.0344,-0.0342,-0.0596,-0.0764,-0.1018,-0.1181,-0.143,-0.1682,-0.244,-0.3113,-0.3785,-0.4204,-0.4458,-0.471,-0.4962,-0.5046,-0.5135,-0.5335,-0.5409,-0.5401,-0.5491,-0.5816,-0.6033,-0.6096,-0.6554,-0.6982,-0.7021,-0.6835,-0.6731,-0.7021,-0.6751,-0.6547,-0.6808,-0.6835,-0.6945,-0.7208,-0.7208,-0.7295,-0.7555,-0.7746,-0.7944,-0.8458,-0.8369,-0.8114,-0.7858,-0.7858,-0.7773,-0.7514,-0.7262,-0.7177,-0.7177,-0.6921,-0.6836,-0.6836,-0.6836,-0.6633,-0.6392,-0.6356,-0.6238,-0.5955,-0.5921,-0.6,-0.6282,-0.6282,-0.6447,-0.6938,-0.7102,-0.7553,0.0,0.0,0.0,0.0,0.0,0.0,0.0,-0.0766,-0.0129,-0.0067,0.0676,0.1504,0.1753,0.1851,0.1942,0.2235,0.2128,0.2017,0.2351,0.2454,0.248,0.2511,0.1968,0.1663,0.2004,0.1769,0.1376,0.0982,0.1239,0.1246,0.083,0.0754,0.0505,0.0168,0.0084,-0.0168,-0.0421,-0.017,0.0085,0.0171,0.0086,0.0,0.0,0.0,0.0,0.0,0.0,-0.0256,-0.0597,-0.0929,-0.1093,-0.1262,-0.1682,-0.2356,-0.3197,-0.37,-0.3952,-0.4036,-0.4467,-0.4556,-0.4649,-0.5215,-0.5288,-0.5354,-0.5545,-0.5545,-0.5521,-0.5578,-0.5813,-0.6034,-0.6088,-0.6052,-0.6016,-0.6156,-0.6181,-0.6103,-0.619,-0.646,-0.6728,-0.6815,-0.6815,-0.6815,-0.6902,-0.6989,-0.724,-0.7905,-0.7988,-0.7901,-0.7468,-0.7472,-0.7295,-0.6945,-0.6859,-0.6772,-0.6685,-0.6685,-0.6685,-0.6685,-0.6685,-0.6483,-0.5986,-0.6017,-0.5816,-0.5384,-0.5335,-0.5341,-0.5401,-0.5306,-0.5474,-0.5987,-0.5891,-0.6241,-0.4174,-0.2793,-0.1508,-0.092,-0.0498,-0.0126,0.0,0.058,0.0923,0.1006,0.158,0.2105,0.2208,0.2237,0.2264,0.2364,0.2373,0.2398,0.2455,0.2467,0.248,0.2511,0.2459,0.2486,0.2513,0.2458,0.2318,0.1926,0.1929,0.168,0.126,0.0925,0.0674,0.0589,0.0253,0.0168,0.0505,0.0169,0.017,0.0599,0.0171,0.0,0.0,0.0,0.0,0.0,0.0,0.0,-0.0084,-0.0168,-0.0421,-0.0842,-0.1178,-0.1682,-0.2272,-0.3113,-0.3701,-0.4042,-0.4168,-0.418,-0.4274,-0.4755,-0.4855,-0.4949,-0.5534,-0.5723,-0.5643,-0.5703,-0.5676,-0.572,-0.5726,-0.5681,-0.5724,-0.6082,-0.5952,-0.5816,-0.6171,-0.6039,-0.5987,-0.6433,-0.6519,-0.67,-0.706,-0.7149,-0.7102,-0.7052,-0.7032,-0.7032,-0.6945,-0.6945,-0.6945,-0.6945,-0.6515,-0.6169,-0.5732,-0.5732,-0.5732,-0.5732,-0.5732,-0.5707,-0.5562,-0.5554,-0.5524,-0.5384,-0.5376,-0.5403,-0.5466,-0.4987,-0.5071,-0.5549,-0.5069,-0.5541,-0.272,-0.164,-0.0674,-0.0062,0.0499,0.1003,0.1608,0.1882,0.197,0.2032,0.2352,0.2465,0.2356,0.2313,0.2343,0.2373,0.2363,0.2373,0.2433,0.2443,0.2454,0.2484,0.2293,0.233,0.2598,0.2368,0.214,0.1997,0.2263,0.2181,0.175,0.1258,0.1178,0.1431,0.0758,0.0589,0.101,0.0842,0.0843,0.1016,0.0847,0.0595,0.0427,0.0425,0.0254,0.0,0.0255,0.0254,0.0,0.0,-0.0253,-0.0758,-0.1186,-0.1614,-0.2122,-0.2784,-0.3113,-0.3286,-0.3578,-0.3678,-0.3775,-0.4276,-0.4632,-0.4884,-0.5231,-0.5499,-0.5662,-0.5722,-0.5698,-0.566,-0.5692,-0.5657,-0.5709,-0.5833,-0.5773,-0.5703,-0.5881,-0.5811,-0.5741,-0.6007,-0.6007,-0.6099,-0.6279,-0.6368,-0.6261,-0.6204,-0.6725,-0.699,-0.6722,-0.6633,-0.6548,-0.6195,-0.6018,-0.5842,-0.5665,-0.5665,-0.5665,-0.5665,-0.5665,-0.5624,-0.5529,-0.5267,-0.514,-0.4964,-0.471,-0.4635,-0.4659,-0.4383,-0.4383,-0.4656,-0.4383,-0.4623,-0.1418,-0.0555,0.0185,0.075,0.1371,0.188,0.234,0.2478,0.2494,0.2525,0.2632,0.2521,0.2202,0.2157,0.2188,0.2224,0.2212,0.2221,0.2439,0.2281,0.2283,0.2311,0.188,0.1752,0.2344,0.2198,0.2054,0.2159,0.2513,0.2515,0.2244,0.1759,0.1685,0.2028,0.1264,0.1096,0.1521,0.1348,0.1346,0.1514,0.1346,0.1178,0.0842,0.0845,0.0676,0.0253,0.0511,0.0425,0.0,0.0,-0.0254,-0.0762,-0.1198,-0.1719,-0.2146,-0.2555,-0.2712,-0.2709,-0.3072,-0.3259,-0.3362,-0.3863,-0.4226,-0.4573,-0.4909,-0.5263,-0.5507,-0.5638,-0.5709,-0.5684,-0.573,-0.5709,-0.5687,-0.573,-0.5741,-0.5741,-0.5741,-0.5741,-0.5741,-0.5741,-0.5741,-0.5741,-0.5741,-0.5741,-0.5741,-0.5741,-0.6279,-0.6637,-0.6365,-0.6276,-0.6097,-0.5741,-0.5741,-0.5652,-0.5562,-0.547,-0.5473,-0.5293,-0.5293,-0.5251,-0.524,-0.4874,-0.4652,-0.4565,-0.421,-0.4042,-0.4054,-0.3873,-0.3873,-0.4054,-0.3873,-0.3868,-0.0247,0.0678,0.1541,0.1851,0.2183,0.2405,0.2187,0.2087,0.2125,0.2188,0.22,0.2141,0.1751,0.1704,0.1733,0.1776,0.1782,0.1956,0.2421,0.2076,0.1825,0.1926,0.1157,0.1013,0.1916,0.2041,0.2159,0.2604,0.2692,0.2692,0.2691,0.2271,0.2029,0.2137,0.1607,0.1522,0.2051,0.1522,0.1514,0.1934,0.1514,0.1262,0.1262,0.1361,0.1105,0.0674,0.0681,0.0425,0.0,0.0,-0.0257,-0.077,-0.1212,-0.1651,-0.2173,-0.2607,-0.2762,-0.2736,-0.2737,-0.2757,-0.2874,-0.3344,-0.3556,-0.3766,-0.4751,-0.502,-0.5109,-0.5559,-0.5739,-0.5739,-0.5741,-0.5739,-0.5739,-0.5741,-0.5741,-0.5741,-0.5741,-0.5741,-0.5741,-0.5741,-0.5741,-0.5741,-0.5741,-0.5741,-0.5741,-0.5741,-0.5741,-0.5741,-0.5741,-0.5741,-0.5741,-0.5741,-0.5741,-0.547,-0.5022,-0.5022,-0.4843,-0.4397,-0.4307,-0.4287,-0.424,-0.4195,-0.415,-0.4103,-0.4058,-0.4058,-0.4101,-0.3638,-0.3638,-0.4101,-0.3636,-0.3617,0.0494,0.1234,0.1911,0.2221,0.2414,0.2559,0.2724,0.2766,0.2679,0.2532,0.2511,0.2417,0.21,0.2056,0.2092,0.222,0.2229,0.2246,0.2447,0.2301,0.222,0.2212,0.1779,0.1728,0.2317,0.1611,0.1472,0.2183,0.2256,0.2253,0.2271,0.2103,0.2114,0.248,0.2046,0.2052,0.2595,0.231,0.2297,0.2467,0.2027,0.1781,0.1806,0.1813,0.164,0.1205,0.1131,0.0869,0.043,0.0086,-0.0432,-0.1212,-0.1313,-0.1846,-0.2549,-0.2726,-0.2793,-0.2767,-0.2767,-0.2774,-0.2788,-0.2994,-0.3293,-0.3678,-0.3947,-0.4485,-0.5022,-0.5201,-0.547,-0.5741,-0.5741,-0.5741,-0.5741,-0.5741,-0.5741,-0.5741,-0.5741,-0.5741,-0.5741,-0.5741,-0.5741,-0.5741,-0.5741,-0.5741,-0.5741,-0.5741,-0.5741,-0.5741,-0.5741,-0.5741,-0.5562,-0.5291,-0.5201,-0.5022,-0.4576,-0.4576,-0.4487,-0.4307,-0.4307,-0.4275,-0.4197,-0.392,-0.3707,-0.3639,-0.3288,-0.3118,-0.313,-0.3035,-0.3035,-0.313,-0.3035,-0.3029,0.1234,0.1789,0.2282,0.259,0.2529,0.2354,0.2515,0.2417,0.2319,0.2101,0.2014,0.185,0.1597,0.1555,0.1584,0.1913,0.2008,0.2104,0.2359,0.238,0.2308,0.2442,0.2009,0.1964,0.2555,0.1599,0.1298,0.2182,0.2081,0.2078,0.227,0.2272,0.2368,0.2651,0.2481,0.2494,0.2782,0.2763,0.2748,0.2737,0.2377,0.2302,0.2335,0.2344,0.2087,0.1653,0.1671,0.1317,0.0696,0.0349,-0.0437,-0.1401,-0.1416,-0.1951,-0.2829,-0.2829,-0.2803,-0.2767,-0.2767,-0.2767,-0.2772,-0.2803,-0.301,-0.3393,-0.3585,-0.4037,-0.4574,-0.4664,-0.4935,-0.5204,-0.5204,-0.5293,-0.547,-0.547,-0.5562,-0.5741,-0.5741,-0.5741,-0.5741,-0.5741,-0.5741,-0.5652,-0.547,-0.547,-0.547,-0.5652,-0.5741,-0.5652,-0.547,-0.547,-0.5291,-0.4843,-0.4753,-0.4574,-0.4128,-0.4038,-0.3949,-0.3769,-0.3771,-0.3748,-0.3696,-0.3406,-0.3196,-0.3152,-0.2872,-0.2692,-0.2692,-0.2692,-0.2692,-0.2692,-0.2692,-0.2692,0.191,0.2281,0.259,0.2899,0.2467,0.1857,0.1571,0.12,0.0956,0.1049,0.0733,0.0473,0.048,0.0211,0.0287,0.1091,0.1266,0.1597,0.2385,0.216,0.2084,0.2469,0.1853,0.1714,0.2551,0.1838,0.1704,0.2602,0.2248,0.2161,0.2607,0.2692,0.2706,0.2736,0.2739,0.2755,0.2785,0.2785,0.277,0.274,0.2655,0.2656,0.2743,0.2773,0.2525,0.2179,0.2202,0.1671,0.0785,0.0705,-0.0177,-0.1328,-0.1431,-0.1963,-0.2829,-0.283,-0.2792,-0.2737,-0.274,-0.2739,-0.2743,-0.2773,-0.2804,-0.2923,-0.3399,-0.3588,-0.3678,-0.4128,-0.4307,-0.4307,-0.4307,-0.4664,-0.5022,-0.5022,-0.538,-0.5741,-0.5741,-0.5741,-0.5741,-0.5741,-0.5652,-0.547,-0.5022,-0.5022,-0.5112,-0.5562,-0.5652,-0.547,-0.5022,-0.5022,-0.4843,-0.4307,-0.4307,-0.4038,-0.3588,-0.359,-0.3411,-0.2964,-0.2874,-0.2874,-0.2872,-0.2816,-0.2785,-0.2784,-0.2727,-0.2697,-0.2697,-0.2697,-0.2697,-0.2697,-0.2695,-0.2695,0.231,0.2384,0.2467,0.2282,0.1727,0.1239,0.1133,0.07,0.0322,0.0591,0.02,-0.0135,0.0069,0.0279,0.0637,0.1148,0.1481,0.1819,0.2357,0.2397,0.2417,0.2472,0.2333,0.2281,0.2555,0.2079,0.2028,0.2686,0.2248,0.2078,0.2186,0.2524,0.2706,0.2736,0.2759,0.2787,0.2816,0.2816,0.2801,0.2772,0.2425,0.2436,0.2806,0.2462,0.2387,0.2672,0.2323,0.2054,0.1693,0.0625,-0.0268,-0.0984,-0.1704,-0.232,-0.2831,-0.2855,-0.281,-0.2742,-0.2763,-0.2757,-0.2743,-0.2773,-0.2804,-0.2834,-0.3043,-0.3321,-0.3588,-0.3769,-0.4038,-0.4397,-0.4753,-0.4933,-0.5112,-0.547,-0.5652,-0.5741,-0.5741,-0.5741,-0.5741,-0.5741,-0.538,-0.5022,-0.4576,-0.4753,-0.5022,-0.5201,-0.5201,-0.5112,-0.5022,-0.5022,-0.4664,-0.3857,-0.3769,-0.359,-0.3143,-0.3053,-0.3053,-0.2874,-0.2874,-0.2864,-0.2841,-0.2825,-0.2806,-0.2784,-0.2767,-0.2761,-0.2761,-0.2761,-0.2761,-0.2759,-0.2736,-0.2727,0.244,0.2389,0.2221,0.2034,0.1357,0.0804,0.0811,0.0253,-0.0193,0.0,-0.0531,-0.0948,-0.0553,-0.0281,0.0,0.0576,0.1181,0.1655,0.2043,0.2311,0.2571,0.2721,0.2581,0.2605,0.2875,0.2319,0.2105,0.2583,0.2241,0.2078,0.227,0.2524,0.2701,0.2717,0.2747,0.2784,0.2829,0.2842,0.2833,0.2803,0.254,0.2461,0.2475,0.2209,0.2312,0.2604,0.2335,0.2066,0.1795,0.0718,-0.009,-0.0808,-0.1795,-0.232,-0.2565,-0.2759,-0.2804,-0.274,-0.2758,-0.2743,-0.2725,-0.2769,-0.2795,-0.2816,-0.286,-0.3053,-0.3321,-0.3321,-0.359,-0.4038,-0.4305,-0.4664,-0.5022,-0.5291,-0.5562,-0.5741,-0.5741,-0.5741,-0.5652,-0.547,-0.5022,-0.4664,-0.4574,-0.4664,-0.4753,-0.4933,-0.5022,-0.4843,-0.4395,-0.4395,-0.4126,-0.3411,-0.3321,-0.3142,-0.2964,-0.2874,-0.2874,-0.2874,-0.2874,-0.2776,-0.2582,-0.2747,-0.2732,-0.254,-0.2702,-0.2784,-0.2784,-0.2784,-0.2784,-0.2782,-0.2766,-0.2758,0.246,0.2213,0.1907,0.1849,0.1171,0.0431,0.0433,-0.0188,-0.07,-0.0581,-0.1256,-0.1763,-0.132,-0.1201,-0.086,-0.0217,0.0588,0.1343,0.1663,0.222,0.2712,0.2978,0.2749,0.2682,0.3113,0.2399,0.218,0.2559,0.2315,0.2244,0.2691,0.2692,0.2694,0.2698,0.2724,0.2765,0.2822,0.2853,0.2853,0.2822,0.2742,0.2566,0.2209,0.2035,0.2047,0.2156,0.2156,0.1884,0.1344,0.0808,0.009,-0.0806,-0.1884,-0.2228,-0.2205,-0.2651,-0.2788,-0.2732,-0.2736,-0.2718,-0.2702,-0.2763,-0.2784,-0.2795,-0.2856,-0.2874,-0.2874,-0.2874,-0.3231,-0.3588,-0.3678,-0.4305,-0.5022,-0.5112,-0.538,-0.5741,-0.5741,-0.5741,-0.5562,-0.5022,-0.4664,-0.4487,-0.4753,-0.4485,-0.4397,-0.4843,-0.4843,-0.4485,-0.3678,-0.3588,-0.3411,-0.2964,-0.2874,-0.2874,-0.2874,-0.2874,-0.2874,-0.2874,-0.2874,-0.2694,-0.2245,-0.2492,-0.2569,-0.2126,-0.2545,-0.2707,-0.2796,-0.2796,-0.2796,-0.2795,-0.2791,-0.2789,0.2428,0.1998,0.1519,0.123,0.0611,0.0061,0.0063,-0.0954,-0.1743,-0.1113,-0.2062,-0.2763,-0.21,-0.1523,-0.1056,-0.0918,0.0291,0.1268,0.1361,0.2297,0.2869,0.2667,0.2826,0.2919,0.2716,0.2559,0.2503,0.2559,0.2565,0.2577,0.2691,0.2692,0.2703,0.2729,0.2735,0.2755,0.2791,0.2821,0.2821,0.2792,0.2487,0.2406,0.2652,0.1873,0.1793,0.2156,0.2156,0.1876,0.133,0.0447,-0.0179,-0.0798,-0.2237,-0.2751,-0.2706,-0.2731,-0.2774,-0.2703,-0.2729,-0.2718,-0.2702,-0.2763,-0.2784,-0.2795,-0.2856,-0.2874,-0.2874,-0.2874,-0.3231,-0.3678,-0.4038,-0.4574,-0.5112,-0.547,-0.5652,-0.5741,-0.5741,-0.5741,-0.5473,-0.4576,-0.4664,-0.4664,-0.3947,-0.4128,-0.4307,-0.4397,-0.4126,-0.3768,-0.3588,-0.3588,-0.3411,-0.2964,-0.2874,-0.2874,-0.2874,-0.2874,-0.2874,-0.2874,-0.2874,-0.2694,-0.2245,-0.2241,-0.2239,-0.2149,-0.2235,-0.25,-0.2859,-0.2859,-0.2859,-0.2857,-0.2833,-0.2821,0.2099,0.1719,0.1224,0.1048,0.0368,-0.0246,-0.0251,-0.1213,-0.2007,-0.1445,-0.2199,-0.2766,-0.2312,-0.172,-0.1395,-0.1415,-0.0432,0.044,0.0897,0.1583,0.2204,0.2386,0.2466,0.2484,0.2532,0.214,0.208,0.2537,0.2391,0.241,0.2691,0.2692,0.2699,0.2714,0.2729,0.2744,0.2759,0.2806,0.2821,0.2807,0.257,0.2487,0.2387,0.1943,0.1766,0.1766,0.1766,0.1497,0.0964,0.0,-0.053,-0.0884,-0.2311,-0.2656,-0.2457,-0.2735,-0.2781,-0.2718,-0.2732,-0.2718,-0.2702,-0.2763,-0.2784,-0.2795,-0.2856,-0.2874,-0.2874,-0.2874,-0.3411,-0.4038,-0.4218,-0.4845,-0.538,-0.5652,-0.5741,-0.5741,-0.5741,-0.5741,-0.5383,-0.4487,-0.4487,-0.4395,-0.3678,-0.3769,-0.3949,-0.3949,-0.3769,-0.3499,-0.3231,-0.3231,-0.3142,-0.2964,-0.2874,-0.2874,-0.2874,-0.2874,-0.2874,-0.2874,-0.2874,-0.2694,-0.2245,-0.2425,-0.2425,-0.2245,-0.2425,-0.2694,-0.2874,-0.2874,-0.2874,-0.2874,-0.2859,-0.2852,0.1565,0.1302,0.0918,0.0863,0.0184,-0.049,-0.0502,-0.1401,-0.2064,-0.1707,-0.2267,-0.2702,-0.2254,-0.1925,-0.1738,-0.1776,-0.1002,-0.0217,0.037,0.1189,0.1866,0.2344,0.22,0.2221,0.25,0.1887,0.1748,0.2427,0.2133,0.2244,0.2691,0.2692,0.2692,0.2692,0.2716,0.2728,0.2728,0.2782,0.2812,0.2819,0.2826,0.2655,0.2305,0.2192,0.192,0.1571,0.148,0.1129,0.0607,-0.0347,-0.0787,-0.0969,-0.2296,-0.256,-0.229,-0.2643,-0.278,-0.2728,-0.2728,-0.2713,-0.2702,-0.2936,-0.2958,-0.2969,-0.2945,-0.2964,-0.3053,-0.2964,-0.3592,-0.4307,-0.4307,-0.5025,-0.5741,-0.5741,-0.5741,-0.5741,-0.5741,-0.5741,-0.5383,-0.4487,-0.4397,-0.4307,-0.3678,-0.3588,-0.3588,-0.3588,-0.3499,-0.3321,-0.2964,-0.2874,-0.2874,-0.2874,-0.2874,-0.2874,-0.2874,-0.2874,-0.2874,-0.2874,-0.2874,-0.2694,-0.2245,-0.2515,-0.2604,-0.2245,-0.2604,-0.2784,-0.2874,-0.2874,-0.2874,-0.2874,-0.2874,-0.2874,0.0618,0.0605,0.0536,0.0552,0.006,-0.0412,-0.0499,-0.158,-0.2358,-0.1704,-0.2399,-0.2961,-0.2293,-0.2204,-0.2173,-0.2178,-0.1003,0.0,0.0074,0.2006,0.3136,0.2495,0.2751,0.285,0.255,0.2128,0.1918,0.1922,0.1961,0.2244,0.2691,0.2692,0.2692,0.2692,0.2695,0.2697,0.2697,0.2729,0.2761,0.2788,0.2815,0.2842,0.2779,0.2306,0.2118,0.2028,0.1571,0.1124,0.06,-0.0346,-0.0957,-0.1395,-0.2378,-0.2812,-0.2701,-0.2788,-0.2748,-0.2697,-0.2697,-0.2695,-0.2786,-0.3281,-0.3392,-0.3407,-0.3034,-0.3231,-0.3411,-0.3053,-0.3592,-0.4307,-0.4307,-0.5025,-0.5741,-0.5741,-0.5741,-0.5741,-0.5741,-0.5741,-0.5383,-0.4487,-0.4664,-0.4664,-0.3768,-0.3588,-0.3588,-0.3588,-0.3231,-0.2964,-0.2874,-0.2874,-0.2874,-0.2874,-0.2874,-0.2874,-0.2874,-0.2874,-0.2874,-0.2874,-0.2874,-0.2694,-0.2245,-0.2245,-0.2245,-0.2245,-0.2245,-0.2515,-0.2874,-0.2874,-0.2874,-0.2874,-0.2874,-0.2874,-0.0123,0.0181,0.0473,0.0239,-0.0414,-0.1006,-0.106,-0.2145,-0.2999,-0.2385,-0.2749,-0.3026,-0.2559,-0.1916,-0.1598,-0.1821,-0.0997,-0.0145,0.0293,0.1175,0.1839,0.1997,0.2171,0.22,0.1849,0.1645,0.1512,0.1534,0.1793,0.2058,0.2247,0.2514,0.2692,0.2692,0.2692,0.2692,0.2692,0.2722,0.2744,0.2757,0.2787,0.2808,0.2818,0.2614,0.2341,0.208,0.1553,0.1113,0.0594,-0.06,-0.121,-0.1478,-0.2447,-0.2795,-0.2784,-0.2784,-0.2744,-0.2692,-0.2692,-0.2692,-0.2786,-0.3369,-0.3653,-0.3842,-0.3479,-0.3231,-0.3143,-0.2964,-0.3592,-0.4307,-0.4307,-0.5025,-0.5741,-0.5741,-0.5741,-0.5741,-0.5741,-0.5741,-0.5383,-0.4487,-0.4487,-0.4307,-0.3321,-0.3142,-0.3142,-0.3142,-0.3053,-0.2874,-0.2874,-0.2874,-0.2874,-0.2874,-0.2874,-0.2874,-0.2874,-0.2874,-0.2874,-0.2874,-0.2874,-0.2784,-0.2604,-0.2604,-0.2604,-0.2604,-0.2604,-0.2604,-0.2515,-0.2515,-0.2335,-0.1976,-0.1976,-0.1976,-0.0996,-0.0491,0.0,-0.0242,-0.0782,-0.1331,-0.1518,-0.2485,-0.3278,-0.2807,-0.2961,-0.3094,-0.2761,-0.1777,-0.111,-0.1471,-0.064,0.0216,0.0728,0.1097,0.1464,0.1896,0.1855,0.1735,0.1601,0.1394,0.1263,0.1132,0.1462,0.1634,0.1645,0.2003,0.244,0.2692,0.2692,0.2692,0.2692,0.2714,0.2729,0.2737,0.2759,0.2774,0.2782,0.2579,0.2395,0.2224,0.1454,0.102,0.0758,-0.0681,-0.1375,-0.1471,-0.2432,-0.2777,-0.2772,-0.278,-0.2744,-0.2694,-0.2703,-0.2706,-0.2799,-0.3286,-0.366,-0.3766,-0.3645,-0.358,-0.35,-0.3323,-0.3859,-0.4576,-0.4666,-0.5204,-0.5741,-0.5741,-0.5741,-0.5741,-0.5741,-0.5741,-0.5473,-0.4666,-0.4487,-0.4218,-0.3412,-0.3233,-0.3143,-0.3143,-0.2964,-0.2874,-0.2874,-0.2874,-0.2874,-0.2874,-0.2874,-0.2874,-0.2874,-0.2874,-0.2874,-0.2874,-0.2874,-0.2874,-0.2874,-0.2874,-0.2874,-0.2874,-0.2874,-0.2694,-0.2425,-0.2425,-0.2245,-0.1885,-0.1885,-0.1885,-0.2183,-0.1593,-0.1075,-0.1091,-0.1072,-0.1124,-0.15,-0.2412,-0.3057,-0.2745,-0.2961,-0.3094,-0.2761,-0.1791,-0.1122,-0.1122,0.0215,0.1166,0.1166,0.2211,0.281,0.2337,0.2035,0.1986,0.2384,0.1673,0.1091,0.0719,0.0727,0.0732,0.0732,0.1081,0.1766,0.2692,0.2692,0.2692,0.2692,0.2692,0.2707,0.2737,0.2737,0.2754,0.2782,0.2321,0.231,0.2652,0.1283,0.0935,0.1179,-0.0596,-0.1369,-0.1456,-0.2425,-0.2765,-0.2742,-0.2772,-0.2744,-0.2697,-0.2727,-0.2737,-0.2829,-0.3294,-0.3155,-0.2916,-0.3357,-0.418,-0.4843,-0.4397,-0.4664,-0.5112,-0.5562,-0.5652,-0.5741,-0.5741,-0.5741,-0.5741,-0.5741,-0.5741,-0.5562,-0.5112,-0.5022,-0.4843,-0.4397,-0.3859,-0.3588,-0.3588,-0.3231,-0.2874,-0.2874,-0.2874,-0.2874,-0.2874,-0.2874,-0.2874,-0.2874,-0.2874,-0.2874,-0.2874,-0.2874,-0.2874,-0.2874,-0.2874,-0.2874,-0.2874,-0.2874,-0.2874,-0.2874,-0.2874,-0.2874,-0.2874,-0.2874,-0.2874,-0.3424,-0.2783,-0.2149,-0.2119,-0.205,-0.1992,-0.1934,-0.2718,-0.3317,-0.2812,-0.2961,-0.3094,-0.2761,-0.1777,-0.0972,-0.0701,0.0142,0.1011,0.1528,0.1684,0.1832,0.1969,0.1347,0.1143,0.1524,0.0851,0.047,0.0632,0.0644,0.0735,0.0741,0.1085,0.1598,0.2188,0.2188,0.2356,0.2692,0.2692,0.2698,0.2707,0.2728,0.2572,0.2321,0.1799,0.1539,0.1283,0.0171,-0.017,-0.0168,-0.1277,-0.1797,-0.1968,-0.2491,-0.2746,-0.2739,-0.2748,-0.2727,-0.2697,-0.2728,-0.2737,-0.2746,-0.332,-0.3419,-0.3331,-0.3911,-0.3848,-0.368,-0.4128,-0.4397,-0.4666,-0.5473,-0.5741,-0.5741,-0.5741,-0.5741,-0.5741,-0.5741,-0.5741,-0.5562,-0.5112,-0.5022,-0.4843,-0.4397,-0.4218,-0.4038,-0.4038,-0.3949,-0.3769,-0.3411,-0.3411,-0.3231,-0.2964,-0.2874,-0.2874,-0.2874,-0.2874,-0.2874,-0.2874,-0.2874,-0.2874,-0.2874,-0.2874,-0.2874,-0.2874,-0.2874,-0.2784,-0.2425,-0.2425,-0.2245,-0.1885,-0.1885,-0.1885,-0.4392,-0.3643,-0.3005,-0.305,-0.2744,-0.2372,-0.2351,-0.2688,-0.2965,-0.2617,-0.2558,-0.249,-0.2154,-0.1368,-0.0625,-0.014,0.0285,0.0867,0.1675,0.1471,0.1263,0.1349,0.1271,0.1131,0.0775,0.0698,0.0544,0.0392,0.0401,0.0407,0.0409,0.0663,0.1002,0.1496,0.1675,0.185,0.2188,0.2356,0.2356,0.2188,0.2373,0.221,0.1785,0.1361,0.102,0.085,-0.0256,-0.051,0.0,-0.1277,-0.1792,-0.1871,-0.2306,-0.256,-0.2722,-0.2733,-0.2718,-0.2698,-0.274,-0.2755,-0.2763,-0.3162,-0.3343,-0.3599,-0.3928,-0.3859,-0.3769,-0.4397,-0.4666,-0.4935,-0.5562,-0.5741,-0.5741,-0.5741,-0.5741,-0.5741,-0.5741,-0.5741,-0.5652,-0.5291,-0.5291,-0.5201,-0.4845,-0.4666,-0.4576,-0.4576,-0.4397,-0.4218,-0.3859,-0.3678,-0.35,-0.3231,-0.2964,-0.2874,-0.2874,-0.2874,-0.2874,-0.2874,-0.2874,-0.2874,-0.2874,-0.2874,-0.2874,-0.2874,-0.2874,-0.2784,-0.2425,-0.2425,-0.2335,-0.1975,-0.1795,-0.1795,0.0,-0.4273,-0.3696,-0.382,-0.3028,-0.2356,-0.2559,-0.2425,0.0,-0.2154,-0.1885,-0.1548,-0.1212,-0.0826,-0.035,0.0421,0.0573,0.0801,0.1677,0.1413,0.1067,0.0702,0.1579,0.1638,0.0234,0.0999,0.115,0.0157,0.0,0.0,0.0,0.0,0.0165,0.0651,0.0997,0.1259,0.126,0.1765,0.1766,0.1346,0.1766,0.1682,0.1262,0.0842,0.0842,0.1094,-0.0255,-0.034,0.0421,-0.085,-0.1357,-0.1431,-0.1957,-0.2377,-0.2697,-0.2724,-0.2717,-0.2701,-0.2759,-0.2781,-0.2788,-0.2818,-0.3182,-0.3542,-0.3664,-0.4303,-0.4933,-0.5022,-0.5291,-0.5652,-0.5652,-0.5741,-0.5741,-0.5741,-0.5741,-0.5741,-0.5741,-0.5741,-0.5741,-0.5741,-0.5741,-0.5741,-0.5747,-0.5383,-0.5022,-0.5027,-0.4666,-0.4397,-0.4397,-0.3949,-0.3678,-0.3588,-0.3142,-0.2874,-0.2874,-0.2874,-0.2874,-0.2874,-0.2874,-0.2874,-0.2874,-0.2874,-0.2874,-0.2874,-0.2874,-0.2874,-0.2874,-0.2874,-0.2874,-0.2874,-0.2425,-0.2425,-0.6046,0.0,-0.4624,-0.4275,-0.3564,-0.2759,0.0,-0.2223,-0.2425,-0.1885,-0.2087,-0.2223,-0.1616,-0.1639,-0.1386,-0.007,-0.0071,0.0144,0.1166,0.1247,0.1185,0.1052,0.1052,0.1131,0.1374,0.0773,0.0546,0.0864,0.0319,0.0,0.0,0.0,0.0082,0.0163,0.0245,0.0659,0.1329,0.1424,0.143,0.1262,0.143,0.1262,0.0842,0.0337,0.0,-0.0252,-0.1254,-0.1589,-0.143,-0.2006,-0.2343,-0.2356,-0.2532,-0.2615,-0.2692,-0.2701,-0.2699,-0.2698,-0.2735,-0.2763,-0.2875,-0.3258,-0.3464,-0.3661,-0.3996,-0.4279,-0.4576,-0.4933,-0.5112,-0.5291,-0.5652,-0.5741,-0.5741,-0.5741,-0.5741,-0.5741,-0.5741,-0.5741,-0.5741,-0.5741,-0.5741,-0.5755,-0.5801,-0.5681,-0.5575,-0.562,-0.5501,-0.5204,-0.4843,-0.4397,-0.4038,-0.3678,-0.3142,-0.2874,-0.2874,-0.2874,-0.2874,-0.2874,-0.2874,-0.2874,-0.2874,-0.2874,-0.2874,-0.2874,-0.2874,-0.2874,-0.2874,-0.2874,-0.2874,-0.2874,-0.2425,-0.2066,-0.6273,-0.5695,-0.5102,-0.4882,-0.4101,-0.3228,-0.2287,-0.2289,-0.229,-0.1548,-0.1683,-0.1821,-0.1222,-0.1443,-0.1324,-0.0212,-0.0286,-0.029,0.0515,0.0806,0.0882,0.0673,0.075,0.0905,0.0992,0.0696,0.0546,0.0628,0.0238,0.0,0.0,0.0,0.0,0.0,0.0,0.0244,0.0662,0.0916,0.0921,0.0673,0.0926,0.0757,0.0337,0.0084,-0.0168,-0.0421,-0.1081,-0.1416,-0.143,-0.183,-0.2172,-0.2457,-0.2361,-0.2532,-0.2712,-0.2698,-0.2692,-0.2697,-0.2728,-0.2767,-0.2896,-0.3369,-0.3739,-0.4008,-0.4448,-0.4806,-0.4994,-0.5015,-0.5112,-0.538,-0.5652,-0.5741,-0.5741,-0.5741,-0.5741,-0.5741,-0.5741,-0.5741,-0.5741,-0.5741,-0.5741,-0.576,-0.582,-0.5804,-0.5793,-0.5826,-0.5804,-0.5681,-0.5386,-0.4756,-0.4218,-0.3949,-0.3323,-0.2874,-0.2874,-0.2874,-0.2874,-0.2874,-0.2874,-0.2874,-0.2874,-0.2874,-0.2874,-0.2874,-0.2874,-0.2874,-0.2874,-0.2874,-0.2784,-0.2604,-0.2066,-0.1706,-0.6137,-0.5598,-0.5152,-0.5295,-0.4574,-0.3566,-0.2825,-0.2423,-0.2087,-0.1346,-0.1214,-0.1152,-0.0754,-0.0975,-0.0918,-0.0143,-0.0289,-0.0366,0.0,0.0368,0.0443,0.0226,0.0675,0.0827,0.0231,0.0694,0.0775,0.0157,0.0,0.0,-0.0079,0.0,-0.0079,-0.0157,-0.0159,-0.0081,-0.0082,0.0331,0.0416,0.0,0.042,0.042,0.0,0.0,0.0,0.0,-0.0583,-0.075,-0.0757,-0.1248,-0.176,-0.2046,-0.2111,-0.2369,-0.2728,-0.2702,-0.2692,-0.2697,-0.2728,-0.2774,-0.3003,-0.3568,-0.4,-0.4417,-0.4914,-0.5342,-0.5574,-0.5186,-0.538,-0.5741,-0.5741,-0.5741,-0.5741,-0.5741,-0.5741,-0.5741,-0.5741,-0.5741,-0.5741,-0.5741,-0.5741,-0.5763,-0.5834,-0.5839,-0.5834,-0.5845,-0.5839,-0.5809,-0.5749,-0.4935,-0.4397,-0.4397,-0.359,-0.2964,-0.2964,-0.2964,-0.2874,-0.2874,-0.2874,-0.2874,-0.2874,-0.2874,-0.2874,-0.2874,-0.2874,-0.2874,-0.2874,-0.2784,-0.2604,-0.2156,-0.1616,-0.1257,-0.5838,-0.5274,-0.4819,-0.4891,-0.4372,-0.3566,-0.249,-0.2425,-0.2425,-0.1683,-0.1767,-0.1851,-0.1168,-0.1333,-0.1285,-0.0143,-0.0072,0.0073,0.0439,0.0295,0.0297,0.0968,0.0526,0.038,0.0924,0.054,0.031,0.0471,0.0157,-0.0157,-0.0471,-0.0157,-0.0315,-0.1099,-0.0708,-0.0476,-0.0482,-0.0082,0.0083,0.0,0.0083,0.0083,0.0,0.0,0.0,-0.0084,-0.0832,-0.1,-0.0757,-0.1912,-0.2251,-0.2024,-0.2441,-0.2611,-0.2699,-0.2694,-0.2692,-0.2697,-0.2728,-0.3019,-0.3495,-0.406,-0.4395,-0.4811,-0.5439,-0.5609,-0.5662,-0.5633,-0.5652,-0.5741,-0.5741,-0.5741,-0.5741,-0.5741,-0.5741,-0.5741,-0.5741,-0.5741,-0.5741,-0.5741,-0.5741,-0.5777,-0.5888,-0.5867,-0.585,-0.5902,-0.5864,-0.5809,-0.5749,-0.5201,-0.4933,-0.4933,-0.4037,-0.35,-0.35,-0.3143,-0.2874,-0.2874,-0.2874,-0.2874,-0.2874,-0.2874,-0.2874,-0.2874,-0.2874,-0.2874,-0.2874,-0.2515,-0.2245,-0.2156,-0.1257,-0.0808,-0.5635,-0.5117,-0.4645,-0.4551,-0.3969,-0.3295,-0.2623,-0.2574,-0.252,-0.177,-0.179,-0.1811,-0.1474,-0.1207,-0.0789,-0.0144,0.0,0.0073,0.0219,0.0148,0.0149,0.052,0.0225,0.0152,0.0534,0.023,0.0,-0.0078,-0.0235,-0.055,-0.0942,-0.0785,-0.0864,-0.1256,-0.0864,-0.063,-0.0633,-0.0161,0.0,0.0,0.0,0.0,0.0,0.0,0.0,0.0,-0.0412,-0.0663,-0.0757,-0.1331,-0.1755,-0.2036,-0.2276,-0.2449,-0.2716,-0.2698,-0.2692,-0.2697,-0.2983,-0.3262,-0.3542,-0.4363,-0.4696,-0.4932,-0.548,-0.5649,-0.5621,-0.5714,-0.5741,-0.5741,-0.5741,-0.5741,-0.5741,-0.5741,-0.5741,-0.5741,-0.5741,-0.5741,-0.5741,-0.5741,-0.5741,-0.5769,-0.5858,-0.5878,-0.5891,-0.5918,-0.5927,-0.5907,-0.5848,-0.5356,-0.5065,-0.5065,-0.441,-0.3859,-0.3588,-0.3411,-0.3142,-0.2874,-0.2874,-0.2874,-0.2874,-0.2874,-0.2874,-0.2874,-0.2874,-0.2874,-0.2874,-0.2694,-0.2335,-0.1795,-0.1257,-0.0808,-0.5496,-0.4965,-0.4415,-0.4209,-0.3768,-0.3228,-0.269,-0.2585,-0.2406,-0.1718,-0.1533,-0.1556,-0.1429,-0.0789,-0.0216,0.0,0.0073,0.0073,0.0,0.0,0.0,0.0,0.0,0.0,0.0,0.0,-0.0153,-0.0462,-0.0545,-0.0783,-0.1099,-0.1099,-0.1256,-0.1414,-0.1021,-0.0785,-0.0942,-0.0477,-0.0242,0.0,0.0,0.0,0.0,0.0,-0.0082,-0.0165,-0.0327,-0.0659,-0.1006,-0.1246,-0.1674,-0.2213,-0.2194,-0.2368,-0.2724,-0.2785,-0.2781,-0.2791,-0.3318,-0.3585,-0.3683,-0.4491,-0.4901,-0.5047,-0.5507,-0.5684,-0.5581,-0.5689,-0.573,-0.5741,-0.5741,-0.5831,-0.592,-0.592,-0.601,-0.601,-0.592,-0.592,-0.5831,-0.5741,-0.5741,-0.576,-0.582,-0.5883,-0.5924,-0.5924,-0.5962,-0.597,-0.591,-0.5483,-0.5266,-0.5266,-0.4778,-0.4218,-0.3678,-0.3588,-0.3411,-0.2964,-0.2874,-0.2874,-0.2874,-0.2874,-0.2874,-0.2874,-0.2874,-0.2874,-0.2874,-0.2784,-0.2335,-0.1616,-0.1436,-0.0988,-0.5177,-0.464,-0.4091,-0.3875,-0.3768,-0.3499,-0.249,-0.2247,-0.1994,-0.1306,-0.1123,-0.1001,-0.0644,0.0,0.0437,0.0073,0.0295,0.0446,0.0074,0.0,0.0,0.0,0.0,0.0,0.0,0.0,0.0,-0.0077,-0.0386,-0.0621,-0.0628,-0.0628,-0.1021,-0.1807,-0.1493,-0.1414,-0.1807,-0.1431,-0.0805,0.0,0.0,0.0,0.0,0.0,-0.0244,-0.057,-0.1383,-0.1802,-0.1988,-0.2814,-0.2916,-0.2695,-0.2692,-0.2694,-0.2779,-0.3199,-0.3049,-0.2816,-0.3632,-0.3984,-0.4105,-0.4622,-0.5015,-0.5412,-0.5531,-0.5564,-0.5572,-0.5638,-0.5698,-0.5741,-0.5741,-0.6097,-0.6454,-0.6454,-0.6815,-0.6994,-0.6544,-0.6454,-0.6276,-0.5831,-0.5741,-0.576,-0.582,-0.5883,-0.5924,-0.5924,-0.5927,-0.5907,-0.5848,-0.5695,-0.5657,-0.5657,-0.5204,-0.4574,-0.3678,-0.3588,-0.3411,-0.2964,-0.2874,-0.2874,-0.2874,-0.2874,-0.2874,-0.2874,-0.2874,-0.2874,-0.2874,-0.2425,-0.2245,-0.2156,-0.1616,-0.1167,-0.5114,-0.4444,-0.3699,-0.3472,-0.3115,-0.2721,-0.2294,-0.2055,-0.1736,-0.1239,-0.0913,-0.0644,-0.0286,0.0072,0.0146,0.0,0.0148,0.0149,0.0,0.0,0.0,0.0,0.0,0.0,0.0,0.0,-0.0075,-0.0381,-0.0768,-0.1163,-0.1413,-0.165,-0.1964,-0.2278,-0.1886,-0.1728,-0.1886,-0.1499,-0.1114,-0.0805,-0.0243,-0.0244,-0.081,-0.0484,-0.0724,-0.1449,-0.1771,-0.2025,-0.2375,-0.2722,-0.2986,-0.3083,-0.3355,-0.3532,-0.3532,-0.3701,-0.3627,-0.3638,-0.421,-0.4637,-0.4994,-0.5414,-0.5906,-0.624,-0.6334,-0.6135,-0.6007,-0.6423,-0.6314,-0.6097,-0.5831,-0.6097,-0.6544,-0.6544,-0.6815,-0.7173,-0.6994,-0.6905,-0.6905,-0.6637,-0.6368,-0.6195,-0.6218,-0.6007,-0.5867,-0.5867,-0.5899,-0.5913,-0.5891,-0.5834,-0.5798,-0.5798,-0.5044,-0.4397,-0.4038,-0.35,-0.3053,-0.2874,-0.2874,-0.2874,-0.2874,-0.3142,-0.3231,-0.2874,-0.3142,-0.3231,-0.2874,-0.2694,-0.2515,-0.2156,-0.1975,-0.1616,-0.4801,-0.4204,-0.3525,-0.3009,-0.2508,-0.2112,-0.1755,-0.1518,-0.1195,-0.0832,-0.0563,-0.0358,-0.0072,0.0073,0.0146,0.0,0.0074,0.015,0.0,0.0,0.0,0.0,0.0,0.0,0.0,0.0,-0.0149,-0.0605,-0.1068,-0.139,-0.1727,-0.2121,-0.2278,-0.2121,-0.1964,-0.1886,-0.1886,-0.1728,-0.1735,-0.1829,-0.0962,-0.0804,-0.1286,-0.0965,-0.1286,-0.2089,-0.2243,-0.2654,-0.3171,-0.3186,-0.3288,-0.3562,-0.3852,-0.412,-0.4204,-0.4372,-0.4456,-0.4539,-0.513,-0.5466,-0.572,-0.6137,-0.6476,-0.6738,-0.6785,-0.6613,-0.6525,-0.6835,-0.683,-0.6633,-0.6279,-0.6544,-0.6902,-0.6902,-0.7263,-0.762,-0.7442,-0.7442,-0.7352,-0.7263,-0.6812,-0.6544,-0.6723,-0.6242,-0.5831,-0.6013,-0.5958,-0.5894,-0.5894,-0.5842,-0.5804,-0.5804,-0.5136,-0.4666,-0.4576,-0.3949,-0.3502,-0.3323,-0.3323,-0.3233,-0.3143,-0.3411,-0.3411,-0.3143,-0.3321,-0.3231,-0.2874,-0.2874,-0.2694,-0.2425,-0.2425,-0.2156,-0.4173,-0.3909,-0.3437,-0.2482,-0.2223,-0.1886,-0.0741,-0.0486,-0.0428,-0.007,0.0,0.0,0.0,0.0292,0.0438,0.0073,0.0298,0.0454,0.0076,0.0,0.0,0.0,0.0,0.0,0.0,0.0,-0.0147,-0.0604,-0.106,-0.1301,-0.1334,-0.165,-0.1728,-0.1336,-0.1728,-0.1886,-0.1886,-0.2278,-0.2671,-0.306,-0.2199,-0.167,-0.1301,-0.1301,-0.1789,-0.26,-0.3051,-0.3779,-0.4626,-0.4498,-0.4214,-0.3894,-0.4019,-0.4288,-0.4794,-0.5216,-0.5382,-0.5547,-0.6389,-0.6476,-0.6137,-0.656,-0.6727,-0.6727,-0.6727,-0.6829,-0.6945,-0.6949,-0.7058,-0.7173,-0.7173,-0.7531,-0.7885,-0.7885,-0.8246,-0.8518,-0.7978,-0.7885,-0.7799,-0.7263,-0.6812,-0.6633,-0.7084,-0.6422,-0.601,-0.6465,-0.6101,-0.5831,-0.5831,-0.5777,-0.5741,-0.5741,-0.5741,-0.547,-0.5022,-0.5022,-0.4753,-0.4307,-0.4307,-0.4128,-0.3588,-0.3588,-0.3588,-0.3588,-0.3143,-0.2874,-0.2874,-0.2874,-0.2874,-0.2874,-0.2874,-0.2694,-0.4109,-0.3558,-0.2808,-0.2342,-0.1831,-0.1298,-0.0615,-0.0486,-0.0353,0.0284,0.0214,0.0072,0.036,0.029,0.0146,0.0,0.0074,0.015,0.0,0.0,-0.0078,-0.0388,-0.0153,-0.0076,-0.0374,-0.0442,-0.0441,-0.0598,-0.1281,-0.1678,-0.1628,-0.2112,-0.2278,-0.2121,-0.2278,-0.2357,-0.2357,-0.2748,-0.2983,-0.3139,-0.314,-0.3152,-0.3016,-0.246,-0.2778,-0.3888,-0.3952,-0.4349,-0.4918,-0.4862,-0.4862,-0.4881,-0.4896,-0.5013,-0.5216,-0.5717,-0.5885,-0.5969,-0.6476,-0.6811,-0.7059,-0.7143,-0.7394,-0.7657,-0.7719,-0.7555,-0.7483,-0.7887,-0.7895,-0.7799,-0.8071,-0.8514,-0.8692,-0.8067,-0.8246,-0.8518,-0.8429,-0.8429,-0.8339,-0.825,-0.7799,-0.7527,-0.771,-0.719,-0.6848,-0.6938,-0.6848,-0.6668,-0.6305,-0.5932,-0.5741,-0.5741,-0.538,-0.5112,-0.5022,-0.4664,-0.4487,-0.4307,-0.4576,-0.4395,-0.3588,-0.3949,-0.3769,-0.3143,-0.3321,-0.3231,-0.2874,-0.2874,-0.2874,-0.2874,-0.2874,-0.2784,-0.3532,-0.2978,-0.229,-0.1874,-0.1287,-0.0752,-0.0207,-0.007,0.0,0.0287,0.0287,0.0287,0.036,0.0145,0.0,0.0,0.0,0.0,0.0,-0.0152,-0.0306,-0.0383,-0.0455,-0.0525,-0.0596,-0.0735,-0.088,-0.104,-0.1647,-0.2121,-0.2312,-0.2706,-0.2876,-0.2748,-0.2892,-0.2892,-0.2749,-0.3297,-0.3611,-0.3611,-0.3905,-0.4142,-0.4238,-0.3394,-0.3569,-0.4457,-0.4596,-0.4808,-0.5025,-0.5087,-0.5155,-0.5226,-0.5275,-0.5399,-0.5683,-0.6128,-0.6472,-0.664,-0.7143,-0.7478,-0.7646,-0.7646,-0.7921,-0.8125,-0.8183,-0.8117,-0.8054,-0.8368,-0.8357,-0.8246,-0.8518,-0.8786,-0.8964,-0.8514,-0.8692,-0.8875,-0.8875,-0.8697,-0.8607,-0.8607,-0.8246,-0.7978,-0.8157,-0.762,-0.7263,-0.7442,-0.7173,-0.6812,-0.6544,-0.6007,-0.5741,-0.5741,-0.547,-0.5291,-0.5291,-0.5025,-0.4845,-0.4845,-0.5112,-0.4933,-0.4216,-0.4218,-0.4038,-0.3502,-0.3411,-0.3142,-0.2874,-0.2874,-0.2874,-0.2874,-0.2874,-0.2874,-0.2689,-0.2275,-0.1914,-0.1205,-0.0741,-0.0272,0.0418,0.0562,0.0495,0.0218,0.0434,0.0576,0.0146,0.0073,0.0073,0.0,0.0,0.0,-0.0074,-0.0375,-0.0454,-0.0227,-0.0749,-0.104,-0.0744,-0.103,-0.1392,-0.1853,-0.2228,-0.2627,-0.3149,-0.3425,-0.344,-0.3127,-0.3483,-0.3481,-0.3128,-0.399,-0.4383,-0.4461,-0.4488,-0.4725,-0.5092,-0.42,-0.4088,-0.4533,-0.4966,-0.5071,-0.5025,-0.5079,-0.5109,-0.5131,-0.5243,-0.5539,-0.5967,-0.6449,-0.6979,-0.7394,-0.7897,-0.8068,-0.8076,-0.8076,-0.8138,-0.8211,-0.8219,-0.8338,-0.8473,-0.8481,-0.8546,-0.8607,-0.8607,-0.8607,-0.8786,-0.9232,-0.9322,-0.9232,-0.9232,-0.8875,-0.8607,-0.8607,-0.8246,-0.8067,-0.8518,-0.7892,-0.7442,-0.7889,-0.717,-0.6544,-0.6633,-0.6097,-0.5741,-0.5741,-0.5741,-0.5741,-0.5741,-0.5741,-0.5741,-0.5741,-0.5741,-0.547,-0.5112,-0.4576,-0.4307,-0.4307,-0.3412,-0.2964,-0.2964,-0.2964,-0.2874,-0.2874,-0.2874,-0.2874,-0.2241,-0.1904,-0.1495,-0.0792,-0.0337,-0.0069,0.007,0.0354,0.0787,0.1308,0.1237,0.1018,0.0948,0.0657,0.0365,0.0073,0.0,-0.0074,-0.0446,-0.0522,-0.0824,-0.1361,-0.1273,-0.1263,-0.1486,-0.1616,-0.1825,-0.2196,-0.2587,-0.3055,-0.3371,-0.3545,-0.3565,-0.3507,-0.3575,-0.3575,-0.3509,-0.3966,-0.4426,-0.4731,-0.5021,-0.5428,-0.5803,-0.4735,-0.4537,-0.49,-0.4968,-0.5033,-0.5022,-0.5036,-0.5098,-0.5185,-0.5213,-0.5363,-0.5616,-0.6047,-0.6472,-0.6895,-0.7394,-0.7857,-0.817,-0.817,-0.8232,-0.8317,-0.8391,-0.844,-0.8485,-0.8558,-0.8595,-0.8607,-0.8607,-0.8875,-0.9228,-0.9763,-0.9322,-0.8786,-0.8786,-0.8697,-0.8607,-0.8607,-0.8518,-0.8518,-0.8607,-0.8429,-0.8339,-0.8429,-0.762,-0.7173,-0.7527,-0.6458,-0.5831,-0.6276,-0.592,-0.5741,-0.5741,-0.5741,-0.5741,-0.5741,-0.5741,-0.5652,-0.5562,-0.5112,-0.4664,-0.4307,-0.3769,-0.3411,-0.3411,-0.3053,-0.2874,-0.2874,-0.2874,-0.2874,-0.1908,-0.1506,-0.1091,-0.0459,0.0,0.0278,0.0278,0.0567,0.1011,0.1445,0.1162,0.0876,0.0657,0.0438,0.0219,0.0,0.0,-0.0146,-0.0515,-0.0737,-0.1034,-0.1487,-0.1626,-0.1767,-0.1767,-0.1976,-0.2114,-0.226,-0.2861,-0.3324,-0.3567,-0.3939,-0.4111,-0.4162,-0.4139,-0.4139,-0.4162,-0.454,-0.4842,-0.5071,-0.5525,-0.5846,-0.6038,-0.5337,-0.4992,-0.5022,-0.5257,-0.5179,-0.5022,-0.5257,-0.5235,-0.5161,-0.5191,-0.5259,-0.5427,-0.5873,-0.6389,-0.6727,-0.7227,-0.7757,-0.8142,-0.8183,-0.826,-0.835,-0.8444,-0.8501,-0.8546,-0.8595,-0.8607,-0.8607,-0.8875,-0.8964,-0.9143,-0.9852,-0.9585,-0.9322,-0.9585,-0.9232,-0.8964,-0.8964,-0.8786,-0.8607,-0.8607,-0.8607,-0.8607,-0.8607,-0.7803,-0.7263,-0.7531,-0.6723,-0.6097,-0.6097,-0.6097,-0.601,-0.5741,-0.5741,-0.5741,-0.5741,-0.5741,-0.5741,-0.5741,-0.547,-0.5112,-0.4664,-0.3947,-0.3588,-0.3588,-0.3143,-0.2874,-0.2874,-0.2874,-0.2874,-0.1647,-0.112,-0.07,-0.0197,0.0272,0.0558,0.0482,0.078,0.109,0.1005,0.0868,0.0584,0.0146,0.0073,0.0073,0.0,0.0,-0.0146,-0.0657,-0.1022,-0.1241,-0.1386,-0.1896,-0.2187,-0.1895,-0.2187,-0.2405,-0.2478,-0.3209,-0.3663,-0.3777,-0.4399,-0.4785,-0.4887,-0.4914,-0.4912,-0.489,-0.5187,-0.5337,-0.5337,-0.5801,-0.5961,-0.5964,-0.5868,-0.5543,-0.524,-0.5645,-0.557,-0.5179,-0.5573,-0.5461,-0.5134,-0.5183,-0.5327,-0.5479,-0.5948,-0.6389,-0.6895,-0.7227,-0.7737,-0.8101,-0.8191,-0.8285,-0.8375,-0.8468,-0.8635,-0.8875,-0.8875,-0.8964,-0.9143,-0.9317,-0.9232,-0.9143,-0.9852,-1.003,-1.0209,-1.0476,-0.9941,-0.9406,-0.9406,-0.9054,-0.8697,-0.8607,-0.8607,-0.8607,-0.8607,-0.7803,-0.7263,-0.7352,-0.6723,-0.6276,-0.601,-0.6186,-0.6186,-0.5831,-0.5741,-0.5741,-0.5741,-0.5741,-0.5741,-0.5741,-0.5741,-0.5562,-0.5112,-0.4305,-0.3857,-0.3857,-0.3321,-0.3053,-0.3053,-0.3053,-0.3053,-0.1181,-0.0551,-0.0191,-0.0399,0.0068,0.0482,0.0138,0.0426,0.0582,0.0215,0.0651,0.1022,0.0584,0.0511,0.0438,0.0073,0.0,-0.0292,-0.1022,-0.1168,-0.146,-0.2041,-0.226,-0.226,-0.226,-0.2624,-0.299,-0.3281,-0.3791,-0.4155,-0.453,-0.4889,-0.511,-0.5128,-0.5484,-0.5484,-0.5131,-0.5201,-0.5201,-0.5201,-0.5776,-0.5954,-0.5884,-0.5971,-0.6045,-0.5955,-0.6169,-0.5962,-0.5573,-0.5651,-0.5487,-0.5191,-0.5199,-0.5516,-0.6041,-0.605,-0.664,-0.7311,-0.7394,-0.778,-0.8195,-0.8285,-0.8379,-0.8473,-0.8562,-0.913,-0.9852,-0.9852,-1.0387,-1.0832,-1.0119,-1.0119,-1.0387,-1.003,-1.0298,-1.0476,-1.0209,-1.003,-0.9941,-0.9941,-0.9496,-0.9054,-0.8697,-0.8607,-0.8607,-0.8607,-0.7803,-0.7352,-0.7799,-0.6633,-0.6099,-0.6905,-0.6279,-0.601,-0.6365,-0.601,-0.5741,-0.5741,-0.5741,-0.5741,-0.5741,-0.5741,-0.5652,-0.5652,-0.5112,-0.4843,-0.4843,-0.3947,-0.3499,-0.3499,-0.3499,-0.3499,-0.1127,-0.0549,-0.0251,-0.0194,0.0199,0.0408,-0.0204,0.014,0.0432,-0.0215,-0.0072,0.0146,-0.0073,-0.0292,-0.0438,-0.0657,-0.0657,-0.0876,-0.1459,-0.1532,-0.1822,-0.2551,-0.2624,-0.2698,-0.2917,-0.3136,-0.3281,-0.35,-0.3862,-0.4153,-0.4371,-0.4883,-0.5177,-0.5177,-0.561,-0.568,-0.5538,-0.5756,-0.5977,-0.6192,-0.6447,-0.6535,-0.6539,-0.6626,-0.6434,-0.6092,-0.6431,-0.6393,-0.604,-0.604,-0.5944,-0.5799,-0.535,-0.5666,-0.6334,-0.6205,-0.664,-0.7394,-0.7394,-0.7841,-0.848,-0.8313,-0.8835,-0.9541,-0.9383,-0.9983,-1.0743,-1.0743,-1.1099,-1.1366,-1.1277,-1.1188,-1.1188,-1.1543,-1.1543,-1.1366,-1.0921,-1.0387,-0.9852,-0.9322,-0.9054,-0.8875,-0.8607,-0.8607,-0.8518,-0.8246,-0.762,-0.7173,-0.7081,-0.6544,-0.6186,-0.6368,-0.6279,-0.6097,-0.6097,-0.5831,-0.5741,-0.5741,-0.5741,-0.5741,-0.5741,-0.5741,-0.5741,-0.5741,-0.5201,-0.5022,-0.5022,-0.4305,-0.3949,-0.4038,-0.4305,-0.4395,-0.1309,-0.0789,-0.037,-0.0251,0.013,0.0334,-0.0336,0.0,0.0285,-0.0429,-0.0651,-0.0803,-0.0875,-0.1095,-0.1168,-0.1168,-0.1168,-0.1313,-0.175,-0.1895,-0.2187,-0.2844,-0.299,-0.3136,-0.35,-0.3573,-0.3646,-0.3646,-0.4007,-0.4299,-0.4371,-0.5029,-0.5392,-0.5468,-0.5901,-0.6043,-0.5974,-0.6119,-0.6337,-0.6555,-0.6627,-0.67,-0.67,-0.684,-0.6806,-0.6644,-0.6838,-0.6733,-0.6403,-0.6424,-0.6398,-0.6314,-0.5724,-0.6041,-0.6783,-0.6756,-0.7208,-0.798,-0.8148,-0.865,-0.9175,-0.896,-0.965,-1.0513,-1.0307,-1.0942,-1.181,-1.181,-1.1988,-1.2165,-1.2343,-1.2165,-1.2077,-1.2609,-1.252,-1.2254,-1.1632,-1.0743,-0.9763,-0.8964,-0.8786,-0.8697,-0.8607,-0.8607,-0.8429,-0.7978,-0.7531,-0.6994,-0.6544,-0.6365,-0.6186,-0.5918,-0.6097,-0.6186,-0.5918,-0.5741,-0.5741,-0.5741,-0.5741,-0.5741,-0.5741,-0.5741,-0.5741,-0.5741,-0.538,-0.5201,-0.5201,-0.4664,-0.4576,-0.4666,-0.5022,-0.5291,-0.1762,-0.1134,-0.0487,-0.0878,-0.0383,0.013,0.0,0.0069,0.0,-0.05,-0.0868,-0.1313,-0.1677,-0.1459,-0.1168,-0.1168,-0.1168,-0.1313,-0.175,-0.2041,-0.2405,-0.2844,-0.3209,-0.35,-0.35,-0.3862,-0.408,-0.408,-0.4444,-0.481,-0.5104,-0.5538,-0.5974,-0.6341,-0.67,-0.6773,-0.6341,-0.6047,-0.5683,-0.5323,-0.5683,-0.5825,-0.5901,-0.6268,-0.7047,-0.8178,-0.7616,-0.7164,-0.6792,-0.687,-0.6713,-0.6387,-0.639,-0.6725,-0.7353,-0.8176,-0.8815,-0.9402,-1.0237,-1.057,-1.0608,-1.0833,-1.0999,-1.1134,-1.1285,-1.1982,-1.2787,-1.2787,-1.3502,-1.3945,-1.3053,-1.3141,-1.3236,-1.2432,-1.252,-1.2609,-1.1721,-1.0743,-0.9852,-0.9317,-0.9232,-0.9143,-0.8697,-0.8607,-0.8429,-0.7978,-0.7531,-0.6994,-0.6544,-0.6097,-0.5918,-0.6365,-0.6007,-0.5918,-0.6454,-0.6007,-0.5741,-0.5741,-0.5741,-0.5741,-0.5741,-0.5741,-0.5741,-0.5741,-0.5652,-0.5652,-0.5652,-0.5201,-0.5201,-0.5652,-0.5652,-0.5918,-0.156,-0.1107,-0.0767,-0.0913,-0.0434,-0.0126,-0.0846,-0.0472,-0.0139,-0.0775,-0.1078,-0.1241,-0.1386,-0.1678,-0.1896,-0.1896,-0.2115,-0.2334,-0.2478,-0.2844,-0.3281,-0.401,-0.4155,-0.4374,-0.4595,-0.4956,-0.5153,-0.5036,-0.5292,-0.5515,-0.5832,-0.6094,-0.6264,-0.6413,-0.6773,-0.6918,-0.6773,-0.6914,-0.6914,-0.6769,-0.7135,-0.728,-0.728,-0.7425,-0.7879,-0.8577,-0.8429,-0.8191,-0.7855,-0.7654,-0.7333,-0.7106,-0.7156,-0.7729,-0.8499,-0.9134,-0.972,-1.032,-1.057,-1.0904,-1.1081,-1.0919,-1.1509,-1.2289,-1.2125,-1.2848,-1.3731,-1.3742,-1.4033,-1.421,-1.3856,-1.3945,-1.3945,-1.3591,-1.323,-1.2787,-1.2432,-1.1632,-1.0654,-0.9941,-0.9763,-0.9496,-0.8697,-0.8607,-0.8429,-0.7978,-0.7974,-0.7885,-0.7438,-0.7527,-0.7617,-0.7792,-0.717,-0.6726,-0.6905,-0.6189,-0.5741,-0.5741,-0.5741,-0.5741,-0.5741,-0.5741,-0.5741,-0.5741,-0.6007,-0.6007,-0.5741,-0.5918,-0.6007,-0.6186,-0.6812,-0.717,-0.1407,-0.1193,-0.1033,-0.1061,-0.0724,-0.0617,-0.1075,-0.0718,-0.0538,-0.1164,-0.1264,-0.1288,-0.1646,-0.2169,-0.2478,-0.2478,-0.2698,-0.2917,-0.3063,-0.3573,-0.4083,-0.4665,-0.4956,-0.5174,-0.5392,-0.561,-0.5732,-0.5682,-0.5726,-0.5949,-0.6259,-0.6383,-0.6486,-0.6631,-0.6845,-0.699,-0.699,-0.7421,-0.7566,-0.7421,-0.786,-0.8005,-0.7933,-0.8222,-0.8584,-0.909,-0.9316,-0.926,-0.8868,-0.8674,-0.8442,-0.831,-0.8373,-0.888,-0.9577,-1.0221,-1.076,-1.1237,-1.1486,-1.1819,-1.1992,-1.179,-1.2365,-1.316,-1.3086,-1.3521,-1.4027,-1.4183,-1.4183,-1.4143,-1.4143,-1.4183,-1.4224,-1.4224,-1.3817,-1.3407,-1.3407,-1.2343,-1.1188,-1.0565,-1.0476,-1.0298,-0.9674,-0.9406,-0.9139,-0.8688,-0.8773,-0.8688,-0.8153,-0.8421,-0.8599,-0.8599,-0.8063,-0.771,-0.771,-0.7081,-0.6633,-0.6633,-0.6633,-0.6633,-0.6633,-0.6633,-0.6633,-0.6633,-0.6902,-0.6902,-0.6633,-0.6723,-0.6812,-0.6991,-0.7617,-0.7959,0.0,0.0,0.0,-0.1315,-0.1353,-0.1209,-0.0614,-0.0749,-0.1082,-0.1506,-0.1415,-0.1511,-0.2544,-0.284,-0.2914,-0.2914,-0.2915,-0.3063,-0.35,-0.4228,-0.4738,-0.4738,-0.5392,-0.5825,-0.5825,-0.5825,-0.5825,-0.5822,-0.5825,-0.6047,-0.641,-0.641,-0.6627,-0.6986,-0.699,-0.699,-0.6986,-0.7421,-0.7421,-0.7063,-0.7788,-0.8005,-0.7711,-0.8435,-0.9157,-0.9951,-1.0383,-1.0237,-0.9736,-0.978,-0.9905,-1.0019,-1.0019,-1.0161,-1.0528,-1.1418,-1.1912,-1.2229,-1.3148,-1.3403,-1.3424,-1.3573,-1.362,-1.3675,-1.3973,-1.3953,-1.3865,-1.4021,-1.3953,-1.3844,-1.3844,-1.396,-1.4075,-1.4075,-1.419,-1.4299,-1.4299,-1.2787,-1.1455,-1.1455,-1.1455,-1.1455,-1.1455,-1.101,-1.056,-1.011,-0.9665,-0.9219,-0.8688,-0.8688,-0.8688,-0.8688,-0.8688,-0.8599,-0.8599,-0.8599,-0.8599,-0.8599,-0.8599,-0.8599,-0.8599,-0.8599,-0.8599,-0.8599,-0.8153,-0.8153,-0.8599,-0.771,-0.7442,-0.7974,-0.7974,-0.811,-0.166,0.0,0.0,0.0,0.0,0.0,-0.1344,-0.1149,-0.1065,-0.1419,-0.1527,-0.1698,-0.2468,-0.2746,-0.3152,-0.3902,-0.3886,-0.3935,-0.4301,-0.4738,-0.5247,-0.5829,-0.6119,-0.6264,-0.6264,-0.6482,-0.66,-0.6535,-0.6589,-0.6817,-0.7115,-0.6958,-0.6889,-0.6892,-0.6954,-0.7102,-0.7254,-0.7751,-0.8078,-0.8222,-0.8729,-0.9085,-0.9302,-0.9446,-0.9957,-1.0678,-1.0822,-1.0995,-1.1167,-1.0709,-1.0292,-1.0097,-1.0719,-1.1053,-1.1293,-1.2275,-1.2747,-1.2919,-1.328,-1.3403,-1.341,-1.3451,-1.3464,-1.3498,-1.3695,-1.3722,-1.3715,-1.3865,-1.3871,-1.3865,-1.398,-1.4041,-1.4102,-1.4211,-1.4272,-1.4299,-1.4299,-1.3856,-1.3318,-1.2609,-1.252,-1.2254,-1.1543,-1.1277,-1.101,-1.056,-1.0738,-1.0738,-1.0204,-1.0471,-1.0738,-1.0738,-1.003,-0.9585,-0.9585,-0.8956,-0.8599,-0.8599,-0.8599,-0.8599,-0.8599,-0.8599,-0.8599,-0.8599,-0.8773,-0.8952,-0.913,-0.851,-0.8421,-0.8952,-0.8871,-0.8736,0.0,0.0,0.0,0.0,0.0,0.0,-0.1573,-0.1332,-0.1196,-0.1715,-0.1767,-0.1936,-0.2734,-0.3218,-0.3686,-0.4305,-0.4669,-0.4932,-0.4901,-0.5377,-0.5891,-0.6509,-0.6749,-0.699,-0.7067,-0.7208,-0.7183,-0.7128,-0.703,-0.7038,-0.7204,-0.7069,-0.6909,-0.6927,-0.6872,-0.7069,-0.7579,-0.8031,-0.8586,-0.9159,-0.9568,-0.9951,-1.0167,-1.0317,-1.0606,-1.1044,-1.1188,-1.1484,-1.177,-1.1473,-1.1214,-1.1035,-1.1553,-1.1894,-1.2114,-1.2742,-1.3051,-1.3193,-1.3349,-1.3569,-1.3652,-1.3652,-1.3652,-1.368,-1.3832,-1.3748,-1.3566,-1.3709,-1.3709,-1.3675,-1.377,-1.3885,-1.4,-1.4089,-1.4204,-1.4299,-1.4299,-1.4299,-1.4122,-1.3591,-1.3502,-1.3318,-1.2698,-1.2432,-1.2254,-1.1988,-1.181,-1.1721,-1.1366,-1.1455,-1.1543,-1.1543,-1.101,-1.0654,-1.0654,-1.0115,-0.9847,-0.9847,-0.9847,-0.9847,-0.9847,-0.9847,-0.9847,-0.9847,-0.9847,-0.9847,-0.9847,-0.9402,-0.9313,-0.958,-0.9585,-0.9291,0.0,0.0,0.0,0.0,0.0,0.0,-0.1631,-0.1487,-0.1683,-0.229,-0.2174,-0.2337,-0.3252,-0.3995,-0.4409,-0.4602,-0.5476,-0.5952,-0.5286,-0.603,-0.6709,-0.6931,-0.7415,-0.7833,-0.8078,-0.7847,-0.763,-0.7638,-0.7353,-0.7131,-0.7046,-0.704,-0.6985,-0.6965,-0.6898,-0.7205,-0.7886,-0.8424,-0.9052,-0.9759,-1.0245,-1.0527,-1.0599,-1.0894,-1.1044,-1.1116,-1.1476,-1.1687,-1.1889,-1.2067,-1.2231,-1.2305,-1.2447,-1.2583,-1.2725,-1.2895,-1.3044,-1.3173,-1.3425,-1.3735,-1.4066,-1.4149,-1.4149,-1.4171,-1.4307,-1.3923,-1.3514,-1.3566,-1.3505,-1.3403,-1.3424,-1.3634,-1.3838,-1.3838,-1.4075,-1.4292,-1.4258,-1.4278,-1.4292,-1.4278,-1.4285,-1.4299,-1.4299,-1.3945,-1.3679,-1.3591,-1.2875,-1.2343,-1.2254,-1.1899,-1.1543,-1.1543,-1.1543,-1.1543,-1.1543,-1.1543,-1.1543,-1.1543,-1.1543,-1.1543,-1.1543,-1.1543,-1.1543,-1.1543,-1.101,-1.0832,-1.0832,-1.0387,-1.0119,-1.0119,-1.0119,-0.9852,0.0,0.0,0.0,0.0,0.0,0.0,-0.2672,-0.2762,-0.2941,-0.2961,-0.2858,-0.3107,-0.4249,-0.4355,-0.4657,-0.5694,-0.6151,-0.6349,-0.6095,-0.7082,-0.7683,-0.734,-0.8072,-0.8525,-0.8136,-0.8002,-0.7916,-0.8,-0.7933,-0.7756,-0.7317,-0.7647,-0.7701,-0.7534,-0.7867,-0.8208,-0.8602,-0.9223,-0.9688,-1.0119,-1.0394,-1.0671,-1.0894,-1.0972,-1.1332,-1.1979,-1.1691,-1.1993,-1.2611,-1.2617,-1.2449,-1.2305,-1.2447,-1.2522,-1.2576,-1.2861,-1.3056,-1.3118,-1.372,-1.3983,-1.4149,-1.4473,-1.4555,-1.4555,-1.4585,-1.4336,-1.3908,-1.352,-1.3424,-1.3431,-1.3553,-1.3709,-1.3838,-1.3838,-1.4075,-1.4231,-1.3987,-1.4122,-1.4265,-1.4143,-1.4217,-1.4299,-1.4299,-1.421,-1.4033,-1.3679,-1.3413,-1.323,-1.2787,-1.2343,-1.2077,-1.2077,-1.1721,-1.1543,-1.1543,-1.1543,-1.1543,-1.1543,-1.1543,-1.1543,-1.1543,-1.1543,-1.1543,-1.1543,-1.1366,-1.1366,-1.1366,-1.1277,-1.101,-1.0565,-1.0565,-1.0298,0.0,0.0,0.0,-0.3221,0.0,0.0,0.0,-0.339,-0.371,-0.3682,-0.3871,-0.429,-0.4861,-0.5524,-0.6048,-0.6404,-0.7189,-0.7662,-0.7339,-0.7692,-0.7927,-0.7822,-0.8549,-0.8948,-0.8627,-0.8616,-0.8454,-0.8064,-0.8049,-0.7963,-0.7718,-0.7922,-0.7945,-0.7836,-0.8387,-0.8745,-0.9041,-0.991,-1.0428,-1.0722,-1.0934,-1.1253,-1.1619,-1.1619,-1.1907,-1.2474,-1.2259,-1.2402,-1.2783,-1.2897,-1.2856,-1.2724,-1.2797,-1.2811,-1.2852,-1.3158,-1.3196,-1.3164,-1.4034,-1.439,-1.4473,-1.4886,-1.5051,-1.5051,-1.5051,-1.4638,-1.3983,-1.3569,-1.3403,-1.3417,-1.3498,-1.3789,-1.4089,-1.4166,-1.4478,-1.4684,-1.4416,-1.4479,-1.4426,-1.4176,-1.4136,-1.4211,-1.4285,-1.4299,-1.421,-1.3945,-1.3768,-1.3502,-1.3325,-1.2875,-1.252,-1.252,-1.2165,-1.181,-1.181,-1.1632,-1.1543,-1.1543,-1.1543,-1.1543,-1.1543,-1.1543,-1.1632,-1.181,-1.1632,-1.1632,-1.181,-1.1632,-1.1366,-1.1099,-1.1099,-1.0832,0.0,0.0,0.0,0.0,0.0,-0.4274,0.0,0.0,0.0,-0.4485,-0.4961,-0.5442,-0.5665,-0.6707,-0.7486,-0.726,-0.8301,-0.9051,-0.8704,-0.8505,-0.8448,-0.851,-0.909,-0.9514,-0.9486,-0.9492,-0.9204,-0.8278,-0.8368,-0.8368,-0.8188,-0.8152,-0.8167,-0.8147,-0.8842,-0.9297,-0.9381,-1.0468,-1.1028,-1.1165,-1.147,-1.1763,-1.2122,-1.2122,-1.2402,-1.2824,-1.2824,-1.2824,-1.2926,-1.3118,-1.3252,-1.3282,-1.3151,-1.312,-1.3162,-1.3396,-1.3276,-1.3164,-1.4273,-1.4713,-1.4796,-1.5298,-1.5546,-1.5463,-1.5298,-1.4826,-1.4102,-1.3576,-1.3424,-1.3437,-1.341,-1.3839,-1.4315,-1.4507,-1.4771,-1.5052,-1.4952,-1.4792,-1.4576,-1.4167,-1.418,-1.4162,-1.4231,-1.4258,-1.4265,-1.4292,-1.3945,-1.3768,-1.3768,-1.3325,-1.3053,-1.3053,-1.2609,-1.2343,-1.2343,-1.1988,-1.1721,-1.1632,-1.1632,-1.1632,-1.1632,-1.1721,-1.1988,-1.2343,-1.1899,-1.181,-1.2165,-1.1721,-1.1543,-1.1543,-1.1543,-1.1277,0.0,0.0,0.0,0.0,-0.6093,0.0,0.0,0.0,-0.5739,-0.5639,0.0,-0.6241,0.0,0.0,0.0,-0.8879,-0.9265,-0.9496,-0.991,-1.0157,-1.0141,-0.9825,-1.0225,-1.0608,-1.0797,-1.0505,-1.0021,-0.9137,-0.9365,-0.9313,-0.8918,-0.8851,-0.8783,-0.8676,-0.9521,-0.9922,-0.9715,-1.0822,-1.1314,-1.1165,-1.147,-1.1619,-1.1691,-1.2051,-1.2402,-1.2824,-1.2824,-1.2968,-1.3205,-1.3192,-1.3475,-1.3796,-1.3304,-1.312,-1.3085,-1.3086,-1.3043,-1.3164,-1.4273,-1.4713,-1.4878,-1.5628,-1.5966,-1.5793,-1.5043,-1.4817,-1.4572,-1.3687,-1.3498,-1.3573,-1.3437,-1.3839,-1.4266,-1.4145,-1.4436,-1.4722,-1.4747,-1.4735,-1.4599,-1.4316,-1.4373,-1.4349,-1.4162,-1.4095,-1.4143,-1.4278,-1.421,-1.421,-1.421,-1.3768,-1.3502,-1.3502,-1.3141,-1.2787,-1.2787,-1.2787,-1.252,-1.2165,-1.2077,-1.2077,-1.2077,-1.252,-1.2787,-1.2787,-1.2343,-1.2165,-1.2165,-1.1721,-1.1543,-1.1543,-1.1543,-1.1455,0.0,0.0,0.0,0.0,0.0,0.0,-0.6995,0.0,-0.6653,0.0,0.0,0.0,0.0,0.0,0.0,0.0,-1.0233,0.0,0.0,0.0,-1.111,0.0,0.0,-1.1073,-1.1173,-1.0991,-1.0733,-1.0465,-1.067,-1.0545,-0.9902,-0.9758,-0.9434,-0.8976,-1.0214,-1.0702,-1.0367,-1.1621,-1.2009,-1.165,-1.1589,-1.1691,-1.1979,-1.233,-1.276,-1.3111,-1.3325,-1.3396,-1.3284,-1.3486,-1.3698,-1.387,-1.3534,-1.3428,-1.3457,-1.3533,-1.3511,-1.3545,-1.4904,-1.5213,-1.5216,-1.5793,-1.5883,-1.5546,-1.5216,-1.4832,-1.4426,-1.3943,-1.3679,-1.3593,-1.3444,-1.3777,-1.4187,-1.4393,-1.4585,-1.4942,-1.5186,-1.5138,-1.4851,-1.4543,-1.4408,-1.4245,-1.3889,-1.3885,-1.3987,-1.4143,-1.4089,-1.4068,-1.4156,-1.3914,-1.3687,-1.3687,-1.341,-1.3198,-1.3198,-1.3009,-1.2787,-1.2609,-1.2609,-1.2609,-1.2609,-1.2787,-1.3053,-1.3318,-1.2875,-1.2609,-1.2609,-1.2165,-1.181,-1.1543,-1.1543,-1.1543,-0.9048,0.0,0.0,0.0,0.0,0.0,0.0,0.0,0.0,0.0,0.0,0.0,0.0,0.0,0.0,0.0,0.0,0.0,0.0,0.0,0.0,0.0,0.0,0.0,0.0,-1.1743,-1.1838,-1.1751,-1.183,-1.1624,-1.0963,-1.0478,-0.9912,-0.9393,-1.048,-1.101,-1.0767,-1.1867,-1.2322,-1.203,-1.1759,-1.1763,-1.2051,-1.2474,-1.2824,-1.3182,-1.3539,-1.3539,-1.3348,-1.3652,-1.38,-1.387,-1.371,-1.3776,-1.3913,-1.4001,-1.3929,-1.3931,-1.515,-1.5567,-1.5628,-1.5883,-1.5793,-1.5546,-1.5463,-1.5112,-1.466,-1.4256,-1.4077,-1.3992,-1.3749,-1.4012,-1.4546,-1.4832,-1.5009,-1.53,-1.5843,-1.5643,-1.529,-1.482,-1.459,-1.423,-1.365,-1.3688,-1.3831,-1.3987,-1.3912,-1.3878,-1.3994,-1.3912,-1.3838,-1.3838,-1.3594,-1.35,-1.3633,-1.338,-1.3192,-1.3141,-1.3053,-1.3053,-1.3053,-1.323,-1.3413,-1.3768,-1.3281,-1.2997,-1.2997,-1.2519,-1.2061,-1.1539,-1.1516,-1.1543,-0.96,-1.0038,-1.0552,-1.0909,-1.0415,0.0,0.0,0.0,-0.8726,0.0,0.0,0.0,0.0,0.0,0.0,0.0,0.0,0.0,0.0,0.0,0.0,0.0,0.0,0.0,0.0,-1.3144,-1.3481,0.0,-1.2726,-1.2412,-1.2078,-1.089,-1.011,-1.0,-1.0197,-1.0409,-1.0618,-1.1257,-1.1759,-1.203,-1.1759,-1.1619,-1.1619,-1.2051,-1.2402,-1.2824,-1.3182,-1.3325,-1.334,-1.352,-1.3691,-1.3854,-1.3582,-1.3831,-1.4384,-1.4087,-1.4094,-1.4251,-1.4908,-1.5494,-1.5966,-1.5966,-1.5966,-1.5883,-1.5546,-1.5615,-1.5593,-1.4583,-1.474,-1.4998,-1.4407,-1.484,-1.5428,-1.5615,-1.577,-1.5972,-1.6507,-1.6244,-1.567,-1.5088,-1.484,-1.439,-1.3576,-1.3532,-1.3682,-1.3824,-1.3759,-1.3844,-1.3844,-1.3759,-1.3838,-1.3838,-1.3759,-1.3912,-1.4061,-1.4075,-1.388,-1.3578,-1.3591,-1.3591,-1.3591,-1.4033,-1.4299,-1.4299,-1.3712,-1.3378,-1.3378,-1.2724,-1.2146,-1.1807,-1.161,-1.1543,-1.2135,-1.2323,-1.2422,-1.2091,-1.1745,-1.1326,0.0,0.0,0.0,0.0,0.0,0.0,0.0,0.0,0.0,0.0,0.0,0.0,0.0,0.0,0.0,0.0,0.0,0.0,0.0,0.0,0.0,0.0,-1.3697,0.0,-1.2554,-1.2032,-1.1192,-0.9975,-1.0987,-1.1303,-1.0883,-1.1534,-1.1917,-1.2116,-1.1736,-1.1619,-1.1619,-1.2259,-1.2681,-1.2824,-1.3468,-1.3682,-1.3698,-1.3665,-1.3838,-1.4226,-1.3958,-1.4281,-1.4761,-1.447,-1.4482,-1.4754,-1.5446,-1.5835,-1.5966,-1.5966,-1.5801,-1.5628,-1.5793,-1.5622,-1.5438,-1.5271,-1.5178,-1.512,-1.4975,-1.4929,-1.5067,-1.5453,-1.5506,-1.5615,-1.6357,-1.6137,-1.5872,-1.5647,-1.5325,-1.4968,-1.4383,-1.4109,-1.3867,-1.3675,-1.3614,-1.3587,-1.3688,-1.3614,-1.3553,-1.3553,-1.3641,-1.3763,-1.3905,-1.4109,-1.4156,-1.4027,-1.4033,-1.4033,-1.4033,-1.421,-1.4299,-1.4299,-1.4068,-1.3819,-1.3371,-1.3153,-1.2737,-1.2226,-1.2137,-1.183,-1.3672,-1.3635,-1.3479,-1.293,-1.2663,-1.2481,-1.2183,-1.2183,-1.2231,0.0,0.0,0.0,0.0,0.0,0.0,0.0,0.0,0.0,0.0,0.0,0.0,0.0,0.0,0.0,0.0,0.0,0.0,0.0,0.0,0.0,0.0,-1.259,-1.1741,-1.046,-1.1205,-1.1375,-1.101,-1.1523,-1.1868,-1.2109,-1.1736,-1.1691,-1.1835,-1.2474,-1.2968,-1.3253,-1.3833,-1.4118,-1.4135,-1.4027,-1.4278,-1.4671,-1.456,-1.489,-1.5377,-1.4937,-1.4995,-1.5321,-1.5861,-1.5966,-1.5966,-1.5966,-1.5801,-1.5628,-1.5883,-1.5834,-1.5624,-1.5747,-1.5686,-1.5578,-1.5615,-1.5348,-1.5256,-1.5855,-1.5855,-1.591,-1.6506,-1.6396,-1.6065,-1.5895,-1.5615,-1.5216,-1.4555,-1.439,-1.4178,-1.3867,-1.3548,-1.3437,-1.3539,-1.3464,-1.3403,-1.3403,-1.3492,-1.3627,-1.3738,-1.4075,-1.4245,-1.4299,-1.4299,-1.4299,-1.4299,-1.4299,-1.4299,-1.4299,-1.4245,-1.3968,-1.3554,-1.3501,-1.3152,-1.2501,-1.2501,-1.2162]},{"header":{"parameterUnit":"m.s-1","parameterCategory":1,"la1":30.6,"la2":29.2853,"lo1":-89.7004,"lo2":-87.6739,"dx":0.0162,"dy":0.0183,"nx":112,"ny":82,"refTime":"2022-11-24T18:00:00:Z","depth":0,"parameterNumber":3,"parameterNumberName":"V-component_of_WINDS"},"data":[0.0,0.0,0.0,0.0,0.0,0.0,0.0,0.0,0.0,0.0,0.0,0.0,0.0,0.0,0.0,0.0,0.0,0.0,0.0,0.0,0.0,0.0,0.0,0.0,0.0,0.0,0.0,0.0,0.0,0.0,0.0,0.0,0.0,0.0,0.0,0.0,0.0,0.0,0.0,0.0,0.0,0.0,0.0,0.0,0.0,0.0,0.0,0.0,0.0,0.0,0.0,0.0,0.0,0.0,0.0,0.0,0.0,0.0,0.0,0.0,0.0,0.0,0.0,0.0,0.0,0.0,0.0,0.0,0.0,0.0,0.0,0.0,0.0,0.0,0.0,0.0,0.0,0.0,0.0,0.0,0.0,0.0,0.0,0.0,0.0,0.0,0.0,0.0,0.0,0.0,4.0437,4.0818,4.2376,4.3774,4.4756,4.5063,4.4942,4.4308,0.0,0.0,0.0,0.0,0.0,0.0,0.0,0.0,0.0,0.0,0.0,0.0,0.0,0.0,0.0,0.0,0.0,0.0,0.0,0.0,0.0,0.0,0.0,0.0,0.0,0.0,0.0,0.0,0.0,0.0,0.0,0.0,0.0,0.0,0.0,0.0,0.0,0.0,0.0,0.0,0.0,0.0,0.0,0.0,0.0,0.0,0.0,0.0,0.0,0.0,0.0,0.0,0.0,0.0,0.0,0.0,0.0,0.0,0.0,0.0,0.0,0.0,0.0,0.0,0.0,0.0,0.0,0.0,0.0,0.0,0.0,0.0,0.0,0.0,0.0,0.0,0.0,0.0,0.0,0.0,0.0,0.0,0.0,0.0,0.0,0.0,0.0,0.0,0.0,0.0,0.0,0.0,0.0,0.0,0.0,0.0,0.0,0.0,0.0,0.0,0.0,0.0,0.0,0.0,4.1197,4.2863,4.3331,4.3948,4.4878,4.5682,4.5512,4.4157,0.0,0.0,0.0,0.0,0.0,0.0,0.0,0.0,0.0,0.0,0.0,0.0,0.0,0.0,0.0,0.0,0.0,0.0,0.0,0.0,0.0,0.0,0.0,0.0,0.0,0.0,0.0,0.0,0.0,0.0,0.0,0.0,0.0,0.0,0.0,0.0,0.0,0.0,0.0,0.0,0.0,0.0,0.0,0.0,0.0,0.0,0.0,0.0,0.0,0.0,0.0,0.0,0.0,0.0,0.0,0.0,0.0,0.0,0.0,0.0,0.0,0.0,0.0,0.0,0.0,0.0,0.0,0.0,0.0,0.0,0.0,0.0,0.0,0.0,0.0,0.0,0.0,0.0,0.0,0.0,0.0,0.0,0.0,0.0,0.0,0.0,0.0,0.0,0.0,0.0,0.0,0.0,0.0,0.0,0.0,0.0,0.0,0.0,0.0,0.0,0.0,0.0,0.0,4.1343,4.2429,4.3543,4.4458,4.5244,4.5786,4.6578,4.6665,4.5735,4.3751,0.0,0.0,0.0,0.0,0.0,0.0,0.0,0.0,0.0,0.0,0.0,0.0,0.0,0.0,0.0,0.0,0.0,0.0,0.0,0.0,0.0,0.0,0.0,0.0,0.0,0.0,0.0,0.0,0.0,0.0,0.0,0.0,0.0,0.0,0.0,0.0,0.0,0.0,0.0,0.0,0.0,0.0,0.0,0.0,0.0,0.0,0.0,0.0,0.0,0.0,0.0,0.0,0.0,0.0,0.0,0.0,0.0,0.0,0.0,0.0,0.0,0.0,0.0,0.0,0.0,0.0,0.0,0.0,0.0,0.0,0.0,0.0,0.0,0.0,0.0,0.0,0.0,0.0,0.0,0.0,0.0,0.0,0.0,0.0,0.0,0.0,0.0,0.0,0.0,0.0,0.0,0.0,0.0,0.0,0.0,0.0,0.0,0.0,0.0,0.0,0.0,0.0,4.3032,4.3942,4.4291,4.5466,4.6365,4.6739,4.7279,4.7366,4.6708,4.5006,0.0,0.0,0.0,0.0,0.0,0.0,0.0,0.0,0.0,0.0,0.0,0.0,0.0,0.0,0.0,0.0,0.0,0.0,0.0,0.0,0.0,0.0,0.0,0.0,0.0,0.0,0.0,0.0,0.0,0.0,0.0,0.0,0.0,0.0,0.0,0.0,0.0,0.0,0.0,0.0,0.0,0.0,0.0,0.0,0.0,0.0,0.0,0.0,0.0,0.0,0.0,0.0,0.0,0.0,0.0,0.0,0.0,0.0,0.0,0.0,0.0,0.0,0.0,0.0,0.0,0.0,0.0,0.0,0.0,0.0,0.0,0.0,0.0,0.0,0.0,0.0,0.0,0.0,0.0,0.0,0.0,0.0,0.0,0.0,0.0,0.0,0.0,0.0,0.0,0.0,0.0,0.0,0.0,0.0,0.0,0.0,0.0,0.0,0.0,0.0,0.0,0.0,4.4454,4.57,4.5917,4.6165,4.6638,4.747,4.7457,4.6856,4.5503,4.4978,0.0,0.0,0.0,0.0,0.0,0.0,0.0,0.0,0.0,0.0,0.0,0.0,0.0,0.0,0.0,0.0,0.0,0.0,0.0,0.0,0.0,0.0,0.0,0.0,0.0,0.0,0.0,0.0,0.0,0.0,0.0,0.0,0.0,0.0,0.0,0.0,0.0,0.0,0.0,0.0,0.0,0.0,0.0,0.0,0.0,0.0,0.0,0.0,0.0,0.0,0.0,0.0,0.0,0.0,0.0,0.0,0.0,0.0,0.0,0.0,0.0,0.0,0.0,0.0,0.0,0.0,0.0,0.0,0.0,0.0,0.0,0.0,0.0,0.0,0.0,0.0,0.0,0.0,0.0,0.0,0.0,0.0,0.0,0.0,0.0,0.0,0.0,0.0,0.0,0.0,0.0,0.0,0.0,0.0,0.0,0.0,0.0,0.0,0.0,0.0,0.0,0.0,4.5645,4.7077,4.6333,4.757,4.851,4.8516,4.8945,4.8328,4.6256,0.0,0.0,0.0,0.0,0.0,0.0,0.0,0.0,0.0,0.0,0.0,0.0,0.0,0.0,0.0,0.0,0.0,0.0,0.0,0.0,0.0,0.0,0.0,0.0,0.0,0.0,0.0,0.0,0.0,0.0,0.0,0.0,0.0,0.0,0.0,0.0,0.0,0.0,0.0,0.0,0.0,0.0,0.0,0.0,0.0,0.0,0.0,0.0,0.0,0.0,0.0,0.0,0.0,0.0,0.0,0.0,0.0,0.0,0.0,0.0,0.0,0.0,0.0,0.0,0.0,0.0,0.0,0.0,0.0,0.0,0.0,0.0,0.0,0.0,0.0,0.0,0.0,0.0,0.0,0.0,0.0,0.0,0.0,0.0,0.0,0.0,0.0,0.0,0.0,0.0,0.0,0.0,0.0,0.0,0.0,0.0,0.0,0.0,0.0,0.0,0.0,0.0,4.451,4.7077,4.8495,4.7584,4.8714,4.9527,4.9474,4.9924,4.9306,4.7251,0.0,0.0,0.0,0.0,0.0,0.0,0.0,0.0,0.0,0.0,0.0,0.0,0.0,0.0,0.0,0.0,0.0,0.0,0.0,0.0,0.0,0.0,0.0,0.0,0.0,0.0,0.0,0.0,0.0,0.0,0.0,0.0,0.0,0.0,0.0,0.0,0.0,0.0,0.0,0.0,0.0,0.0,0.0,0.0,0.0,0.0,0.0,0.0,0.0,0.0,0.0,0.0,0.0,0.0,0.0,0.0,0.0,0.0,0.0,0.0,0.0,0.0,0.0,0.0,0.0,0.0,0.0,0.0,0.0,0.0,0.0,0.0,0.0,0.0,0.0,0.0,0.0,0.0,0.0,0.0,0.0,0.0,0.0,0.0,0.0,0.0,0.0,0.0,0.0,0.0,0.0,0.0,0.0,0.0,0.0,0.0,0.0,0.0,0.0,0.0,0.0,0.0,4.7,4.8772,5.0027,5.0027,4.9357,4.9296,5.0274,5.0135,4.951,0.0,0.0,0.0,0.0,0.0,0.0,0.0,0.0,0.0,0.0,0.0,0.0,0.0,0.0,0.0,0.0,0.0,0.0,0.0,0.0,0.0,0.0,0.0,0.0,0.0,0.0,0.0,0.0,0.0,0.0,0.0,0.0,0.0,0.0,0.0,0.0,0.0,0.0,0.0,0.0,0.0,0.0,0.0,0.0,0.0,0.0,0.0,0.0,0.0,0.0,0.0,0.0,0.0,0.0,0.0,0.0,0.0,0.0,0.0,0.0,0.0,0.0,0.0,0.0,0.0,0.0,0.0,0.0,0.0,0.0,0.0,0.0,0.0,0.0,0.0,0.0,0.0,0.0,0.0,0.0,0.0,0.0,0.0,0.0,0.0,0.0,0.0,0.0,0.0,0.0,0.0,0.0,0.0,0.0,0.0,0.0,0.0,0.0,0.0,0.0,0.0,0.0,0.0,4.807,4.9787,5.0879,5.1024,5.1323,5.1675,5.2113,5.2131,5.165,5.0543,0.0,0.0,0.0,0.0,0.0,0.0,0.0,0.0,0.0,0.0,0.0,0.0,0.0,0.0,0.0,0.0,0.0,0.0,0.0,0.0,0.0,0.0,0.0,0.0,0.0,0.0,0.0,0.0,0.0,0.0,0.0,0.0,0.0,0.0,0.0,0.0,0.0,0.0,0.0,0.0,0.0,0.0,0.0,0.0,0.0,0.0,0.0,0.0,0.0,0.0,0.0,0.0,0.0,0.0,0.0,0.0,0.0,0.0,0.0,0.0,0.0,0.0,0.0,0.0,0.0,0.0,0.0,0.0,0.0,0.0,0.0,0.0,0.0,0.0,0.0,0.0,0.0,0.0,0.0,0.0,0.0,0.0,0.0,0.0,0.0,0.0,0.0,0.0,0.0,0.0,0.0,0.0,0.0,0.0,0.0,0.0,0.0,0.0,0.0,0.0,0.0,0.0,4.912,5.0768,5.1843,5.197,5.2102,5.238,5.2911,5.3052,5.2806,5.2119,0.0,0.0,0.0,0.0,0.0,0.0,0.0,0.0,0.0,0.0,0.0,0.0,0.0,0.0,0.0,0.0,0.0,0.0,0.0,0.0,0.0,0.0,0.0,0.0,0.0,0.0,0.0,0.0,0.0,0.0,0.0,0.0,0.0,0.0,0.0,0.0,0.0,0.0,0.0,0.0,0.0,0.0,0.0,0.0,0.0,0.0,0.0,0.0,0.0,0.0,0.0,0.0,0.0,0.0,0.0,0.0,0.0,0.0,0.0,0.0,0.0,0.0,0.0,0.0,0.0,0.0,0.0,0.0,0.0,0.0,0.0,0.0,0.0,0.0,0.0,0.0,0.0,0.0,0.0,0.0,0.0,0.0,0.0,0.0,0.0,0.0,0.0,0.0,0.0,0.0,0.0,0.0,0.0,0.0,0.0,0.0,0.0,0.0,0.0,0.0,0.0,0.0,5.0323,5.1879,5.2975,5.3049,5.2434,5.2392,5.3297,5.3491,5.3574,5.3532,0.0,0.0,0.0,0.0,0.0,0.0,0.0,0.0,0.0,0.0,0.0,0.0,0.0,0.0,0.0,0.0,0.0,0.0,0.0,0.0,0.0,0.0,0.0,0.0,0.0,0.0,0.0,0.0,0.0,0.0,0.0,0.0,0.0,0.0,0.0,0.0,0.0,0.0,0.0,0.0,0.0,0.0,0.0,0.0,0.0,0.0,0.0,0.0,0.0,0.0,0.0,0.0,0.0,0.0,0.0,0.0,0.0,0.0,0.0,0.0,5.2882,5.1802,0.0,0.0,0.0,0.0,0.0,0.0,0.0,0.0,0.0,0.0,0.0,0.0,0.0,0.0,0.0,0.0,0.0,0.0,0.0,0.0,0.0,0.0,0.0,0.0,0.0,0.0,0.0,0.0,0.0,0.0,0.0,0.0,0.0,0.0,0.0,0.0,0.0,0.0,0.0,0.0,5.2977,5.4219,5.5205,5.5789,5.5787,5.584,5.6026,5.6304,5.6463,5.655,5.5624,0.0,0.0,0.0,0.0,0.0,0.0,0.0,0.0,0.0,0.0,0.0,0.0,0.0,0.0,0.0,0.0,0.0,0.0,0.0,0.0,0.0,0.0,0.0,0.0,0.0,0.0,0.0,0.0,0.0,0.0,0.0,0.0,0.0,0.0,0.0,0.0,0.0,0.0,0.0,0.0,0.0,0.0,0.0,0.0,0.0,0.0,0.0,0.0,0.0,0.0,0.0,0.0,0.0,0.0,0.0,0.0,0.0,0.0,0.0,5.772,5.5785,0.0,0.0,0.0,0.0,0.0,0.0,0.0,0.0,0.0,0.0,0.0,0.0,0.0,0.0,0.0,0.0,0.0,0.0,0.0,0.0,0.0,0.0,0.0,0.0,0.0,0.0,0.0,0.0,0.0,0.0,0.0,0.0,0.0,0.0,0.0,0.0,0.0,0.0,0.0,0.0,5.4538,5.6023,5.7102,5.7464,5.7609,5.7544,5.7163,5.7337,5.7521,5.7668,5.7239,0.0,0.0,0.0,0.0,0.0,0.0,0.0,0.0,0.0,0.0,0.0,0.0,0.0,0.0,0.0,0.0,0.0,0.0,0.0,0.0,0.0,0.0,0.0,0.0,0.0,0.0,0.0,0.0,0.0,0.0,0.0,0.0,0.0,0.0,0.0,0.0,0.0,0.0,0.0,0.0,0.0,0.0,0.0,0.0,0.0,0.0,0.0,0.0,0.0,0.0,0.0,0.0,0.0,6.546,6.6213,6.6966,6.6889,6.6888,6.6644,6.282,6.0653,5.9737,5.9214,0.0,0.0,0.0,0.0,0.0,0.0,0.0,0.0,0.0,0.0,0.0,0.0,0.0,0.0,0.0,0.0,0.0,0.0,0.0,0.0,0.0,0.0,5.9856,6.0878,6.1793,6.1416,5.7632,0.0,0.0,0.0,0.0,0.0,0.0,0.0,0.0,0.0,0.0,0.0,5.6081,5.7938,5.9164,5.911,5.9192,5.8992,5.8387,5.8462,5.8554,5.8549,5.8655,5.8182,0.0,0.0,0.0,0.0,0.0,0.0,0.0,0.0,0.0,0.0,0.0,0.0,0.0,0.0,0.0,0.0,0.0,0.0,0.0,0.0,0.0,0.0,0.0,0.0,0.0,0.0,0.0,0.0,0.0,0.0,0.0,0.0,5.5334,5.6527,0.0,0.0,0.0,0.0,0.0,0.0,0.0,0.0,0.0,0.0,0.0,0.0,0.0,6.5305,6.6889,6.7072,6.7612,6.8475,6.8592,6.8708,6.8832,6.8752,6.873,6.8722,6.8039,0.0,6.5148,6.2819,0.0,0.0,0.0,0.0,0.0,0.0,0.0,0.0,0.0,0.0,0.0,0.0,0.0,0.0,0.0,0.0,0.0,0.0,0.0,0.0,0.0,0.0,6.187,6.286,6.3213,6.3147,6.2574,6.1174,5.9811,5.8983,5.8642,5.7933,0.0,0.0,0.0,0.0,0.0,0.0,5.8974,6.0855,6.2124,6.2062,6.2124,6.2132,6.2018,6.218,6.1997,6.1245,6.1326,6.0685,5.9184,5.9199,0.0,0.0,0.0,0.0,0.0,0.0,0.0,0.0,0.0,0.0,0.0,0.0,0.0,0.0,0.0,0.0,0.0,0.0,0.0,0.0,0.0,0.0,0.0,0.0,0.0,0.0,0.0,0.0,0.0,5.6526,5.8364,5.9925,5.9493,5.9493,0.0,0.0,0.0,0.0,0.0,0.0,0.0,0.0,0.0,6.6114,6.6996,6.7831,6.8655,6.9652,7.0319,7.0653,7.1644,7.21,7.2102,7.2089,7.2068,7.2008,7.1481,7.0798,6.9865,6.6749,6.5398,6.5047,0.0,0.0,0.0,0.0,5.8953,5.9279,5.9446,5.9755,6.0131,6.0517,0.0,0.0,0.0,0.0,0.0,0.0,0.0,6.1888,6.3241,6.4263,6.5196,6.6167,6.6394,6.6416,6.6383,6.5804,6.4569,6.2155,6.1601,6.1108,5.9728,5.9286,0.0,0.0,0.0,6.0623,6.1907,6.2963,6.3953,6.4879,6.4594,6.414,6.3681,6.3778,6.3487,6.2605,6.2719,6.2456,6.1724,6.0882,5.9791,0.0,0.0,0.0,0.0,0.0,0.0,0.0,0.0,0.0,0.0,0.0,0.0,0.0,0.0,0.0,0.0,0.0,0.0,0.0,0.0,0.0,0.0,0.0,0.0,0.0,0.0,0.0,0.0,5.9012,6.0799,6.2716,6.1769,6.1486,0.0,0.0,0.0,0.0,0.0,0.0,6.6252,6.7764,6.8651,6.8674,6.9727,7.0312,7.0312,7.1789,7.2521,7.2501,7.3812,7.4421,7.4422,7.4422,7.4404,7.4301,7.3678,7.3367,7.3133,6.9844,6.8157,6.7399,6.5581,6.4831,6.4645,6.3743,6.3382,6.3473,6.4166,6.4446,6.4485,6.4718,6.4769,6.4742,6.4986,0.0,0.0,0.0,0.0,6.5611,6.6527,6.7211,6.7845,6.8524,6.8701,6.8712,6.8668,6.8712,6.7933,6.5054,6.4503,6.41,6.2796,6.2541,0.0,6.1311,6.1975,6.3088,6.455,6.5116,6.5852,6.7079,6.6726,6.6114,6.5512,6.5321,6.4846,6.4,6.3912,6.3737,6.3461,6.2191,6.108,6.0271,0.0,0.0,0.0,0.0,0.0,0.0,0.0,0.0,0.0,0.0,0.0,0.0,0.0,0.0,0.0,0.0,0.0,0.0,0.0,0.0,0.0,0.0,0.0,0.0,0.0,0.0,0.0,0.0,0.0,6.3728,6.3842,0.0,0.0,0.0,0.0,6.6324,6.7252,6.8184,6.9042,7.0036,7.0544,7.0489,7.2127,7.2986,7.2986,7.3922,7.439,7.4386,7.4468,7.4503,7.4503,7.4503,7.4503,7.4498,7.442,7.442,7.4221,7.1504,7.0324,7.0129,6.8371,6.7703,6.7587,6.6698,6.6341,6.6314,6.6353,6.6298,6.6424,6.7238,6.751,6.7626,6.8392,6.7445,0.0,0.0,6.7938,6.7508,6.851,6.8733,6.8738,6.8839,6.8847,6.8805,6.8805,6.8805,6.8485,6.7415,6.7211,6.6659,6.4933,0.0,6.4283,6.4101,6.4843,6.5726,6.6633,6.7641,6.8334,6.8411,6.8434,6.8432,6.8393,6.7622,6.6823,6.6013,6.5258,6.4469,6.3619,6.2839,6.2391,6.2343,6.076,0.0,0.0,0.0,0.0,0.0,0.0,0.0,0.0,0.0,0.0,0.0,0.0,0.0,0.0,0.0,0.0,0.0,0.0,0.0,0.0,0.0,0.0,0.0,0.0,0.0,0.0,0.0,0.0,6.545,6.5242,0.0,6.7295,6.7244,6.7471,6.8333,6.9246,6.9876,7.0174,7.1585,7.2366,7.232,7.2896,7.3474,7.4024,7.4336,7.4796,7.533,7.5928,7.6158,7.6106,7.6106,7.6106,7.6067,7.556,7.533,7.5209,7.3695,7.3051,7.2856,7.0557,6.9972,7.044,7.0113,6.9613,6.9221,7.0369,6.9964,6.9034,6.9273,6.9731,7.0158,6.9886,7.0132,7.0308,6.9326,6.9553,7.005,6.9864,7.0147,7.0465,7.0485,7.0475,7.0444,7.0412,7.0898,7.1014,7.0071,6.9054,6.8105,6.7404,6.7305,6.7221,6.7075,6.7369,6.7882,6.8719,6.8653,6.8998,7.0066,6.9743,6.9459,6.9459,6.915,6.8343,6.6832,6.6603,6.608,6.5198,6.4522,6.3899,6.3359,6.2203,6.1303,0.0,0.0,0.0,0.0,0.0,0.0,0.0,0.0,0.0,0.0,0.0,0.0,0.0,0.0,0.0,0.0,0.0,0.0,0.0,0.0,0.0,0.0,0.0,0.0,0.0,6.3774,6.5472,6.6922,6.6946,6.7512,6.9246,6.9126,6.9358,7.0216,7.1075,7.1696,7.2002,7.3093,7.3754,7.3752,7.3702,7.4086,7.4939,7.4939,7.5365,7.6259,7.6816,7.7089,7.7036,7.7036,7.7032,7.6989,7.6482,7.6248,7.617,7.5311,7.5116,7.5112,7.2517,7.1803,7.2257,7.195,7.1399,7.105,7.2199,7.1821,7.0866,7.1148,7.1599,7.2026,7.17,7.2438,7.2974,7.1287,7.1603,7.2305,7.1741,7.1949,7.2269,7.2318,7.2269,7.2171,7.1838,7.2489,7.2858,7.1932,7.0584,6.9596,6.9585,6.9585,6.9585,6.9529,7.0042,7.0494,7.0768,7.0266,7.0332,7.1451,7.0857,7.0378,7.0401,6.9841,6.8933,6.7665,6.7745,6.7266,6.6017,6.5935,6.5246,6.3796,6.324,6.2603,6.1969,0.0,0.0,0.0,0.0,0.0,0.0,0.0,0.0,0.0,0.0,0.0,0.0,0.0,0.0,0.0,0.0,0.0,0.0,0.0,0.0,0.0,0.0,0.0,6.4041,6.5634,6.7102,6.8049,6.8927,6.9444,6.9483,7.0225,7.1084,7.1982,7.2801,7.366,7.4559,7.4637,7.4634,7.4625,7.4625,7.5048,7.5816,7.5816,7.6253,7.7083,7.7083,7.7083,7.7083,7.7083,7.7115,7.7101,7.7101,7.7101,7.7023,7.6203,7.632,7.6822,7.4234,7.3212,7.3064,7.2179,7.1792,7.1761,7.1722,7.1777,7.1952,7.2808,7.308,7.3229,7.4009,7.4235,7.418,7.4178,7.4088,7.4022,7.4106,7.4052,7.3995,7.4043,7.4024,7.3782,7.2907,7.3442,7.3762,7.2872,7.1954,7.1352,7.1358,7.1324,7.1313,7.1369,7.2755,0.0,7.2642,7.2565,7.2565,7.2565,7.1849,7.1401,7.1492,6.9806,6.876,6.874,6.879,6.8011,6.6136,6.7132,6.6477,6.3864,6.3842,6.3842,6.3797,0.0,0.0,0.0,0.0,0.0,0.0,0.0,0.0,0.0,0.0,0.0,0.0,0.0,0.0,0.0,0.0,0.0,0.0,0.0,0.0,0.0,6.3652,6.487,6.5132,6.6669,6.8043,6.8942,6.9804,7.0586,7.121,7.1484,7.199,7.2887,7.316,7.3665,7.4559,7.5184,7.5532,7.5482,7.5529,7.5919,7.6727,7.615,7.6273,7.7094,7.7094,7.7094,7.7094,7.7087,7.7081,7.7117,7.7107,7.7101,7.7062,7.6828,7.6867,7.6906,7.49,7.4531,7.5018,7.4753,7.5018,7.5424,7.4735,7.4509,7.4561,7.4799,7.487,7.4948,7.5135,7.474,7.4062,7.3432,7.275,7.2221,7.223,7.2677,7.3132,7.3142,7.3636,7.3985,7.3704,7.4354,7.4907,7.4604,7.4319,7.3928,7.3303,7.3209,7.3242,7.3253,7.3672,7.3876,7.3605,7.3605,7.3605,7.3605,7.3393,7.3287,7.3268,7.2801,7.2207,7.1523,7.1598,7.1144,6.9948,6.9682,6.8614,6.6627,6.5997,6.5652,0.0,0.0,0.0,0.0,0.0,0.0,0.0,0.0,0.0,0.0,0.0,0.0,0.0,0.0,0.0,0.0,0.0,0.0,0.0,0.0,0.0,0.0,6.4686,6.6172,6.6601,6.7812,6.8984,6.9842,7.0701,7.1444,7.1953,7.1992,7.25,7.3749,7.3827,7.4373,7.5621,7.6168,7.6398,7.6349,7.6044,7.6277,7.7083,7.6626,7.6827,7.7649,7.8001,7.8001,7.7649,7.8035,7.7993,7.7638,7.7629,7.7625,7.762,7.7266,7.7107,7.6945,0.0,0.0,0.0,0.0,7.5423,7.5788,7.5223,7.508,7.5177,7.5509,7.5658,7.569,7.6027,7.5758,7.5215,7.4732,7.417,7.3721,7.3721,7.4109,7.4467,7.4467,7.4874,7.5115,7.4682,7.5303,7.5808,7.5391,7.5604,0.0,7.5133,7.4745,7.4534,7.4555,7.4857,7.4955,7.4606,7.4528,7.4528,7.4528,7.4218,7.3995,7.4053,7.3655,0.0,0.0,0.0,7.3035,7.2541,7.0717,0.0,0.0,0.0,6.8368,6.9088,6.9389,0.0,0.0,6.669,6.6225,0.0,0.0,0.0,0.0,0.0,0.0,0.0,0.0,0.0,0.0,0.0,0.0,0.0,0.0,0.0,0.0,6.5311,6.7258,6.8113,6.9016,6.9839,7.0614,7.1481,7.203,7.2146,7.2147,7.2851,7.4609,7.4765,7.5469,7.7109,7.7187,0.0,0.0,0.0,7.6401,7.7087,7.7097,7.7532,7.8435,7.9216,7.9216,7.8552,7.9255,7.9136,7.8389,7.831,7.8266,7.8178,7.7436,7.7117,7.7023,7.6262,7.592,7.5752,7.4852,7.4552,7.4612,7.4612,0.0,0.0,7.5596,7.5869,7.6019,7.6807,7.6988,7.6897,7.7025,7.6864,7.6629,7.6629,7.6638,7.6638,7.6629,7.6793,7.6715,7.5888,7.6385,7.6756,7.5925,7.641,7.6972,7.6914,7.6049,7.5369,7.5459,7.6128,7.6322,7.5546,7.5469,7.5469,7.5469,7.4781,0.0,7.442,7.3578,7.3101,7.3064,7.3811,7.4238,7.4282,7.1296,7.0326,7.1767,7.1101,7.1505,7.306,7.3751,7.4114,7.4022,7.0128,6.9169,0.0,0.0,0.0,0.0,0.0,0.0,0.0,0.0,0.0,0.0,0.0,0.0,0.0,0.0,0.0,6.4917,6.6623,6.8132,6.9028,6.9898,7.0491,7.0691,7.147,7.2291,7.2998,7.3038,7.3784,7.5505,7.5662,7.6092,7.7148,7.7187,7.7187,7.7184,7.703,7.703,7.7182,7.7186,7.7617,7.8476,7.8632,0.0,7.9414,7.8904,7.8551,7.8355,7.7647,7.7332,7.733,7.7174,7.7091,7.7078,7.6894,7.6825,7.6722,7.6521,7.6454,7.6475,7.6475,7.6481,7.6532,7.6688,7.6765,7.6921,7.7767,7.7462,0.0,7.7687,7.6809,7.5663,7.5663,7.5727,7.5743,7.5663,7.6801,7.7805,7.761,7.8248,7.88,7.8634,7.8751,7.8859,7.8805,7.7477,7.64,7.6449,7.6555,7.6621,7.6466,7.6427,7.6427,7.6427,7.6346,7.6255,7.6263,7.6163,7.6054,7.6062,7.6218,7.6031,7.5346,7.4678,7.4133,7.3752,7.3603,7.3666,7.3947,7.4102,7.4156,7.4075,7.3246,7.3006,0.0,0.0,0.0,0.0,0.0,0.0,0.0,0.0,0.0,0.0,0.0,6.0859,6.2616,0.0,6.5068,6.5526,6.7002,6.8403,6.9296,7.016,7.0868,7.1301,7.1737,7.2326,7.3225,7.3306,7.3858,7.5152,7.5658,7.6089,7.6523,7.6952,7.7187,7.7148,7.7187,7.7187,7.7184,7.7617,7.8086,7.8515,7.8906,7.9101,7.9101,7.9062,7.8827,7.8437,7.8005,7.777,7.7728,7.7295,7.7096,7.7091,7.711,7.7085,7.7055,7.6995,7.7019,7.7004,7.6989,7.6983,7.7055,7.7512,7.735,7.7233,7.8519,7.8261,7.7735,7.8553,7.7849,7.691,7.7338,7.7159,7.6933,7.7338,7.8146,7.8791,7.8808,7.9119,7.9384,7.94,7.94,7.9392,7.9368,7.8643,7.8034,7.8019,7.799,7.8017,7.8043,7.8043,7.8051,7.8037,7.81,7.8108,7.8108,7.8131,7.8139,7.8139,7.8139,7.7764,7.6922,7.6494,7.6073,7.5664,7.5236,7.519,7.5599,7.5599,7.5585,7.5502,7.5487,7.5011,0.0,0.0,0.0,0.0,0.0,0.0,0.0,5.851,5.8945,6.1172,6.1949,6.2677,6.4273,6.5247,6.5909,6.6056,6.7232,6.8447,6.9491,7.027,7.1011,7.1909,7.216,7.2598,7.3449,7.369,7.4167,7.5032,7.5732,7.6122,7.6128,7.6793,7.7186,7.7109,7.7187,7.7187,7.7186,7.789,7.832,7.8476,7.914,7.9219,7.875,7.9258,7.9101,7.8476,7.832,7.8203,7.8123,7.7416,7.7101,7.7138,7.7091,7.7112,7.7082,7.702,7.7008,7.7004,7.7175,7.7248,7.7399,7.8264,7.8063,7.7785,7.9298,7.9298,7.8948,7.9766,7.9397,7.8871,7.9572,7.9105,7.8637,7.9332,7.9643,7.9767,7.976,7.9856,7.9912,7.9905,7.9905,7.9905,7.9898,7.989,7.975,7.9373,7.9325,7.9334,7.9376,7.9415,7.9392,7.9384,7.9392,7.9399,7.9406,7.9406,7.9406,7.9406,7.9406,7.907,7.8248,7.754,7.7125,7.6999,7.6298,7.6376,7.7233,7.7083,7.7071,7.7151,7.7001,7.6112,5.3783,5.442,5.5292,5.6242,5.7029,5.7578,0.0,5.906,6.0422,6.1476,6.2949,6.4301,6.5275,6.6134,6.6915,6.7693,6.7966,6.8669,7.0309,7.066,7.1011,7.1909,7.2693,7.3473,7.4293,7.5077,7.5863,7.6733,7.689,7.6974,7.6982,7.7104,7.7184,7.7185,7.7187,7.7187,7.7186,7.7304,7.7695,7.8396,7.8554,7.8945,7.9531,7.8906,7.8594,7.8476,7.7695,7.7344,7.7344,7.7226,7.7186,7.7183,7.7139,7.7091,7.7115,7.7085,7.7059,7.7121,7.7896,7.813,7.8282,7.9154,7.9383,7.9494,8.0396,8.0578,8.0701,8.1558,8.1169,8.0539,8.0617,7.9994,7.9364,7.9494,8.0091,8.065,8.0663,8.126,8.1773,8.1739,8.1693,8.1718,8.1727,8.1719,8.1174,7.961,7.9376,7.9376,7.9384,7.9384,7.9384,7.9384,7.946,7.9487,7.9481,7.9481,7.9481,7.9481,7.9481,7.913,7.8318,7.8201,7.7773,7.6999,7.6882,7.7272,7.8168,7.7378,7.7373,7.8123,7.7334,7.6832,5.5363,5.5679,5.6168,5.7031,5.7146,5.7452,5.8962,5.9462,6.0163,6.2076,6.3394,6.4523,6.5426,6.6249,6.7107,6.7966,6.7654,6.7966,6.9684,6.9957,7.027,7.1128,7.2464,7.3635,7.4408,7.4845,7.5438,7.6263,7.6802,7.6883,7.6386,7.6865,7.7139,7.7135,7.7184,7.7185,7.7142,7.7144,7.73,7.7649,7.7651,7.7888,7.8241,7.7889,7.7734,7.7734,7.7851,7.7617,7.7187,7.7187,7.7187,7.7223,7.7686,7.7874,7.7783,7.7293,7.7085,7.7196,7.8043,7.8351,7.8581,7.9925,8.0022,7.9851,8.116,8.1181,8.0974,8.1831,8.1481,8.0935,8.1403,8.0896,8.0383,8.0883,8.1279,8.1558,8.1546,8.1825,8.2104,8.2046,8.2046,8.2078,8.2065,8.2058,8.1831,8.1091,8.0932,8.0909,8.0893,8.09,8.0946,8.0974,8.0987,8.1,8.1013,8.1013,8.1013,8.1013,8.1013,8.0428,7.9065,7.9043,7.8425,7.7028,7.7004,7.7165,7.7555,7.718,7.718,7.7516,7.718,7.697,5.6506,5.6482,5.664,5.73,5.7132,5.743,5.9563,5.9753,6.0143,6.2527,6.3461,6.4169,6.508,6.5902,6.6839,6.7932,6.7581,6.7854,6.984,6.9689,6.9728,7.0587,7.1811,7.2987,7.4064,7.4616,7.5284,7.6102,7.6756,7.6834,7.6178,7.6777,7.7208,7.7434,7.7255,7.7258,7.7446,7.7215,7.7097,7.7094,7.7097,7.7139,7.7183,7.7417,7.7419,7.7226,7.8045,7.7928,7.7226,7.7461,7.7538,7.7613,7.8428,7.877,7.8681,7.8044,7.7648,7.757,7.8182,7.8565,7.8991,8.0415,8.0631,8.0534,8.1727,8.1666,8.1298,8.1915,8.1636,8.1286,8.1948,8.1636,8.1325,8.1948,8.2104,8.2104,8.2104,8.2104,8.2104,8.2104,8.2104,8.2104,8.2104,8.2104,8.2104,8.2104,8.2065,8.2036,8.2019,8.2026,8.2039,8.2104,8.2104,8.211,8.2116,8.2083,8.2122,8.2134,8.2134,8.1471,7.9945,7.9695,7.8886,7.7404,7.7112,7.7121,7.7355,7.7129,7.7129,7.7355,7.7129,7.7012,5.6523,5.6519,5.6502,5.6532,5.7146,5.7997,5.8944,5.9768,6.0861,6.2657,6.3008,6.3284,6.4195,6.5056,6.6188,6.7828,6.8062,6.8956,7.156,7.0477,6.9703,7.0599,7.0733,7.1438,7.3178,7.4816,7.6102,7.6987,7.7101,7.7101,7.7062,7.7076,7.7473,7.833,7.7522,7.7524,7.8332,7.7524,7.7094,7.7085,7.7094,7.7099,7.7138,7.7996,7.7922,7.7223,7.8044,7.7928,7.7265,7.8125,7.8437,7.8434,7.9327,7.967,7.9658,7.9645,7.9092,7.835,7.839,7.8936,7.9792,8.0634,8.1446,8.214,8.2089,8.2073,8.2067,8.2077,8.2065,8.2065,8.2104,8.2065,8.2065,8.2104,8.2104,8.2104,8.2104,8.2104,8.2104,8.2104,8.2104,8.2104,8.2104,8.2104,8.2104,8.2104,8.2104,8.2104,8.2104,8.2104,8.2104,8.2104,8.2104,8.2083,8.2112,8.2112,8.2123,8.2187,8.2192,8.1802,8.0904,8.0046,7.9188,7.8291,7.7433,7.7433,7.8252,7.7493,7.7493,7.8252,7.7454,7.7063,5.656,5.6549,5.6491,5.6519,5.6706,5.7169,5.8022,5.8919,5.9862,6.1041,6.2176,6.3274,6.4145,6.4967,6.61,6.7815,6.8088,6.8596,7.0074,7.0275,7.016,6.9887,7.0876,7.201,7.3205,7.381,7.4946,7.6961,7.6568,7.649,7.7076,7.7081,7.751,7.8359,7.8137,7.8371,7.9254,7.8403,7.7974,7.7969,7.7395,7.7714,7.8846,7.912,7.9123,7.8897,7.9757,7.9644,7.8866,7.9179,7.9296,7.9366,8.0223,8.0565,8.0545,8.0579,7.999,7.9248,7.9248,7.9444,7.9834,8.0686,8.1535,8.2183,8.2171,8.2143,8.2112,8.2101,8.2083,8.2104,8.2104,8.2104,8.2104,8.2104,8.2104,8.2104,8.2104,8.2104,8.2104,8.2104,8.2104,8.2104,8.2104,8.2104,8.2104,8.2104,8.2104,8.2104,8.2104,8.2104,8.2116,8.2095,8.2101,8.2112,8.2177,8.2177,8.2182,8.2192,8.2192,8.1568,8.0085,7.9786,7.8975,7.7532,7.7235,7.7203,7.7515,7.7245,7.7245,7.7515,7.7245,7.7089,5.6549,5.6534,5.6516,5.6503,5.6506,5.6748,5.7601,5.827,5.9017,6.0159,6.1529,6.2785,6.3652,6.4786,6.5996,6.7434,6.8173,6.8874,6.9726,7.035,7.0509,6.9918,7.0831,7.2004,7.3158,7.3303,7.4363,7.6922,7.63,7.6182,7.7037,7.7115,7.7503,7.8353,7.8398,7.8828,7.9678,7.9131,7.8702,7.839,7.7815,7.813,7.9262,7.9575,7.9699,7.9748,8.0607,8.0497,7.9723,8.0038,8.0155,8.0261,8.112,8.1265,8.1005,8.1005,8.0263,7.9248,7.9248,7.9248,7.9366,8.0263,8.1116,8.1804,8.2109,8.2166,8.2138,8.2133,8.2156,8.214,8.214,8.2134,8.2083,8.2083,8.2116,8.2104,8.2104,8.2104,8.2104,8.2104,8.2104,8.211,8.2083,8.2083,8.2083,8.211,8.2104,8.211,8.2083,8.2083,8.2095,8.2123,8.2128,8.2138,8.2201,8.2205,8.221,8.2218,8.2257,8.175,8.0618,8.0005,7.9154,7.8061,7.7407,7.7101,7.7101,7.7101,7.7101,7.7101,7.7101,7.7101,5.6452,5.6477,5.6503,5.6488,5.6509,5.6727,5.7596,5.7878,5.843,6.0069,6.1089,6.1951,6.285,6.4375,6.582,6.6671,6.8269,6.9708,7.0506,7.0709,7.075,7.0699,7.0757,7.1425,7.3041,7.3258,7.4355,7.6909,7.6295,7.618,7.7065,7.7101,7.7492,7.835,7.8429,7.8897,7.9756,7.9756,7.9326,7.8468,7.8471,7.851,7.8546,7.9405,7.9804,7.9892,8.0712,8.0607,7.9918,8.0739,8.1054,8.1161,8.198,8.1773,8.1005,8.1044,7.9951,7.839,7.8468,7.8429,7.8546,7.9405,8.0302,8.1158,8.1961,8.2187,8.2183,8.2201,8.2192,8.2192,8.2192,8.2133,8.2112,8.2112,8.2089,8.2104,8.2104,8.2104,8.2104,8.2104,8.211,8.2083,8.2112,8.2112,8.2106,8.2116,8.211,8.2083,8.2112,8.2112,8.2123,8.2192,8.2192,8.2205,8.2187,8.2226,8.2234,8.229,8.2293,8.2293,8.2254,8.0654,7.9756,7.9717,7.8077,7.7218,7.7218,7.7218,7.7218,7.7218,7.7179,7.7179,5.5694,5.6004,5.6509,5.6516,5.6536,5.6783,5.7684,5.8355,5.9101,6.0192,6.1093,6.1953,6.2851,6.3905,6.4919,6.5771,6.7874,6.9468,6.9687,7.0858,7.1443,7.0777,7.1251,7.2073,7.3158,7.3291,7.4347,7.6906,7.6295,7.6182,7.7039,7.7107,7.7492,7.835,7.9014,7.9795,8.0654,8.0654,8.0224,7.9366,7.9377,7.9728,8.0341,8.0587,8.1019,8.1636,8.1881,8.1849,8.1662,8.1872,8.1952,8.1986,8.2209,8.1764,8.1083,8.1747,8.0459,7.8507,7.9131,7.8936,7.8546,7.9405,8.0302,8.1161,8.2014,8.2237,8.2187,8.2218,8.2205,8.2187,8.2128,8.2117,8.2106,8.2083,8.211,8.2104,8.2104,8.2104,8.2104,8.2104,8.2089,8.2112,8.2177,8.2128,8.2112,8.2101,8.2101,8.2106,8.2112,8.2112,8.2133,8.2175,8.2218,8.2226,8.2284,8.2287,8.2287,8.2293,8.2293,8.202,8.1356,8.0888,8.0341,7.9717,7.9248,7.9053,7.9053,7.9053,7.9053,7.9014,7.835,7.8077,5.5884,5.6121,5.6519,5.6487,5.6546,5.6713,5.7221,5.7968,5.8828,5.9687,6.0857,6.2063,6.3357,6.4296,6.5156,6.6013,6.7685,6.8964,6.9345,7.0587,7.1399,7.1237,7.1672,7.2336,7.3186,7.3283,7.4189,7.6362,7.6061,7.6182,7.7037,7.7107,7.7335,7.7804,7.8663,7.9717,8.1005,8.1396,8.1122,8.0263,8.0272,8.0548,8.1017,8.0985,8.149,8.2302,8.231,8.2318,8.2285,8.2301,8.2304,8.2301,8.2285,8.1764,8.1053,8.1555,8.0302,7.8468,7.8975,7.8546,7.8038,7.9287,8.0029,8.0654,8.1903,8.2287,8.2237,8.2237,8.2226,8.2205,8.2153,8.2133,8.2112,8.2095,8.2116,8.2104,8.2104,8.2104,8.211,8.2083,8.2112,8.2133,8.2138,8.2133,8.2128,8.2117,8.2112,8.2123,8.2148,8.2148,8.2162,8.2234,8.2237,8.2245,8.229,8.2293,8.2293,8.2293,8.2293,8.2062,8.16,8.1203,8.0774,8.0272,7.9876,7.9717,7.9717,7.9717,7.9717,7.9678,7.9209,7.8975,5.6352,5.6324,5.6374,5.6493,5.6472,5.6483,5.6717,5.7421,5.8316,5.9177,6.0612,6.2162,6.3658,6.4754,6.5658,6.6445,6.7419,6.8385,6.9277,7.016,7.1003,7.1813,7.1979,7.2294,7.3137,7.3281,7.3991,7.566,7.5785,7.6178,7.7062,7.7101,7.714,7.7257,7.7999,7.917,8.081,8.1708,8.1708,8.081,8.1047,8.1092,8.0985,8.1107,8.1576,8.2315,8.2315,8.2244,8.2137,8.2261,8.2226,8.2144,8.2244,8.1688,8.0829,8.0972,7.9834,7.8233,7.835,7.7843,7.7375,7.9131,7.9717,8.0029,8.1786,8.2293,8.2293,8.2293,8.2241,8.2187,8.2183,8.2153,8.2112,8.2106,8.2089,8.2104,8.2104,8.2104,8.2116,8.2112,8.2133,8.2182,8.2128,8.2143,8.2187,8.2123,8.2123,8.2143,8.2183,8.2187,8.2234,8.229,8.2293,8.2293,8.2293,8.2293,8.2293,8.2293,8.2293,8.2299,8.2313,8.1563,8.117,8.1183,8.0428,8.0032,8.0068,8.0068,8.0068,8.0029,7.9912,7.9873,5.5611,5.5472,5.5682,5.6393,5.6051,5.5898,5.7344,5.8312,5.9154,6.0029,6.0942,6.1735,6.2074,6.3458,6.4562,6.472,6.664,6.8387,6.9283,7.0158,7.1036,7.1864,7.1937,7.2285,7.3192,7.3275,7.3981,7.566,7.5816,7.6167,7.7062,7.7101,7.7414,7.8155,7.8311,7.8897,7.9912,8.0771,8.0771,7.9951,8.1407,8.1683,8.1011,8.1736,8.2168,8.2315,8.2315,8.1892,8.1278,8.1991,8.1875,8.1285,8.2001,8.132,7.9993,8.0735,7.9444,7.7414,7.8155,7.7843,7.7375,7.9131,7.9717,8.0029,8.1786,8.2293,8.2293,8.2293,8.2241,8.2183,8.2205,8.2138,8.2106,8.2083,8.211,8.2104,8.2104,8.2104,8.2122,8.2177,8.2133,8.2133,8.2171,8.2201,8.2192,8.2187,8.2162,8.2179,8.2187,8.2187,8.2234,8.229,8.2293,8.2293,8.2293,8.2293,8.2293,8.2293,8.2293,8.2299,8.2313,8.2157,8.2079,8.2081,8.1922,8.1837,8.1864,8.1864,8.1864,8.1825,8.1122,8.0771,5.6563,5.6263,5.608,5.6514,5.6288,5.6327,5.7617,5.8503,5.9341,6.0217,6.1054,6.1813,6.2301,6.3062,6.393,6.4828,6.6014,6.7264,6.8549,6.9083,6.9652,7.0545,7.0621,7.1128,7.2495,7.2625,7.333,7.4996,7.5548,7.6173,7.7062,7.7101,7.7296,7.7726,7.8155,7.8585,7.9014,8.0341,8.0771,8.0381,8.1209,8.1407,8.1019,8.0953,8.0957,8.0957,8.0957,8.0728,8.0346,8.0781,8.0975,8.105,8.1451,8.1128,8.0431,8.0852,7.9639,7.7843,7.8233,7.7843,7.7375,7.9131,7.9717,8.0029,8.1786,8.2293,8.2293,8.2293,8.2234,8.2205,8.2196,8.2162,8.2089,8.211,8.2104,8.2104,8.2104,8.2104,8.2128,8.2182,8.2182,8.2148,8.2183,8.2218,8.221,8.221,8.2218,8.2191,8.2241,8.2241,8.2245,8.229,8.2293,8.2293,8.2293,8.2293,8.2293,8.2293,8.2293,8.2299,8.2313,8.2308,8.2308,8.2313,8.2308,8.2299,8.2293,8.2293,8.2293,8.2293,8.1864,8.1669,5.7361,5.6821,5.6125,5.6517,5.6171,5.6131,5.7576,5.8381,5.9104,6.0171,6.1091,6.1894,6.2576,6.3017,6.3726,6.5093,6.5617,6.6367,6.7889,6.8114,6.8412,6.9296,6.9535,7.0199,7.1597,7.2045,7.283,7.414,7.5204,7.6178,7.7062,7.7101,7.7101,7.7101,7.7765,7.8116,7.8116,7.9678,8.0537,8.0732,8.0927,8.1089,8.1256,8.0361,7.9977,7.9984,7.9791,7.9601,7.9451,7.9608,8.0113,8.0736,8.0944,8.0897,8.071,8.0738,7.96,7.8116,7.8116,7.7687,7.7375,7.9125,7.9711,8.0023,8.1783,8.229,8.2287,8.229,8.2265,8.2192,8.2192,8.2151,8.2104,8.2104,8.2104,8.2104,8.2104,8.2104,8.2128,8.2182,8.2187,8.2192,8.2183,8.2187,8.2187,8.2187,8.2191,8.2237,8.229,8.2293,8.2293,8.2293,8.2293,8.2293,8.2293,8.2293,8.2293,8.2293,8.2293,8.2299,8.2313,8.2305,8.2302,8.2313,8.2302,8.2296,8.2293,8.2293,8.2293,8.2293,8.2293,8.2293,5.6676,5.5504,5.4607,5.6208,5.4805,5.3905,5.7146,5.7908,5.839,6.0054,6.1047,6.1648,6.1793,6.3125,6.4221,6.4377,6.5695,6.7031,6.7969,6.8095,6.8405,6.9291,7.0024,7.0567,7.0813,7.2234,7.3256,7.3412,7.4896,7.6178,7.7062,7.7101,7.7101,7.7101,7.7179,7.7218,7.7218,7.8155,7.9053,7.9834,8.0615,8.1396,8.214,8.1295,8.0871,8.0834,8.0023,7.925,7.8591,7.9374,7.976,7.991,8.0707,8.0537,7.9837,7.9834,7.8702,7.7218,7.7218,7.7179,7.7372,7.9111,7.9693,8.0045,8.1779,8.2241,8.2234,8.2287,8.2265,8.2192,8.2192,8.2151,8.2104,8.2104,8.2104,8.2104,8.2104,8.2104,8.2128,8.2182,8.2133,8.2133,8.2179,8.2187,8.2187,8.2187,8.2241,8.229,8.2293,8.2293,8.2293,8.2293,8.2293,8.2293,8.2293,8.2293,8.2293,8.2293,8.2293,8.2299,8.2313,8.2313,8.2313,8.2313,8.2313,8.2305,8.2293,8.2293,8.2293,8.2293,8.2293,8.2293,5.6406,5.5312,5.4177,5.4843,5.4256,5.4248,5.7178,5.7812,5.8439,6.0695,6.1423,6.1605,6.1705,6.2705,6.3691,6.4193,6.5305,6.6367,6.7187,6.7333,6.7436,6.7783,6.8598,6.9535,7.0601,7.1817,7.2953,7.4007,7.4705,7.5441,7.6256,7.6795,7.7101,7.7101,7.7101,7.7101,7.7101,7.796,7.8585,7.8936,7.9795,8.042,8.0693,7.984,7.9458,7.9426,7.9086,7.8468,7.7732,7.8552,7.9248,7.9713,8.008,8.0029,7.9717,7.9717,7.8585,7.7101,7.7101,7.7101,7.7372,7.9147,7.9682,7.9986,8.1723,8.2241,8.2284,8.229,8.2265,8.2192,8.2192,8.2151,8.2104,8.2104,8.2104,8.2104,8.2104,8.2104,8.2128,8.2182,8.2182,8.2192,8.2237,8.2245,8.2245,8.2245,8.2287,8.2293,8.2293,8.2293,8.2293,8.2293,8.2293,8.2293,8.2293,8.2293,8.2293,8.2293,8.2293,8.2296,8.2302,8.2302,8.2302,8.2302,8.2302,8.2302,8.2305,8.2305,8.231,8.232,8.232,8.232,5.7061,5.6209,5.5195,5.5429,5.5151,5.5453,5.7988,5.8384,5.8854,6.1225,6.1648,6.1602,6.1696,6.2631,6.3584,6.4202,6.5231,6.6132,6.6715,6.7022,6.7093,6.6848,6.8021,6.9158,6.9864,7.0963,7.2333,7.4093,7.4439,7.4865,7.5412,7.6497,7.711,7.7101,7.7101,7.7101,7.7101,7.7726,7.8155,7.839,7.9014,7.9444,7.9678,7.8786,7.8401,7.8406,7.8385,7.7923,7.7223,7.8044,7.8777,7.9322,7.9611,7.9522,7.9366,7.96,7.8585,7.714,7.7414,7.7492,7.7723,7.9229,7.9838,8.0224,8.1442,8.1992,8.223,8.2277,8.2214,8.2177,8.2172,8.214,8.2104,8.2104,8.2104,8.2104,8.2104,8.2104,8.2122,8.2172,8.2182,8.2196,8.2273,8.228,8.2284,8.2284,8.229,8.2293,8.2293,8.2293,8.2293,8.2293,8.2293,8.2293,8.2293,8.2293,8.2293,8.2293,8.2293,8.2293,8.2293,8.2293,8.2293,8.2293,8.2293,8.2299,8.2308,8.2308,8.2313,8.2283,8.2283,8.2283,5.8827,5.8416,5.7959,5.8818,5.7802,5.7254,5.9786,5.9717,5.957,6.1345,6.1648,6.1602,6.1696,6.3139,6.4287,6.4287,6.5703,6.6787,6.6787,6.7542,6.7754,6.6912,6.9071,7.0011,6.8279,6.9706,7.1437,7.3199,7.4098,7.4606,7.4606,7.6203,7.7089,7.7101,7.7101,7.7101,7.7101,7.7101,7.7531,7.839,7.839,7.8858,7.9678,7.8794,7.8403,7.8392,7.8388,7.7924,7.7178,7.8044,7.8425,7.8502,7.9377,7.917,7.8507,7.9366,7.8585,7.7218,7.8077,7.839,7.8543,7.9424,8.0289,8.0963,8.0946,8.1455,8.2123,8.2187,8.2133,8.2106,8.2116,8.211,8.2104,8.2104,8.2104,8.2104,8.2104,8.2104,8.2116,8.2106,8.2112,8.2123,8.2187,8.2214,8.2187,8.2187,8.2241,8.2293,8.2293,8.2293,8.2293,8.2293,8.2293,8.2293,8.2293,8.2293,8.2293,8.2293,8.2293,8.2293,8.2293,8.2293,8.2293,8.2293,8.2293,8.2293,8.2293,8.2293,8.2293,8.2293,8.2293,8.2293,5.7006,5.665,5.6248,5.7109,5.6916,5.7035,5.907,5.9274,5.9556,6.1342,6.1648,6.1602,6.1696,6.2631,6.3625,6.4215,6.5234,6.6164,6.6701,6.7088,6.7162,6.6846,6.858,6.9834,6.9866,7.0893,7.1834,7.238,7.3786,7.484,7.5465,7.6516,7.7093,7.7117,7.7117,7.7112,7.7101,7.7101,7.7257,7.7531,7.8116,7.8551,7.8794,7.8534,7.8383,7.8388,7.8398,7.7929,7.7187,7.8036,7.8417,7.8413,7.871,7.8624,7.8429,7.8702,7.8077,7.7218,7.8116,7.839,7.8624,8.0048,8.0318,8.0321,8.1429,8.198,8.2222,8.2201,8.2187,8.2172,8.2122,8.2104,8.2104,8.2104,8.2104,8.2104,8.2104,8.2104,8.2116,8.2106,8.2112,8.2123,8.2187,8.2196,8.2205,8.2205,8.221,8.2218,8.2234,8.2234,8.2241,8.229,8.2293,8.2293,8.2293,8.2293,8.2293,8.2293,8.2293,8.2293,8.2293,8.2293,8.2293,8.2293,8.2293,8.2296,8.2308,8.2308,8.2313,8.2283,8.2283,8.2283,5.741,5.7502,5.7343,5.8201,5.8451,5.8741,5.9837,6.0057,6.0357,6.1468,6.1666,6.1668,6.1681,6.268,6.3669,6.4218,6.5273,6.6244,6.6737,6.7406,6.8074,6.8698,6.8543,6.9131,7.1011,7.109,7.1287,7.1952,7.3592,7.4686,7.4921,7.6013,7.6517,7.6157,7.6778,7.7087,7.7117,7.7112,7.7112,7.7117,7.7659,7.7898,7.7909,7.7957,7.7923,7.7925,7.8242,7.7928,0.0,7.8036,7.8221,7.7946,7.8286,7.82,7.796,7.8272,7.7843,7.7257,7.8468,7.8897,7.9131,8.0485,8.0595,8.0427,8.1781,8.2214,8.2218,8.2187,8.2172,8.2156,8.2116,8.2104,8.2104,8.2104,8.2104,8.2104,8.2104,8.2104,8.211,8.2095,8.2095,8.2101,8.2162,8.2172,8.2177,8.2177,8.2187,8.2196,8.2214,8.2183,8.223,8.2241,8.229,8.2293,8.2293,8.2293,8.2293,8.2293,8.2293,8.2293,8.2293,8.2293,8.2293,8.2293,8.2293,8.2296,8.2308,8.2308,8.231,8.2281,8.2285,8.2285,0.0,6.0161,6.0434,6.1365,6.1644,6.1674,6.1705,6.171,0.0,6.1681,6.169,6.1699,6.1707,6.308,6.4218,6.4295,6.5661,6.6753,6.6815,6.8188,6.9835,7.152,6.8927,6.8261,7.1484,7.0461,7.0264,7.1875,7.3555,7.418,7.3437,7.4922,7.5429,7.4645,7.6126,7.6943,7.7021,7.705,7.7089,7.7097,7.7089,7.7091,7.7099,7.7183,7.7144,7.7141,7.789,7.7812,7.7264,7.7925,7.7761,7.7174,7.7983,7.7815,7.7218,7.7999,7.7804,7.7335,7.9014,7.9639,7.9834,8.0693,8.0992,8.1133,8.1871,8.2114,8.2117,8.2112,8.2095,8.211,8.211,8.2104,8.2104,8.2104,8.2104,8.2104,8.2104,8.2104,8.2104,8.2104,8.2104,8.2104,8.2182,8.2128,8.2112,8.219,8.2172,8.2187,8.2187,8.221,8.2183,8.2187,8.2245,8.2293,8.2293,8.2293,8.2293,8.2293,8.2293,8.2293,8.2293,8.2293,8.2293,8.2293,8.2293,8.2293,8.2293,8.2293,8.2293,8.2293,8.2308,8.2308,5.8752,0.0,5.9586,6.114,6.1576,6.1657,0.0,6.1718,6.171,6.169,6.1683,6.1718,6.1697,6.2596,6.35,6.4179,6.5195,6.6093,6.6787,6.7215,6.788,6.8898,6.8898,6.9092,6.9947,7.0855,7.156,7.1987,7.3007,7.3828,7.4258,7.4687,7.4804,7.4609,7.496,7.5505,7.616,7.6783,7.7096,7.7099,7.7096,7.7138,7.7183,7.7148,7.7148,7.7148,7.663,7.6663,7.7096,7.6614,7.6683,7.7112,7.7341,7.7299,7.7101,7.7335,7.7296,7.7257,7.8311,7.9131,7.9831,8.0676,8.1371,8.1793,8.1347,8.1646,8.2177,8.2117,8.2106,8.2095,8.211,8.2104,8.2104,8.2104,8.2104,8.2104,8.2104,8.2104,8.2104,8.2104,8.2104,8.2299,8.2961,8.2539,8.2311,8.2974,8.2551,8.214,8.2123,8.2187,8.2205,8.2183,8.2245,8.2293,8.2293,8.2293,8.2293,8.2293,8.2293,8.2293,8.2293,8.2293,8.2293,8.2293,8.2293,8.2293,8.2293,8.2293,8.2293,8.2293,8.2308,8.2318,5.8453,5.914,5.9822,6.1173,6.1543,6.1595,6.1637,6.1676,6.1715,6.1699,6.1696,6.1809,6.2214,6.2991,6.3892,6.4765,6.5624,6.6484,6.7381,6.7143,6.7377,6.859,6.8785,6.9135,6.9915,7.0856,7.156,7.1989,7.2812,7.332,7.3398,7.3789,7.3828,7.3437,7.3789,7.4609,7.5895,7.6322,7.6752,7.7145,7.7143,7.7145,7.7187,7.7148,7.7187,7.7147,7.6242,7.6354,7.7096,7.6228,7.6571,7.7656,7.7268,7.7341,7.7648,7.7257,7.7101,7.7218,7.8116,7.9248,8.0416,8.1219,8.1555,8.1581,8.148,8.1499,8.1644,8.1995,8.2106,8.2089,8.211,8.2104,8.2104,8.2104,8.2104,8.2104,8.2104,8.2104,8.2104,8.2104,8.2104,8.2377,8.3234,8.3,8.2844,8.3312,8.3,8.2539,8.2167,8.2167,8.2196,8.221,8.2277,8.2293,8.2293,8.2293,8.2293,8.2293,8.2293,8.2293,8.2293,8.2293,8.2293,8.2293,8.2293,8.2293,8.2293,8.2293,8.2296,8.2302,8.2318,8.2287,5.8389,5.9503,6.0406,6.1295,6.1549,6.1615,6.1615,6.1671,6.1683,6.1704,6.1824,6.2138,6.2847,6.3821,6.4759,6.5468,6.6327,6.7147,6.789,6.7499,6.7655,6.9101,6.8707,6.894,7.0546,7.07,7.105,7.1914,7.2695,7.2773,7.2031,7.2695,7.2773,7.2031,7.2734,7.3867,7.5508,7.578,7.6288,7.6992,7.6991,7.7069,7.7187,7.707,7.707,7.7148,7.6287,7.6402,7.7145,7.624,7.6816,7.8137,7.7393,7.7542,7.8116,7.7375,7.7101,7.7218,7.8116,7.9444,8.0921,8.1719,8.1425,8.0895,8.1805,8.1505,8.098,8.1867,8.2089,8.2104,8.2104,8.2104,8.2104,8.2104,8.2104,8.2104,8.2104,8.2104,8.2104,8.2104,8.2104,8.2416,8.3429,8.3507,8.3429,8.3585,8.3507,8.3078,8.2221,8.2156,8.2187,8.2187,8.2226,8.229,8.229,8.229,8.2293,8.2293,8.2293,8.2293,8.2293,8.2293,8.2293,8.2293,8.2293,8.2293,8.2293,8.2296,8.2302,8.2315,8.2289,8.2295,5.8616,5.9532,6.0394,6.1289,6.1564,6.1615,6.1668,6.171,6.171,6.1696,6.2279,6.2824,6.2997,6.4322,6.5456,6.5586,6.6328,6.6953,6.7069,6.7616,6.8085,6.8274,6.8904,6.9647,7.0619,7.0701,7.1054,7.1912,7.2109,7.2148,7.199,7.2148,7.2148,7.1984,7.2145,7.2694,7.3709,7.5156,7.5976,7.6094,7.6094,7.6484,7.7187,7.6445,7.6484,7.7148,7.6284,7.64,7.7145,7.6187,7.6412,7.7278,7.7149,7.7182,7.7296,7.714,7.7101,7.7218,7.8116,7.9044,8.0041,8.0835,8.0505,8.009,8.1616,8.1487,8.0974,8.1837,8.211,8.2104,8.2104,8.2104,8.2104,8.2104,8.2104,8.2104,8.2104,8.2104,8.2104,8.2104,8.2104,8.2611,8.4208,8.3897,8.3663,8.4403,8.3858,8.3078,8.2221,8.2101,8.2117,8.2117,8.2166,8.223,8.223,8.2284,8.2293,8.2293,8.2293,8.2293,8.2293,8.2293,8.2293,8.2293,8.2293,8.2293,8.2293,8.2305,8.2313,8.2315,8.2295,8.2301,5.8518,5.9232,5.9859,6.1237,6.1591,6.1591,6.1624,6.2056,6.241,6.2397,6.3099,6.3841,6.4319,6.5067,6.5737,6.6211,6.664,6.6914,6.6914,6.7656,6.8203,6.8162,6.8906,6.9609,6.9959,7.0429,7.0859,7.1289,7.1718,7.199,7.1986,7.1988,7.1987,7.1981,7.1987,7.2185,7.2575,7.3867,7.4961,7.5898,7.5898,7.6094,7.6484,7.5586,7.5664,7.6445,7.5585,7.5973,7.7145,7.6238,7.662,7.7747,7.7271,7.7383,7.7765,7.7257,7.7101,7.7218,7.8107,7.8643,7.9139,7.992,7.9627,7.9221,8.0908,8.0779,8.0389,8.1714,8.2104,8.2104,8.2104,8.2104,8.2104,8.2104,8.2104,8.2104,8.2104,8.2104,8.2104,8.2104,8.2104,8.2494,8.378,8.4052,8.4247,8.4637,8.4754,8.4481,8.3624,8.3109,8.2814,8.2814,8.2421,8.2214,8.2187,8.2234,8.2245,8.2293,8.2293,8.2293,8.2293,8.2293,8.2293,8.2293,8.2293,8.2293,8.2293,8.2299,8.231,8.2285,8.2295,8.2301,5.8414,5.8971,5.9406,6.1144,6.1603,6.1595,6.1621,6.2329,6.3001,6.2984,6.3849,6.4825,6.5492,6.5776,6.6132,6.6797,6.707,6.7187,6.7187,6.8125,6.8789,6.8789,6.914,6.9492,6.9687,6.9961,7.0273,7.0662,7.1326,7.1792,7.1984,7.1984,7.1981,7.2017,7.1985,7.1988,7.1986,7.285,7.4062,7.5586,7.5586,7.5703,7.5859,7.5,7.4961,7.5547,7.4882,7.5466,7.6829,7.6162,7.6739,7.8015,7.7352,7.7503,7.7999,7.7333,7.7215,7.7489,7.7937,7.8199,7.8468,7.9091,7.8715,7.8314,8.0006,8.0033,7.9805,8.1364,8.1948,8.2104,8.2104,8.2098,8.2091,8.2091,8.2085,8.2085,8.2091,8.2091,8.2098,8.2104,8.2104,8.2377,8.3234,8.413,8.4715,8.4715,8.526,8.5377,8.452,8.3648,8.3114,8.3114,8.2557,8.2196,8.2183,8.2187,8.2234,8.229,8.2293,8.2293,8.2293,8.2293,8.2293,8.2293,8.2293,8.2293,8.2293,8.2296,8.231,8.2289,8.2292,8.2299,5.8443,5.8958,5.943,6.1166,6.1603,6.1619,6.1668,6.2381,6.3015,6.2994,6.4326,6.5539,6.5583,6.625,6.6834,6.6875,6.7577,6.8123,6.8125,6.9492,7.0508,7.0508,6.9844,6.9726,7.0547,6.9258,6.9023,7.0586,7.0741,7.1169,7.195,7.1989,7.1985,7.2008,7.2016,7.2017,7.2008,7.2876,7.3785,7.4687,7.4687,7.5117,7.5859,7.5,7.4648,7.4685,7.4557,7.5056,7.5911,7.5846,7.635,7.7179,7.7101,7.714,7.7176,7.7121,7.7596,7.8191,7.7376,7.7632,7.833,7.8379,7.7807,7.7389,7.9104,7.9571,7.9688,8.0623,8.1481,8.2104,8.2104,8.2039,8.2012,8.2012,8.2022,8.2007,8.2005,8.2012,8.2026,8.2098,8.2104,8.2377,8.3234,8.413,8.4715,8.4715,8.4754,8.4481,8.3624,8.2734,8.2188,8.2188,8.214,8.2138,8.2183,8.2187,8.2234,8.229,8.2293,8.2293,8.2293,8.2293,8.2293,8.2293,8.2293,8.2293,8.2293,8.2308,8.2313,8.2315,8.2289,8.2296,5.8448,5.8934,5.9416,6.1151,6.2031,6.2323,6.1832,6.2779,6.3648,6.3113,6.4407,6.5583,6.5585,6.6328,6.6914,6.6914,6.7617,6.8203,6.8203,6.9648,7.0508,7.0,6.9648,6.9336,6.914,6.8555,6.8672,6.9803,7.0386,7.1084,7.1939,7.2012,7.2004,7.1995,7.2006,7.201,7.2006,7.2328,7.2921,7.3785,7.4335,7.4492,7.4253,7.3944,7.3785,7.3775,7.3768,7.423,7.504,7.5576,7.5996,7.6344,7.6841,7.7028,7.7028,7.7059,7.7259,7.7493,7.7112,7.7204,7.7495,7.7428,7.7196,7.7131,7.8299,7.9059,7.9656,8.0486,8.1357,8.2039,8.2098,8.2039,8.2005,8.2005,8.2022,8.1991,8.2007,8.2014,8.2014,8.2036,8.2058,8.2149,8.2461,8.3299,8.3897,8.3897,8.4364,8.4559,8.4247,8.3429,8.2922,8.2922,8.2463,8.2187,8.2205,8.223,8.2287,8.2293,8.2293,8.2293,8.2293,8.2245,8.2241,8.2293,8.2245,8.2241,8.2293,8.2299,8.2305,8.2315,8.2281,8.2289,5.8553,5.9187,5.9779,6.1254,6.2098,6.2425,6.185,6.3263,6.4442,6.3588,6.4568,6.5663,6.5976,6.6484,6.6914,6.6914,6.7851,6.8593,6.8594,7.0039,7.0898,7.0351,6.9765,6.9219,6.8672,6.8125,6.8242,6.9333,6.9953,7.0806,7.1932,7.2,7.1995,7.2,7.2004,7.2006,7.2006,7.201,7.2284,7.2868,7.347,7.3745,7.37,7.3704,7.37,7.3642,7.3403,7.3702,7.4503,7.4854,7.5319,7.5893,7.67,7.6999,7.6995,7.6985,7.698,7.6975,7.6978,7.6954,7.6975,7.6904,7.6915,7.701,7.7555,7.855,7.9577,8.0139,8.1119,8.1998,8.2065,8.2005,8.1975,8.1975,8.1983,8.1951,8.1967,8.1967,8.1975,8.1983,8.1983,8.2005,8.199,8.2773,8.339,8.3377,8.389,8.4286,8.4286,8.3546,8.3,8.3,8.2496,8.2172,8.2177,8.221,8.2269,8.2277,8.2277,8.228,8.2284,8.2234,8.2234,8.2284,8.2237,8.2241,8.2293,8.2293,8.2299,8.2308,8.2308,8.2315,5.8758,5.9638,6.0527,6.1473,6.1718,6.1729,6.1714,6.3709,6.535,6.4492,6.5,6.5859,6.6719,6.6874,6.6912,6.6914,6.832,6.9412,6.9492,7.0937,7.1992,7.1992,7.0508,6.9492,6.9492,6.793,6.7578,6.9255,6.9406,7.0144,7.1902,7.2012,7.201,7.2019,7.201,7.2006,7.2006,7.1995,7.1982,7.1888,7.1958,7.291,7.4559,7.4559,7.4549,7.4447,7.3569,7.3653,7.4309,7.3534,7.4216,7.5877,7.6691,7.699,7.6999,7.7011,7.696,7.6909,7.6883,7.6915,7.6904,7.6908,7.6894,7.6894,7.6894,7.8061,7.9384,7.9423,8.0668,8.1991,8.1991,8.1959,8.1887,8.1887,8.189,8.1902,8.1917,8.1887,8.1934,8.1983,8.1983,8.1998,8.1999,8.2759,8.3338,8.3304,8.3331,8.339,8.339,8.2611,8.2104,8.2104,8.2104,8.2083,8.2112,8.2112,8.2128,8.2192,8.2192,8.2201,8.2187,8.2187,8.2187,8.2187,8.2284,8.2293,8.2293,8.2293,8.2293,8.2293,8.2293,8.2299,5.8763,5.9229,5.9817,6.1322,6.216,6.2604,6.2614,6.3709,6.4804,6.5155,6.5429,6.5664,6.5936,6.6484,6.6914,6.6914,6.7812,6.8789,6.9414,7.043,7.1094,7.1093,7.0156,6.9258,6.8632,6.7577,6.7342,6.8474,6.909,6.9902,7.1036,7.1687,7.1995,7.2,7.1995,7.1993,7.1993,7.194,7.193,7.1884,7.1924,7.2197,7.2711,7.2732,7.272,7.2669,7.2392,7.2408,7.2607,7.2963,7.4177,7.5741,7.5975,7.6476,7.7011,7.6936,7.6923,7.6917,7.6915,7.6886,7.6825,7.6817,7.6793,7.6885,7.7507,7.8465,7.9531,8.0081,8.1062,8.1934,8.1947,8.1863,8.1844,8.1908,8.189,8.1902,8.1911,8.1911,8.192,8.1929,8.1934,8.192,8.1943,8.2186,8.2411,8.2404,8.2411,8.2426,8.2415,8.2247,8.2104,8.2104,8.2089,8.2106,8.2112,8.2133,8.2182,8.2192,8.2177,8.2148,8.2187,8.221,8.2218,8.2284,8.2237,8.2241,8.2293,8.2293,8.2293,8.2293,8.2293,8.2296,5.88,5.93,5.9956,6.1338,6.2096,6.2652,6.3359,6.3906,6.4648,6.5859,6.5859,6.5702,6.6054,6.6562,6.6914,6.6914,6.7617,6.8398,6.8906,6.9687,7.0194,7.0233,6.9451,6.8748,6.8239,6.7418,6.726,6.8117,6.8613,6.9421,7.0626,7.0847,7.1231,7.194,7.1621,7.1621,7.1979,7.1916,7.1901,7.1901,7.1534,7.156,7.1867,7.2303,7.2647,7.2871,7.255,7.2145,7.1856,7.2752,7.3726,7.4739,7.5441,7.6019,7.6469,7.6787,7.6876,7.6862,7.6817,7.6785,7.6768,7.6768,7.6976,7.7308,7.7852,7.888,7.9986,8.0464,8.1212,8.189,8.1902,8.1873,8.1854,8.1863,8.1844,8.1864,8.1864,8.1883,8.1892,8.1892,8.189,8.1917,8.1899,8.1951,8.1983,8.1967,8.1991,8.1983,8.2005,8.2046,8.2104,8.2104,8.2083,8.2095,8.2095,8.2151,8.2162,8.2162,8.2106,8.2117,8.2157,8.2196,8.2205,8.2269,8.2234,8.2245,8.2293,8.2293,8.2293,8.2293,8.2293,8.2293,5.8649,5.9566,6.0477,6.1355,6.1714,6.2265,6.3905,6.4372,6.4881,6.6562,6.6287,6.5974,6.6757,6.6914,6.6914,6.6914,6.7578,6.8125,6.8203,6.8827,6.9334,6.9453,6.8668,6.8117,6.8199,6.7414,6.7173,6.7943,6.8049,6.8778,7.0359,6.972,7.0033,7.1611,7.0891,7.0852,7.165,7.1647,7.1663,7.1658,7.0834,7.0897,7.1694,7.2574,7.3402,7.4119,7.3308,7.2518,7.1856,7.2635,7.3064,7.3375,7.4973,7.5657,7.582,7.6604,7.6871,7.6793,7.6743,7.6764,7.6842,7.6842,7.7425,7.8124,7.8202,7.9328,8.061,8.0688,8.131,8.1892,8.1892,8.1892,8.1873,8.1824,8.1814,8.1824,8.1824,8.1864,8.1892,8.1892,8.189,8.1908,8.1902,8.1964,8.1967,8.1926,8.1952,8.2005,8.1998,8.2039,8.2104,8.2104,8.2104,8.2104,8.2104,8.2104,8.2104,8.2104,8.2104,8.2083,8.2106,8.2177,8.2192,8.2192,8.2273,8.229,8.229,8.229,8.2293,8.2293,8.2293,8.2293,5.7026,5.8172,5.959,6.0463,6.1718,6.3008,6.4062,6.4843,6.562,6.6628,6.6707,6.6672,6.6868,6.6911,6.6913,6.6914,6.707,6.7422,6.8084,6.8357,6.8706,6.9322,6.8621,6.8113,6.8109,6.7324,6.6889,6.7073,6.7724,6.8252,6.8628,6.9089,6.9479,6.9834,6.9674,6.9674,6.9873,6.9848,6.986,6.984,6.9624,6.9946,7.0778,7.1053,7.1614,7.2334,7.2173,7.1973,7.1817,7.2011,7.2908,7.4155,7.4544,7.5513,7.6709,7.6833,7.6876,7.6879,7.6793,7.7179,7.7736,7.7736,7.8318,7.9134,7.9834,8.03,8.0727,8.1426,8.1776,8.1892,8.1892,8.1864,8.1786,8.1723,8.1814,8.1873,8.1873,8.1883,8.1892,8.1892,8.1902,8.1902,8.1892,8.1911,8.192,8.1911,8.1951,8.1991,8.192,8.2051,8.2098,8.2026,8.2091,8.2104,8.2104,8.2104,8.2104,8.2104,8.2104,8.211,8.2116,8.2106,8.2133,8.2192,8.2218,8.2234,8.2234,8.2287,8.2293,8.2293,8.2293,8.2293,5.6413,5.7519,5.8818,6.0076,6.2031,6.3632,6.3671,6.4997,6.6203,6.6234,6.6591,6.6908,6.6911,6.6912,6.6914,6.6914,6.6914,6.707,6.7498,6.7574,6.7726,6.8148,6.7754,6.7477,6.7477,6.708,6.6802,6.6798,6.7205,6.7653,6.807,6.805,6.8431,6.9289,6.8899,6.8899,6.9289,6.9265,6.9245,6.9268,6.9233,6.9442,6.9896,7.0775,7.1388,7.1817,7.18,7.1806,7.1817,7.18,7.2585,7.3804,7.4233,7.5207,7.6409,7.6768,7.6883,7.6894,7.6809,7.7032,7.7464,7.7852,7.859,7.9445,8.0339,8.0882,8.131,8.1776,8.1892,8.1892,8.1864,8.1854,8.1834,8.1713,8.1745,8.1814,8.1745,8.1824,8.1854,8.1854,8.1873,8.1892,8.1892,8.1892,8.1892,8.1892,8.1973,8.1983,8.1959,8.199,8.2039,8.2039,8.2039,8.2085,8.2104,8.2104,8.2104,8.2104,8.2104,8.2104,8.2104,8.2083,8.2106,8.2133,8.2171,8.2187,8.2187,8.2284,8.2293,8.2293,8.2293,8.2293,5.5913,5.702,5.8355,6.0156,6.2343,6.3904,6.3162,6.5034,6.6632,6.5773,6.6283,6.6911,6.6914,6.6914,6.6914,6.6914,6.6914,6.6914,6.6911,6.6906,6.6902,6.686,6.6848,6.68,6.6809,6.68,6.6792,6.679,6.6798,6.7087,6.7824,6.7121,6.7369,6.8811,6.8143,6.8104,6.885,6.8789,6.8777,6.8777,6.8897,6.9001,6.904,7.0616,7.1426,7.1566,7.1731,7.1776,7.1806,7.1815,7.2411,7.3414,7.4116,7.5006,7.5974,7.6644,7.6883,7.6879,7.6809,7.6838,7.7075,7.793,7.8823,7.9678,8.0572,8.13,8.1864,8.1864,8.1854,8.1834,8.1775,8.1824,8.1834,8.1713,8.1691,8.1669,8.1635,8.1702,8.1765,8.1765,8.1844,8.1883,8.1892,8.1892,8.1892,8.1892,8.1973,8.1983,8.1975,8.199,8.2026,8.2085,8.2033,8.2033,8.2098,8.2104,8.2104,8.2104,8.2104,8.2104,8.2104,8.2104,8.2116,8.2106,8.2153,8.2175,8.2175,8.2237,8.2287,8.2287,8.2287,8.2287,5.4128,5.6091,5.8476,6.0936,6.2344,6.3123,6.3047,6.5038,6.6638,6.5781,6.6286,6.6906,6.6911,6.6912,6.6912,6.6914,6.6914,6.6913,6.6906,6.6904,6.6898,6.6805,6.6798,6.6798,6.6798,6.6784,6.6808,6.6794,6.6767,6.6746,6.6878,6.6774,6.6797,6.7031,6.6885,6.6885,6.7069,6.7025,6.7025,6.7025,6.7723,6.806,6.8106,6.9117,6.9974,7.0726,7.1414,7.1745,7.1815,7.1809,7.2762,7.4233,7.435,7.5345,7.6755,7.6871,7.6862,7.6801,7.6793,7.7265,7.7969,7.8823,7.9717,8.061,8.1465,8.1718,8.1713,8.1713,8.1646,8.1589,8.168,8.168,8.1646,8.1691,8.1658,8.1635,8.1669,8.1691,8.1702,8.1702,8.1755,8.1844,8.1883,8.1892,8.1892,8.1892,8.1973,8.1975,8.1934,8.1998,8.2078,8.2014,8.2065,8.2085,8.2019,8.2085,8.2104,8.2104,8.2104,8.2104,8.2104,8.2104,8.211,8.211,8.2106,8.2123,8.2123,8.2171,8.2191,8.2191,8.2191,8.2191,5.4363,5.5935,5.7577,5.9179,6.0937,6.2264,6.2265,6.4297,6.6053,6.5664,6.6289,6.6914,6.6914,6.6913,6.6912,6.6911,6.6911,6.6908,6.6859,6.6857,6.6811,6.6787,6.6784,6.682,6.6811,6.6801,6.6794,6.6783,6.6724,6.6707,6.6693,6.6696,6.6713,6.6713,6.6639,6.6594,6.6645,6.6627,6.6646,6.6588,6.6956,6.7104,6.7143,6.8037,6.9194,7.0518,7.0841,7.1276,7.1738,7.1738,7.2491,7.3678,7.4182,7.5138,7.6222,7.6702,7.6862,7.6793,7.6793,7.7024,7.7427,7.8271,7.9078,7.9862,8.0785,8.1303,8.16,8.16,8.1553,8.1516,8.1528,8.1541,8.1541,8.1491,8.1491,8.1516,8.1577,8.1646,8.1713,8.1814,8.1844,8.1864,8.1892,8.1892,8.1902,8.189,8.1951,8.1991,8.196,8.2005,8.2033,8.2058,8.2065,8.2039,8.2039,8.2098,8.2104,8.2104,8.2104,8.2104,8.2104,8.2104,8.2104,8.2104,8.2101,8.2112,8.2112,8.2153,8.221,8.2205,8.2153,8.2148,5.4554,5.5619,5.6522,5.7617,5.9492,6.1171,6.1601,6.3555,6.5312,6.5545,6.6286,6.6909,6.6869,6.6905,6.6904,6.6904,6.6904,6.6862,6.6813,6.6809,6.68,6.6814,6.6808,6.6801,6.6783,6.6779,6.6775,6.6775,6.6716,6.6697,6.6693,6.6686,6.6657,6.669,6.6614,6.6562,6.6607,6.6594,6.6574,6.6553,6.6546,6.6538,6.6538,6.7192,6.8334,6.9802,7.0215,7.0735,7.1393,7.1626,7.2217,7.3087,7.3762,7.4678,7.5634,7.6264,7.6615,7.6734,7.6717,7.6662,7.6797,7.7885,7.8589,7.9188,8.0318,8.1062,8.1453,8.1453,8.1427,8.14,8.1374,8.14,8.1414,8.1333,8.1347,8.1387,8.1478,8.16,8.1723,8.1854,8.1873,8.1883,8.1892,8.1892,8.1911,8.1917,8.1959,8.2007,8.2005,8.2019,8.2033,8.2052,8.2039,8.2033,8.2052,8.2104,8.2104,8.2104,8.2104,8.2104,8.2104,8.2104,8.2104,8.2104,8.2089,8.2101,8.2101,8.2133,8.2177,8.2172,8.2112,8.2095,5.3838,5.4715,5.5779,5.7493,5.8553,5.9687,6.1328,6.3086,6.4609,6.5428,6.6283,6.6862,6.6815,6.6859,6.6904,6.6904,6.6904,6.6862,6.6813,6.6805,6.6792,6.6814,6.6798,6.6783,6.6783,6.6724,6.6711,6.6711,6.6688,6.6702,6.6719,6.6645,6.6607,6.6613,6.6538,6.6531,6.6613,6.6601,6.6633,6.6702,6.6633,6.6581,6.6614,6.662,6.7052,6.7829,6.9545,7.0378,7.0533,7.135,7.2188,7.3002,7.3041,7.407,7.5502,7.5417,7.5896,7.6573,7.6466,7.6421,7.6692,7.8317,7.8885,7.9221,8.0936,8.1388,8.1305,8.1305,8.1229,8.1154,8.1263,8.1249,8.1273,8.136,8.1347,8.1333,8.1466,8.16,8.1713,8.1775,8.1824,8.1834,8.1883,8.1892,8.1911,8.1917,8.1959,8.2007,8.2005,8.2039,8.2052,8.2019,8.2046,8.2052,8.2012,8.2046,8.2104,8.2104,8.2104,8.2104,8.2104,8.2104,8.2104,8.2104,8.211,8.211,8.211,8.2101,8.2101,8.211,8.211,8.2052,5.2946,5.3387,5.4057,5.5813,5.6873,5.7929,5.9642,6.1795,6.3711,6.4605,6.5889,6.6902,6.686,6.6854,6.6848,6.6848,6.6841,6.6834,6.679,6.6814,6.6794,6.6755,6.6746,6.6732,6.6756,6.6691,6.6402,6.5823,6.6312,6.6373,6.5836,6.6322,6.6581,6.6606,6.6531,6.6516,6.6531,6.6477,6.6477,6.6492,6.6493,6.6477,6.6477,6.6461,6.6566,6.6835,6.8034,6.9204,7.0305,7.0602,7.1264,7.2151,7.2656,7.354,7.4595,7.5071,7.5746,7.6455,7.6421,7.6374,7.6427,7.7082,7.7588,7.8141,7.9352,7.999,8.0438,8.103,8.1139,8.1108,8.1169,8.1154,8.1154,8.1214,8.1234,8.1305,8.136,8.1478,8.1612,8.1702,8.1723,8.1755,8.1883,8.1892,8.1911,8.1917,8.1878,8.1887,8.1928,8.192,8.1912,8.1856,8.1952,8.2029,8.2014,8.2071,8.2104,8.2104,8.2104,8.2104,8.2104,8.2104,8.2104,8.2104,8.2046,8.2046,8.2104,8.2052,8.2046,8.2033,8.1983,8.1952,5.1582,5.2057,5.2607,5.4052,5.5308,5.652,5.7959,5.9839,6.1599,6.2763,6.4362,6.5573,6.5604,6.6253,6.679,6.679,6.682,6.6811,6.6805,6.6779,6.675,6.6712,6.6691,6.6674,6.6657,6.6639,6.6354,6.577,6.6276,6.6335,6.5757,6.6295,6.6599,6.6585,6.6524,6.6508,6.6508,6.6422,6.6406,6.6422,6.6411,6.6394,6.6403,6.6367,6.6322,6.6254,6.6814,6.8044,6.9711,7.0011,7.0669,7.155,7.2093,7.2977,7.3992,7.4497,7.5368,7.6326,7.6288,7.6238,7.625,7.6598,7.6982,7.7603,7.8724,7.9206,7.9554,8.0439,8.0439,8.0208,8.0208,8.0439,8.0669,8.0669,8.0938,8.1205,8.1205,8.1374,8.1541,8.1624,8.1635,8.1658,8.1734,8.1765,8.1796,8.1805,8.1757,8.1805,8.186,8.1833,8.1815,8.1815,8.1869,8.1943,8.1943,8.196,8.1998,8.1998,8.1998,8.1998,8.1998,8.1998,8.1998,8.1998,8.1975,8.1975,8.1998,8.199,8.1983,8.1968,8.1912,8.1723,0.0,0.0,0.0,5.2405,5.3928,5.5416,5.6286,5.7182,5.8349,6.002,6.1741,6.295,6.2995,6.5055,6.6733,6.6733,6.6772,6.6805,6.6783,6.6741,6.6707,6.6707,6.6657,6.6581,6.6581,6.6581,6.6581,6.6543,6.6581,6.6601,6.6567,6.6567,6.6546,6.647,6.6508,6.6508,6.647,6.6422,6.6422,6.6501,6.642,6.6394,6.6389,6.6301,6.6205,6.6091,6.6024,6.6996,6.8728,6.9589,7.0479,7.1291,7.1291,7.2297,7.3744,7.3651,7.4681,7.6133,7.602,7.6015,7.613,7.6976,7.7246,7.7553,7.9246,7.9131,7.8631,7.9515,7.9131,7.8515,7.8515,7.9169,7.9823,7.9823,8.0477,8.1093,8.1093,8.1305,8.1504,8.1504,8.1504,8.1504,8.1504,8.1565,8.1585,8.1602,8.1656,8.1708,8.1805,8.1805,8.1805,8.1805,8.1805,8.1815,8.1815,8.1815,8.1815,8.1815,8.1815,8.1815,8.1815,8.1815,8.1815,8.1815,8.186,8.186,8.1815,8.1943,8.1967,8.1878,8.1878,8.1433,4.9073,0.0,0.0,0.0,0.0,0.0,5.3577,5.5418,5.7451,5.9123,6.084,6.2242,6.2803,6.4512,6.5627,6.4961,6.5901,6.672,6.6736,6.6707,6.6669,6.662,6.6594,6.6581,6.6581,6.656,6.6274,6.5613,6.6157,6.6252,6.5631,6.6198,6.6244,6.5576,6.6159,6.6182,6.5576,6.6109,6.6385,6.6367,6.6303,6.6215,6.6185,6.6165,6.6129,6.6017,6.5993,6.6598,6.7639,6.8583,6.991,7.128,7.119,7.181,7.2841,7.3355,7.4186,7.5187,7.5798,7.6015,7.6053,7.6284,7.6361,7.6553,7.7669,7.7823,7.7784,7.8631,7.8669,7.8631,7.9285,7.9631,7.9977,8.0592,8.0939,8.1093,8.1093,8.1169,8.122,8.1333,8.1347,8.1387,8.1491,8.1528,8.1565,8.1585,8.1562,8.1562,8.163,8.1596,8.1562,8.1562,8.1691,8.1745,8.1745,8.1776,8.1815,8.1815,8.1815,8.1815,8.1815,8.1815,8.1815,8.1815,8.1757,8.1738,8.1718,8.1824,8.1833,8.1738,8.1825,8.1407,0.0,0.0,0.0,0.0,0.0,0.0,5.1499,5.3069,5.4792,5.6146,5.7824,5.9148,5.9625,6.14,6.2508,6.1568,6.2834,6.446,6.5951,6.6462,6.6497,6.6086,6.6298,6.6508,6.654,6.6485,6.6252,6.5747,6.619,6.6268,6.5778,6.5872,6.5732,6.5219,6.5382,6.5204,6.4635,6.5407,6.577,6.5693,6.5989,6.6091,6.6058,6.6074,6.6029,6.5996,6.5972,6.6397,6.718,6.8103,6.9333,7.0667,7.094,7.1557,7.2392,7.3196,7.4014,7.4822,7.5707,7.5985,7.597,7.597,7.597,7.6124,7.697,7.6985,7.6938,7.7746,7.7746,7.7553,7.8092,7.8746,7.94,7.99,8.0554,8.1093,8.1093,8.1093,8.1124,8.1214,8.1229,8.122,8.1319,8.136,8.1387,8.1427,8.1453,8.1466,8.1516,8.1504,8.1491,8.1491,8.1565,8.1612,8.1612,8.1641,8.1674,8.1674,8.1674,8.1674,8.1674,8.1674,8.1674,8.1674,8.1674,8.1674,8.1674,8.1726,8.1737,8.1706,8.1745,8.1543,0.0,0.0,0.0,0.0,0.0,0.0,4.9817,5.0486,5.1418,5.245,5.3823,5.4911,5.5138,5.7126,5.8467,5.7668,5.8886,6.1117,6.4471,6.5622,6.5909,6.5258,6.5716,6.6179,6.6385,6.6295,6.632,6.6398,6.6469,6.6454,6.6345,6.56,6.5095,6.4901,6.4279,6.3852,6.3654,6.453,6.4919,6.4816,6.5611,6.6001,6.599,6.5982,6.5996,6.5984,6.5923,6.6282,6.7,6.8,6.8923,6.9783,7.0591,7.136,7.2168,7.3129,7.3976,7.4707,7.5654,7.5955,7.5895,7.5879,7.5879,7.5995,7.6724,7.6517,7.6154,7.6938,7.6592,7.6015,7.613,7.7323,7.8477,7.8477,7.9823,8.1054,8.0862,8.0977,8.1054,8.0977,8.1016,8.1093,8.1093,8.1154,8.1199,8.1214,8.1291,8.1374,8.1387,8.144,8.1491,8.1491,8.1491,8.1491,8.1491,8.1491,8.1491,8.1491,8.1491,8.1491,8.1491,8.1491,8.1491,8.1491,8.1565,8.1589,8.1589,8.1646,8.168,8.168,8.168,8.1713,0.0,0.0,0.0,0.0,0.0,0.0,4.7972,4.8632,4.9874,5.2142,5.2344,5.2682,5.4757,5.612,5.6801,5.655,5.7916,5.9781,6.1888,6.2766,6.3718,6.5056,6.4575,6.4754,6.626,6.5765,6.5657,6.6355,6.6403,6.6148,6.5491,6.5217,6.4463,6.3067,6.3499,6.3416,6.2694,6.4105,6.4827,6.4801,6.5627,6.5978,6.5982,6.6008,6.5947,6.5833,6.5885,6.591,6.6033,6.7662,6.8844,6.9783,7.0591,7.1014,7.1321,7.2937,7.3577,7.3923,7.5402,7.591,7.5879,7.5779,7.5763,7.5763,7.5916,7.5964,7.5964,7.6192,7.613,7.6169,7.6861,7.7746,7.8477,7.8477,7.9823,8.0708,7.9323,8.0092,8.09,8.0208,8.0631,8.1093,8.1093,8.1108,8.1139,8.1199,8.1244,8.1234,8.1305,8.1374,8.1414,8.1414,8.1466,8.1491,8.1491,8.1491,8.1491,8.1491,8.1491,8.1491,8.1491,8.1491,8.1491,8.1491,8.1516,8.1516,8.1516,8.1528,8.1565,8.1624,8.1624,8.1658,0.0,0.0,0.0,4.6059,0.0,0.0,0.0,4.7731,4.8491,5.0295,5.0594,5.0952,5.2274,5.3112,5.3605,5.3603,5.4607,5.5844,5.7187,5.9938,6.231,6.3701,6.3332,6.3671,6.5528,6.4899,6.4763,6.5678,6.6153,6.6045,6.5209,6.5106,6.4709,6.3817,6.3708,6.3226,6.2356,6.3924,6.4474,6.407,6.5341,6.5921,6.5897,6.5897,6.5846,6.5701,6.5742,6.5715,6.5761,6.7529,6.8531,6.9072,7.0329,7.0843,7.1074,7.2765,7.3433,7.3716,7.5265,7.5794,7.5779,7.5699,7.5666,7.5666,7.5666,7.5747,7.591,7.5985,7.6015,7.6092,7.6553,7.7216,7.7916,7.8339,7.9076,7.9713,7.9722,8.0068,8.0276,7.9885,8.0169,8.0592,8.1016,8.1093,8.1108,8.1154,8.1184,8.1229,8.1258,8.1291,8.1347,8.1347,8.14,8.1453,8.1453,8.1478,8.1491,8.1491,8.1491,8.1491,8.1491,8.1491,8.1478,8.1453,8.1478,8.1478,8.1453,8.1478,8.1516,8.1553,8.1553,8.1589,0.0,0.0,0.0,0.0,0.0,4.5424,0.0,0.0,0.0,4.8229,4.8732,4.9192,4.9717,5.01,5.0463,5.0851,5.1325,5.1991,5.308,5.6907,6.0112,6.1523,6.1282,6.1811,6.3949,6.3513,6.3477,6.451,6.5207,6.5207,6.4364,6.4644,6.476,6.4605,6.3923,6.3147,6.2305,6.3835,6.4176,6.332,6.5051,6.5872,6.5807,6.5807,6.5715,6.5594,6.5594,6.5594,6.5733,6.7487,6.8177,6.833,7.0105,7.0787,7.1017,7.2722,7.3418,7.3716,7.518,7.5692,7.5676,7.5616,7.5566,7.5583,7.5616,7.583,7.6087,7.6024,7.613,7.6207,7.6053,7.6532,7.7239,7.7799,7.8267,7.881,7.9703,7.9812,7.9614,7.9331,7.9408,7.9808,8.0708,8.0862,8.09,8.1054,8.1154,8.1184,8.1184,8.1258,8.1263,8.1263,8.1333,8.1374,8.1374,8.1427,8.1466,8.1478,8.1478,8.1478,8.1478,8.1466,8.1427,8.1374,8.144,8.1453,8.14,8.1466,8.1491,8.1491,8.1491,8.1528,0.0,0.0,0.0,0.0,4.628,0.0,0.0,0.0,4.6325,4.7203,0.0,4.7009,0.0,0.0,0.0,5.0356,5.0604,5.1237,5.2828,5.3497,5.505,5.8319,5.7258,5.7586,6.0846,6.1135,6.1533,6.2539,6.2663,6.2316,6.1505,6.2975,6.3497,6.2723,6.3232,6.3092,6.2215,6.3815,6.4166,6.332,6.5051,6.5897,6.5885,6.582,6.5715,6.5594,6.5594,6.5566,6.5638,6.7472,6.8133,6.8189,7.0076,7.0787,7.1031,7.2818,7.35,7.3716,7.518,7.5692,7.566,7.5549,7.5518,7.5514,7.5628,7.6229,7.6754,7.6163,7.6553,7.6976,7.6207,7.6532,7.697,7.6317,7.7892,7.8951,7.676,7.8075,7.9252,7.7716,7.8023,7.8861,7.9808,7.9939,8.0208,8.0977,8.1108,8.1108,8.1108,8.1184,8.1229,8.1229,8.1249,8.1305,8.1305,8.1305,8.1347,8.14,8.1414,8.1414,8.1414,8.1347,8.1305,8.1305,8.1374,8.14,8.14,8.1466,8.1491,8.1491,8.1491,8.1504,0.0,0.0,0.0,0.0,0.0,0.0,4.6113,0.0,4.5887,0.0,0.0,0.0,0.0,0.0,0.0,0.0,5.0018,0.0,0.0,0.0,5.2549,0.0,0.0,5.5667,5.8155,5.9302,6.0104,6.0508,6.0512,6.0573,6.08,6.205,6.3127,6.3864,6.4034,6.3954,6.3653,6.4667,6.4795,6.4027,6.5308,6.5885,6.5833,6.5728,6.5646,6.5537,6.5494,6.5479,6.5662,6.7414,6.8089,6.8174,7.0032,7.0729,7.0882,7.214,7.2899,7.3528,7.45,7.5195,7.5633,7.5514,7.5535,7.5566,7.5633,7.6306,7.6901,7.6156,7.6601,7.7092,7.6245,7.6186,7.6548,7.7185,7.7745,7.8234,7.8585,7.8793,7.8689,7.7991,7.7738,7.7808,7.8269,7.8746,7.9323,8.0208,7.99,7.9785,8.0285,7.9931,7.9653,7.9653,8.0136,8.0487,8.0487,8.0993,8.1305,8.1333,8.1333,8.1333,8.1333,8.1305,8.1263,8.122,8.1291,8.1333,8.1333,8.14,8.1453,8.1491,8.1491,8.1491,4.8817,0.0,0.0,0.0,0.0,0.0,0.0,0.0,0.0,0.0,0.0,0.0,0.0,0.0,0.0,0.0,0.0,0.0,0.0,0.0,0.0,0.0,0.0,0.0,0.0,5.6767,5.7545,5.8081,5.7826,5.8106,5.9149,6.0585,6.2144,6.3804,6.4347,6.4497,6.434,6.5218,6.5293,6.4513,6.5436,6.5872,6.582,6.5701,6.5594,6.5523,6.545,6.545,6.5609,6.7102,6.7829,6.8174,6.9719,7.0463,7.0754,7.1613,7.2502,7.3377,7.4052,7.4843,7.5549,7.5535,7.5514,7.5566,7.5583,7.641,7.7214,7.6455,7.6886,7.7378,7.6509,7.6064,7.6162,7.7659,7.7664,7.7807,7.965,7.9093,7.8207,7.8059,7.7307,7.6778,7.6923,7.763,7.8438,7.9323,7.89,7.8707,7.9361,7.89,7.8477,7.8477,7.9114,7.9605,7.986,8.0497,8.1003,8.1249,8.1263,8.1263,8.1263,8.1234,8.1244,8.1184,8.0988,8.0916,8.0916,8.0754,8.0705,8.0821,8.1298,8.1491,5.0263,5.0178,4.9912,4.8955,4.8224,0.0,0.0,0.0,4.5419,0.0,0.0,0.0,0.0,0.0,0.0,0.0,0.0,0.0,0.0,0.0,0.0,0.0,0.0,0.0,0.0,5.2964,5.308,0.0,5.431,5.4303,5.5338,5.805,6.0014,6.0982,6.3483,6.4359,6.3453,6.5088,6.5436,6.4513,6.5436,6.5897,6.5897,6.582,6.5715,6.5594,6.5523,6.5494,6.5571,6.6451,6.7293,6.8097,6.9068,6.9934,7.07,7.1636,7.251,7.3315,7.4101,7.4898,7.5518,7.5518,7.5518,7.5535,7.5566,7.6748,7.7948,7.7269,7.7636,7.8064,7.7262,7.6344,7.5829,7.6748,7.7513,7.807,7.8079,7.8094,7.7892,7.7172,7.6344,7.5794,7.6024,7.6746,7.7592,7.84,7.853,7.8515,7.8515,7.853,7.8477,7.8477,7.853,7.89,7.9746,7.9823,8.0254,8.1137,8.1214,8.1214,8.1214,8.1139,8.1093,8.1093,8.0322,7.9943,7.9943,7.9219,7.8914,7.9005,8.0692,8.1491,5.2563,5.2077,5.125,4.9884,4.8922,4.8099,0.0,0.0,0.0,0.0,0.0,0.0,0.0,0.0,0.0,0.0,0.0,0.0,0.0,0.0,0.0,0.0,0.0,0.0,0.0,0.0,0.0,0.0,5.2258,0.0,5.4109,5.5708,5.7913,6.0828,6.1527,6.2899,6.5033,6.5,6.509,6.5371,6.5718,6.5897,6.5897,6.5742,6.5622,6.5594,6.5465,6.542,6.5497,6.6421,6.7263,6.802,6.8993,6.9804,7.0582,7.152,7.2394,7.3335,7.4669,7.5306,7.5518,7.5518,7.5553,7.5549,7.5514,7.6786,7.8058,7.7215,7.7632,7.824,7.7949,7.6804,7.618,7.8135,7.8403,7.8501,7.9507,7.8874,7.8011,7.7777,7.6607,7.5682,7.5756,7.6125,7.6686,7.7553,7.7207,7.7053,7.763,7.7207,7.6861,7.6861,7.7361,7.8054,7.8861,8.0015,8.08,8.11,8.1139,8.1139,8.1139,8.1108,8.1093,8.1093,8.0816,8.0423,7.9904,7.9664,7.9296,7.8862,7.9429,7.9752,5.408,5.3444,5.2355,5.0681,4.9862,4.9143,4.7969,4.7969,4.8159,0.0,0.0,0.0,0.0,0.0,0.0,0.0,0.0,0.0,0.0,0.0,0.0,0.0,0.0,0.0,0.0,0.0,0.0,0.0,0.0,0.0,0.0,5.4262,5.6448,5.9319,6.0455,6.2131,6.4497,6.4526,6.4821,6.5333,6.5718,6.5885,6.5859,6.5701,6.5566,6.5509,6.5429,6.5368,6.5444,6.6346,6.7171,6.7926,6.8868,6.9677,7.0451,7.1423,7.2489,7.3658,7.5021,7.5518,7.5518,7.5518,7.5553,7.5549,7.5535,7.6543,7.7663,7.7399,7.7531,7.7871,7.8501,7.716,7.6262,7.8811,7.8811,7.8641,8.0234,7.9259,7.8091,7.8126,7.6748,7.5633,7.5763,7.5794,7.6033,7.6686,7.6346,7.6207,7.6784,7.6361,7.6015,7.6015,7.6515,7.7284,7.8415,7.9823,8.0785,8.1093,8.1093,8.1093,8.1093,8.1093,8.1093,8.1093,8.0785,8.0238,7.9398,7.909,7.8594,7.783,7.783,7.7884]}]]